<?xml version="1.0" encoding="UTF-8" standalone="no" ?>
<gpx xmlns="http://www.topografix.com/GPX/1/1" xmlns:xsi="http://www.w3.org/2001/XMLSchema-instance" xsi:schemaLocation="http://www.topografix.com/GPX/1/1 http://www.topografix.com/GPX/1/1/gpx.xsd" version="1.1" creator="VisuGPX - https://www.visugpx.com">
  <metadata>
    <name>Tout du Grand Queyras</name>
    <desc><![CDATA[
]]></desc>
  </metadata>
  <trk>
    <name><![CDATA[Move]]></name>
    <trkseg>
      <trkpt lat="44.71926" lon="6.90439">
        <ele>2038.1999511719</ele>
        <time>2020-02-18T08:23:22.670Z</time>
      </trkpt>
      <trkpt lat="44.71925" lon="6.90438">
        <ele>2025.7</ele>
        <time>2020-02-18T08:23:25.670Z</time>
      </trkpt>
      <trkpt lat="44.71929" lon="6.90441">
        <ele>1932</ele>
        <time>2020-02-18T08:25:49.670Z</time>
      </trkpt>
      <trkpt lat="44.71932" lon="6.90444">
        <ele>1932</ele>
        <time>2020-02-18T08:26:05.670Z</time>
      </trkpt>
      <trkpt lat="44.71936" lon="6.90448">
        <ele>1932</ele>
        <time>2020-02-18T08:26:09.670Z</time>
      </trkpt>
      <trkpt lat="44.71937" lon="6.90454">
        <ele>1932.8336678693</ele>
        <time>2020-02-18T08:26:14.670Z</time>
      </trkpt>
      <trkpt lat="44.71942" lon="6.90464">
        <ele>1935.43600128</ele>
        <time>2020-02-18T08:26:27.670Z</time>
      </trkpt>
      <trkpt lat="44.71945" lon="6.90476">
        <ele>1937.23600128</ele>
        <time>2020-02-18T08:26:41.670Z</time>
      </trkpt>
      <trkpt lat="44.71945" lon="6.90489">
        <ele>1939.31800064</ele>
        <time>2020-02-18T08:26:53.670Z</time>
      </trkpt>
      <trkpt lat="44.71948" lon="6.90502">
        <ele>1940.4038652278</ele>
        <time>2020-02-18T08:27:04.670Z</time>
      </trkpt>
      <trkpt lat="44.71949" lon="6.90515">
        <ele>1941.707772587</ele>
        <time>2020-02-18T08:27:17.670Z</time>
      </trkpt>
      <trkpt lat="44.71949" lon="6.90527">
        <ele>1943.01800064</ele>
        <time>2020-02-18T08:27:30.670Z</time>
      </trkpt>
      <trkpt lat="44.71951" lon="6.90541">
        <ele>1944.63600128</ele>
        <time>2020-02-18T08:27:43.670Z</time>
      </trkpt>
      <trkpt lat="44.71952" lon="6.90554">
        <ele>1946</ele>
        <time>2020-02-18T08:27:54.670Z</time>
      </trkpt>
      <trkpt lat="44.71955" lon="6.90567">
        <ele>1946</ele>
        <time>2020-02-18T08:28:06.670Z</time>
      </trkpt>
      <trkpt lat="44.71959" lon="6.90579">
        <ele>1947.43600128</ele>
        <time>2020-02-18T08:28:17.670Z</time>
      </trkpt>
      <trkpt lat="44.7196" lon="6.90592">
        <ele>1948.91800064</ele>
        <time>2020-02-18T08:28:29.670Z</time>
      </trkpt>
      <trkpt lat="44.71959" lon="6.90604">
        <ele>1950.23600128</ele>
        <time>2020-02-18T08:28:41.670Z</time>
      </trkpt>
      <trkpt lat="44.7196" lon="6.90618">
        <ele>1952.41800064</ele>
        <time>2020-02-18T08:28:54.670Z</time>
      </trkpt>
      <trkpt lat="44.71959" lon="6.90631">
        <ele>1953</ele>
        <time>2020-02-18T08:29:06.670Z</time>
      </trkpt>
      <trkpt lat="44.71963" lon="6.90644">
        <ele>1955.51800064</ele>
        <time>2020-02-18T08:29:25.670Z</time>
      </trkpt>
      <trkpt lat="44.71961" lon="6.90657">
        <ele>1957.01800064</ele>
        <time>2020-02-18T08:29:40.670Z</time>
      </trkpt>
      <trkpt lat="44.71963" lon="6.9067">
        <ele>1958</ele>
        <time>2020-02-18T08:29:50.670Z</time>
      </trkpt>
      <trkpt lat="44.71966" lon="6.90682">
        <ele>1958.23600128</ele>
        <time>2020-02-18T08:30:01.670Z</time>
      </trkpt>
      <trkpt lat="44.71965" lon="6.90696">
        <ele>1960.5976791658</ele>
        <time>2020-02-18T08:30:16.670Z</time>
      </trkpt>
      <trkpt lat="44.71964" lon="6.90709">
        <ele>1961</ele>
        <time>2020-02-18T08:30:27.670Z</time>
      </trkpt>
      <trkpt lat="44.71961" lon="6.90721">
        <ele>1962.23047</ele>
        <time>2020-02-18T08:30:41.670Z</time>
      </trkpt>
      <trkpt lat="44.7196" lon="6.90734">
        <ele>1964.3975422951</ele>
        <time>2020-02-18T08:30:52.670Z</time>
      </trkpt>
      <trkpt lat="44.7196" lon="6.90747">
        <ele>1966.61800064</ele>
        <time>2020-02-18T08:31:06.670Z</time>
      </trkpt>
      <trkpt lat="44.7196" lon="6.9076">
        <ele>1967</ele>
        <time>2020-02-18T08:31:17.670Z</time>
      </trkpt>
      <trkpt lat="44.71959" lon="6.90774">
        <ele>1967.91800064</ele>
        <time>2020-02-18T08:31:29.670Z</time>
      </trkpt>
      <trkpt lat="44.71963" lon="6.90787">
        <ele>1969.11800064</ele>
        <time>2020-02-18T08:31:41.670Z</time>
      </trkpt>
      <trkpt lat="44.71961" lon="6.908">
        <ele>1970.41800064</ele>
        <time>2020-02-18T08:31:54.670Z</time>
      </trkpt>
      <trkpt lat="44.71963" lon="6.90813">
        <ele>1971.31800064</ele>
        <time>2020-02-18T08:32:03.670Z</time>
      </trkpt>
      <trkpt lat="44.71963" lon="6.90825">
        <ele>1972.51800064</ele>
        <time>2020-02-18T08:32:15.670Z</time>
      </trkpt>
      <trkpt lat="44.71963" lon="6.90838">
        <ele>1974.23600128</ele>
        <time>2020-02-18T08:32:31.670Z</time>
      </trkpt>
      <trkpt lat="44.71964" lon="6.90852">
        <ele>1977.25400192</ele>
        <time>2020-02-18T08:32:44.670Z</time>
      </trkpt>
      <trkpt lat="44.71965" lon="6.90865">
        <ele>1980.6327347655</ele>
        <time>2020-02-18T08:32:58.670Z</time>
      </trkpt>
      <trkpt lat="44.71969" lon="6.90877">
        <ele>1982.41800064</ele>
        <time>2020-02-18T08:33:14.670Z</time>
      </trkpt>
      <trkpt lat="44.71972" lon="6.90889">
        <ele>1985.7925324481</ele>
        <time>2020-02-18T08:33:34.670Z</time>
      </trkpt>
      <trkpt lat="44.71982" lon="6.90889">
        <ele>1991.5170343997</ele>
        <time>2020-02-18T08:34:15.670Z</time>
      </trkpt>
      <trkpt lat="44.71991" lon="6.90885">
        <ele>1992.81800064</ele>
        <time>2020-02-18T08:34:28.670Z</time>
      </trkpt>
      <trkpt lat="44.71993" lon="6.90898">
        <ele>1997.81800064</ele>
        <time>2020-02-18T08:35:08.670Z</time>
      </trkpt>
      <trkpt lat="44.71995" lon="6.90911">
        <ele>1999.03600128</ele>
        <time>2020-02-18T08:35:25.670Z</time>
      </trkpt>
      <trkpt lat="44.72001" lon="6.9092">
        <ele>2002.03600128</ele>
        <time>2020-02-18T08:35:40.670Z</time>
      </trkpt>
      <trkpt lat="44.72006" lon="6.90934">
        <ele>2004.61800064</ele>
        <time>2020-02-18T08:35:56.670Z</time>
      </trkpt>
      <trkpt lat="44.71998" lon="6.90942">
        <ele>2004.91800064</ele>
        <time>2020-02-18T08:35:59.670Z</time>
      </trkpt>
      <trkpt lat="44.71989" lon="6.90942">
        <ele>2005</ele>
        <time>2020-02-18T08:36:03.670Z</time>
      </trkpt>
      <trkpt lat="44.71997" lon="6.90948">
        <ele>2007.0480962232</ele>
        <time>2020-02-18T08:36:20.670Z</time>
      </trkpt>
      <trkpt lat="44.72007" lon="6.90949">
        <ele>2010.1142310518</ele>
        <time>2020-02-18T08:36:31.670Z</time>
      </trkpt>
      <trkpt lat="44.72016" lon="6.90952">
        <ele>2010.9854801117</ele>
        <time>2020-02-18T08:36:40.670Z</time>
      </trkpt>
      <trkpt lat="44.72024" lon="6.90958">
        <ele>2014.03600128</ele>
        <time>2020-02-18T08:37:00.670Z</time>
      </trkpt>
      <trkpt lat="44.72033" lon="6.90956">
        <ele>2017.2335334237</ele>
        <time>2020-02-18T08:37:16.670Z</time>
      </trkpt>
      <trkpt lat="44.72041" lon="6.90949">
        <ele>2018.6172348648</ele>
        <time>2020-02-18T08:37:26.670Z</time>
      </trkpt>
      <trkpt lat="44.72037" lon="6.90937">
        <ele>2019.71800064</ele>
        <time>2020-02-18T08:37:37.670Z</time>
      </trkpt>
      <trkpt lat="44.72045" lon="6.9093">
        <ele>2022.03600128</ele>
        <time>2020-02-18T08:37:50.670Z</time>
      </trkpt>
      <trkpt lat="44.72053" lon="6.90936">
        <ele>2024.31800064</ele>
        <time>2020-02-18T08:38:13.670Z</time>
      </trkpt>
      <trkpt lat="44.72057" lon="6.90948">
        <ele>2026.43600128</ele>
        <time>2020-02-18T08:38:27.670Z</time>
      </trkpt>
      <trkpt lat="44.72063" lon="6.90959">
        <ele>2029.75400192</ele>
        <time>2020-02-18T08:38:39.670Z</time>
      </trkpt>
      <trkpt lat="44.72066" lon="6.90971">
        <ele>2031.41800064</ele>
        <time>2020-02-18T08:38:54.670Z</time>
      </trkpt>
      <trkpt lat="44.7207" lon="6.90982">
        <ele>2032</ele>
        <time>2020-02-18T08:39:06.670Z</time>
      </trkpt>
      <trkpt lat="44.72075" lon="6.90993">
        <ele>2032.91800064</ele>
        <time>2020-02-18T08:39:19.670Z</time>
      </trkpt>
      <trkpt lat="44.7208" lon="6.91004">
        <ele>2036.0348174639</ele>
        <time>2020-02-18T08:39:40.670Z</time>
      </trkpt>
      <trkpt lat="44.72078" lon="6.91017">
        <ele>2038.7950315826</ele>
        <time>2020-02-18T08:39:54.670Z</time>
      </trkpt>
      <trkpt lat="44.72087" lon="6.9102">
        <ele>2041.03600128</ele>
        <time>2020-02-18T08:40:10.670Z</time>
      </trkpt>
      <trkpt lat="44.72096" lon="6.91023">
        <ele>2044.63600128</ele>
        <time>2020-02-18T08:40:28.670Z</time>
      </trkpt>
      <trkpt lat="44.72097" lon="6.91036">
        <ele>2047</ele>
        <time>2020-02-18T08:40:45.670Z</time>
      </trkpt>
      <trkpt lat="44.72095" lon="6.91049">
        <ele>2048.83600128</ele>
        <time>2020-02-18T08:40:59.670Z</time>
      </trkpt>
      <trkpt lat="44.72096" lon="6.91062">
        <ele>2051.61800064</ele>
        <time>2020-02-18T08:41:16.670Z</time>
      </trkpt>
      <trkpt lat="44.72097" lon="6.91075">
        <ele>2052</ele>
        <time>2020-02-18T08:41:29.670Z</time>
      </trkpt>
      <trkpt lat="44.72099" lon="6.91088">
        <ele>2054.63600128</ele>
        <time>2020-02-18T08:41:43.670Z</time>
      </trkpt>
      <trkpt lat="44.72098" lon="6.91101">
        <ele>2056.71800064</ele>
        <time>2020-02-18T08:41:57.670Z</time>
      </trkpt>
      <trkpt lat="44.72099" lon="6.91114">
        <ele>2058.41800064</ele>
        <time>2020-02-18T08:42:14.670Z</time>
      </trkpt>
      <trkpt lat="44.72095" lon="6.91126">
        <ele>2060.43600128</ele>
        <time>2020-02-18T08:42:27.670Z</time>
      </trkpt>
      <trkpt lat="44.7209" lon="6.91138">
        <ele>2062</ele>
        <time>2020-02-18T08:42:40.670Z</time>
      </trkpt>
      <trkpt lat="44.72085" lon="6.9115">
        <ele>2063.5029022806</ele>
        <time>2020-02-18T08:42:55.670Z</time>
      </trkpt>
      <trkpt lat="44.72083" lon="6.91162">
        <ele>2066.31800064</ele>
        <time>2020-02-18T08:43:13.670Z</time>
      </trkpt>
      <trkpt lat="44.72082" lon="6.91176">
        <ele>2068.0358935877</ele>
        <time>2020-02-18T08:43:30.670Z</time>
      </trkpt>
      <trkpt lat="44.72081" lon="6.91188">
        <ele>2070.617853759</ele>
        <time>2020-02-18T08:43:46.680Z</time>
      </trkpt>
      <trkpt lat="44.72078" lon="6.91201">
        <ele>2072</ele>
        <time>2020-02-18T08:44:00.670Z</time>
      </trkpt>
      <trkpt lat="44.72069" lon="6.91206">
        <ele>2071.9790409715</ele>
        <time>2020-02-18T08:45:20.700Z</time>
      </trkpt>
      <trkpt lat="44.72068" lon="6.91219">
        <ele>2073.23600128</ele>
        <time>2020-02-18T08:45:46.670Z</time>
      </trkpt>
      <trkpt lat="44.72067" lon="6.91232">
        <ele>2075.43600128</ele>
        <time>2020-02-18T08:45:57.670Z</time>
      </trkpt>
      <trkpt lat="44.72068" lon="6.91245">
        <ele>2077.7962788678</ele>
        <time>2020-02-18T08:46:14.670Z</time>
      </trkpt>
      <trkpt lat="44.72069" lon="6.91259">
        <ele>2079.81800064</ele>
        <time>2020-02-18T08:46:28.670Z</time>
      </trkpt>
      <trkpt lat="44.7207" lon="6.91272">
        <ele>2082.2324650789</ele>
        <time>2020-02-18T08:46:41.670Z</time>
      </trkpt>
      <trkpt lat="44.72071" lon="6.91285">
        <ele>2084.83600128</ele>
        <time>2020-02-18T08:46:54.670Z</time>
      </trkpt>
      <trkpt lat="44.72078" lon="6.91293">
        <ele>2089.43600128</ele>
        <time>2020-02-18T08:47:27.670Z</time>
      </trkpt>
      <trkpt lat="44.72087" lon="6.91288">
        <ele>2090.91800064</ele>
        <time>2020-02-18T08:47:39.670Z</time>
      </trkpt>
      <trkpt lat="44.72094" lon="6.9128">
        <ele>2093.31800064</ele>
        <time>2020-02-18T08:48:03.670Z</time>
      </trkpt>
      <trkpt lat="44.72098" lon="6.91291">
        <ele>2096.63600128</ele>
        <time>2020-02-18T08:48:28.670Z</time>
      </trkpt>
      <trkpt lat="44.72097" lon="6.91304">
        <ele>2098.63600128</ele>
        <time>2020-02-18T08:48:43.670Z</time>
      </trkpt>
      <trkpt lat="44.72092" lon="6.91316">
        <ele>2101.03600128</ele>
        <time>2020-02-18T08:49:00.670Z</time>
      </trkpt>
      <trkpt lat="44.72094" lon="6.91329">
        <ele>2103.4042556879</ele>
        <time>2020-02-18T08:49:14.670Z</time>
      </trkpt>
      <trkpt lat="44.72102" lon="6.91323">
        <ele>2107.45400192</ele>
        <time>2020-02-18T08:49:48.670Z</time>
      </trkpt>
      <trkpt lat="44.72109" lon="6.91315">
        <ele>2109.23600128</ele>
        <time>2020-02-18T08:50:01.670Z</time>
      </trkpt>
      <trkpt lat="44.72111" lon="6.91328">
        <ele>2113.83600128</ele>
        <time>2020-02-18T08:50:29.670Z</time>
      </trkpt>
      <trkpt lat="44.7212" lon="6.91326">
        <ele>2118.51800064</ele>
        <time>2020-02-18T08:51:15.670Z</time>
      </trkpt>
      <trkpt lat="44.72127" lon="6.91317">
        <ele>2120</ele>
        <time>2020-02-18T08:51:30.670Z</time>
      </trkpt>
      <trkpt lat="44.72125" lon="6.9133">
        <ele>2123.01800064</ele>
        <time>2020-02-18T08:52:00.670Z</time>
      </trkpt>
      <trkpt lat="44.72126" lon="6.91343">
        <ele>2124.43600128</ele>
        <time>2020-02-18T08:52:12.670Z</time>
      </trkpt>
      <trkpt lat="44.72126" lon="6.91355">
        <ele>2126.4042556879</ele>
        <time>2020-02-18T08:52:24.670Z</time>
      </trkpt>
      <trkpt lat="44.72133" lon="6.91346">
        <ele>2129.41800064</ele>
        <time>2020-02-18T08:52:54.670Z</time>
      </trkpt>
      <trkpt lat="44.7214" lon="6.91338">
        <ele>2131.83600128</ele>
        <time>2020-02-18T08:53:09.670Z</time>
      </trkpt>
      <trkpt lat="44.72147" lon="6.91329">
        <ele>2134.11800064</ele>
        <time>2020-02-18T08:53:21.670Z</time>
      </trkpt>
      <trkpt lat="44.72154" lon="6.91319">
        <ele>2136.43600128</ele>
        <time>2020-02-18T08:53:37.670Z</time>
      </trkpt>
      <trkpt lat="44.72161" lon="6.91311">
        <ele>2139.63600128</ele>
        <time>2020-02-18T08:53:58.670Z</time>
      </trkpt>
      <trkpt lat="44.72164" lon="6.91323">
        <ele>2142.63600128</ele>
        <time>2020-02-18T08:54:23.670Z</time>
      </trkpt>
      <trkpt lat="44.72165" lon="6.91336">
        <ele>2144.91800064</ele>
        <time>2020-02-18T08:54:39.670Z</time>
      </trkpt>
      <trkpt lat="44.72162" lon="6.91349">
        <ele>2145.63600128</ele>
        <time>2020-02-18T08:54:53.670Z</time>
      </trkpt>
      <trkpt lat="44.72163" lon="6.91362">
        <ele>2148.43600128</ele>
        <time>2020-02-18T08:55:07.670Z</time>
      </trkpt>
      <trkpt lat="44.72161" lon="6.91374">
        <ele>2151.03600128</ele>
        <time>2020-02-18T08:55:25.670Z</time>
      </trkpt>
      <trkpt lat="44.72158" lon="6.91388">
        <ele>2152</ele>
        <time>2020-02-18T08:55:40.670Z</time>
      </trkpt>
      <trkpt lat="44.72158" lon="6.91401">
        <ele>2153.48199936</ele>
        <time>2020-02-18T08:55:55.670Z</time>
      </trkpt>
      <trkpt lat="44.72159" lon="6.91414">
        <ele>2156.03600128</ele>
        <time>2020-02-18T08:56:15.670Z</time>
      </trkpt>
      <trkpt lat="44.7216" lon="6.91428">
        <ele>2157.81800064</ele>
        <time>2020-02-18T08:56:28.670Z</time>
      </trkpt>
      <trkpt lat="44.72167" lon="6.91437">
        <ele>2158</ele>
        <time>2020-02-18T08:56:39.670Z</time>
      </trkpt>
      <trkpt lat="44.7217" lon="6.91449">
        <ele>2162.03600128</ele>
        <time>2020-02-18T08:56:55.670Z</time>
      </trkpt>
      <trkpt lat="44.72172" lon="6.91462">
        <ele>2164.11800064</ele>
        <time>2020-02-18T08:57:11.670Z</time>
      </trkpt>
      <trkpt lat="44.72173" lon="6.91475">
        <ele>2166.6376383943</ele>
        <time>2020-02-18T08:57:28.670Z</time>
      </trkpt>
      <trkpt lat="44.72174" lon="6.91488">
        <ele>2168.61900032</ele>
        <time>2020-02-18T08:57:46.670Z</time>
      </trkpt>
      <trkpt lat="44.72173" lon="6.91501">
        <ele>2170.3400638776</ele>
        <time>2020-02-18T08:58:02.670Z</time>
      </trkpt>
      <trkpt lat="44.72175" lon="6.91513">
        <ele>2172</ele>
        <time>2020-02-18T08:58:15.670Z</time>
      </trkpt>
      <trkpt lat="44.72177" lon="6.91526">
        <ele>2172.71900032</ele>
        <time>2020-02-18T08:58:27.670Z</time>
      </trkpt>
      <trkpt lat="44.72179" lon="6.9154">
        <ele>2173.91900032</ele>
        <time>2020-02-18T08:58:39.670Z</time>
      </trkpt>
      <trkpt lat="44.7218" lon="6.91553">
        <ele>2175.1906736384</ele>
        <time>2020-02-18T08:58:52.670Z</time>
      </trkpt>
      <trkpt lat="44.72181" lon="6.91566">
        <ele>2177.63800064</ele>
        <time>2020-02-18T08:59:08.670Z</time>
      </trkpt>
      <trkpt lat="44.7218" lon="6.91579">
        <ele>2178.1989749501</ele>
        <time>2020-02-18T08:59:22.670Z</time>
      </trkpt>
      <trkpt lat="44.72179" lon="6.91591">
        <ele>2179.51900032</ele>
        <time>2020-02-18T08:59:35.670Z</time>
      </trkpt>
      <trkpt lat="44.72179" lon="6.91604">
        <ele>2180</ele>
        <time>2020-02-18T08:59:51.670Z</time>
      </trkpt>
      <trkpt lat="44.72181" lon="6.91616">
        <ele>2180.81900032</ele>
        <time>2020-02-18T09:00:08.670Z</time>
      </trkpt>
      <trkpt lat="44.72184" lon="6.91629">
        <ele>2183.05700096</ele>
        <time>2020-02-18T09:00:30.670Z</time>
      </trkpt>
      <trkpt lat="44.72187" lon="6.91641">
        <ele>2186</ele>
        <time>2020-02-18T09:00:42.670Z</time>
      </trkpt>
      <trkpt lat="44.72188" lon="6.91654">
        <ele>2186.71900032</ele>
        <time>2020-02-18T09:00:57.670Z</time>
      </trkpt>
      <trkpt lat="44.72183" lon="6.91665">
        <ele>2189.51900032</ele>
        <time>2020-02-18T09:01:15.670Z</time>
      </trkpt>
      <trkpt lat="44.72183" lon="6.91678">
        <ele>2191</ele>
        <time>2020-02-18T09:01:33.670Z</time>
      </trkpt>
      <trkpt lat="44.72177" lon="6.9169">
        <ele>2192.83800064</ele>
        <time>2020-02-18T09:01:49.670Z</time>
      </trkpt>
      <trkpt lat="44.72171" lon="6.91699">
        <ele>2196</ele>
        <time>2020-02-18T09:02:10.670Z</time>
      </trkpt>
      <trkpt lat="44.72168" lon="6.91712">
        <ele>2196.51900032</ele>
        <time>2020-02-18T09:02:25.670Z</time>
      </trkpt>
      <trkpt lat="44.72163" lon="6.91724">
        <ele>2198.43800064</ele>
        <time>2020-02-18T09:02:37.670Z</time>
      </trkpt>
      <trkpt lat="44.72172" lon="6.9173">
        <ele>2202.23800064</ele>
        <time>2020-02-18T09:03:16.670Z</time>
      </trkpt>
      <trkpt lat="44.72181" lon="6.91726">
        <ele>2203.23800064</ele>
        <time>2020-02-18T09:03:31.670Z</time>
      </trkpt>
      <trkpt lat="44.72182" lon="6.91739">
        <ele>2209.51900032</ele>
        <time>2020-02-18T09:04:15.670Z</time>
      </trkpt>
      <trkpt lat="44.72181" lon="6.91753">
        <ele>2211.63800064</ele>
        <time>2020-02-18T09:04:28.670Z</time>
      </trkpt>
      <trkpt lat="44.72177" lon="6.91764">
        <ele>2214.41900032</ele>
        <time>2020-02-18T09:04:44.670Z</time>
      </trkpt>
      <trkpt lat="44.7217" lon="6.91772">
        <ele>2217.16496</ele>
        <time>2020-02-18T09:05:02.670Z</time>
      </trkpt>
      <trkpt lat="44.72178" lon="6.91779">
        <ele>2219.31804608</ele>
        <time>2020-02-18T09:05:33.670Z</time>
      </trkpt>
      <trkpt lat="44.72186" lon="6.91774">
        <ele>2220.617853759</ele>
        <time>2020-02-18T09:05:46.670Z</time>
      </trkpt>
      <trkpt lat="44.72194" lon="6.91768">
        <ele>2223.3995908197</ele>
        <time>2020-02-18T09:06:02.670Z</time>
      </trkpt>
      <trkpt lat="44.72196" lon="6.9178">
        <ele>2226.1973279169</ele>
        <time>2020-02-18T09:06:32.670Z</time>
      </trkpt>
      <trkpt lat="44.72189" lon="6.91789">
        <ele>2228.01900032</ele>
        <time>2020-02-18T09:06:50.670Z</time>
      </trkpt>
      <trkpt lat="44.72183" lon="6.91798">
        <ele>2229.4185818721</ele>
        <time>2020-02-18T09:07:04.670Z</time>
      </trkpt>
      <trkpt lat="44.72191" lon="6.91803">
        <ele>2233.51800064</ele>
        <time>2020-02-18T09:07:35.670Z</time>
      </trkpt>
      <trkpt lat="44.722" lon="6.91802">
        <ele>2236.85400192</ele>
        <time>2020-02-18T09:07:56.670Z</time>
      </trkpt>
      <trkpt lat="44.72199" lon="6.91816">
        <ele>2242.23600128</ele>
        <time>2020-02-18T09:08:41.670Z</time>
      </trkpt>
      <trkpt lat="44.72193" lon="6.91826">
        <ele>2243.38199936</ele>
        <time>2020-02-18T09:08:56.670Z</time>
      </trkpt>
      <trkpt lat="44.72186" lon="6.91834">
        <ele>2243</ele>
        <time>2020-02-18T09:09:07.670Z</time>
      </trkpt>
      <trkpt lat="44.7218" lon="6.91844">
        <ele>2243</ele>
        <time>2020-02-18T09:09:20.670Z</time>
      </trkpt>
      <trkpt lat="44.72189" lon="6.91844">
        <ele>2244.1971253862</ele>
        <time>2020-02-18T09:10:32.670Z</time>
      </trkpt>
      <trkpt lat="44.72191" lon="6.91857">
        <ele>2244.1971253862</ele>
        <time>2020-02-18T09:11:52.670Z</time>
      </trkpt>
      <trkpt lat="44.7219" lon="6.91871">
        <ele>2245</ele>
        <time>2020-02-18T09:12:04.670Z</time>
      </trkpt>
      <trkpt lat="44.72191" lon="6.91884">
        <ele>2245.6167667118</ele>
        <time>2020-02-18T09:12:16.670Z</time>
      </trkpt>
      <trkpt lat="44.7219" lon="6.91897">
        <ele>2248.01800064</ele>
        <time>2020-02-18T09:12:30.670Z</time>
      </trkpt>
      <trkpt lat="44.72185" lon="6.91908">
        <ele>2249.51800064</ele>
        <time>2020-02-18T09:12:45.670Z</time>
      </trkpt>
      <trkpt lat="44.72183" lon="6.91921">
        <ele>2250.91800064</ele>
        <time>2020-02-18T09:12:59.670Z</time>
      </trkpt>
      <trkpt lat="44.7218" lon="6.91934">
        <ele>2252.83600128</ele>
        <time>2020-02-18T09:13:14.670Z</time>
      </trkpt>
      <trkpt lat="44.72178" lon="6.91947">
        <ele>2254.0179646991</ele>
        <time>2020-02-18T09:13:30.670Z</time>
      </trkpt>
      <trkpt lat="44.72177" lon="6.9196">
        <ele>2255.1162325395</ele>
        <time>2020-02-18T09:13:41.670Z</time>
      </trkpt>
      <trkpt lat="44.72174" lon="6.91972">
        <ele>2257.03600128</ele>
        <time>2020-02-18T09:13:55.670Z</time>
      </trkpt>
      <trkpt lat="44.72173" lon="6.91985">
        <ele>2259.6353661172</ele>
        <time>2020-02-18T09:14:13.670Z</time>
      </trkpt>
      <trkpt lat="44.72175" lon="6.91998">
        <ele>2264</ele>
        <time>2020-02-18T09:14:34.670Z</time>
      </trkpt>
      <trkpt lat="44.72176" lon="6.9201">
        <ele>2265.8302289559</ele>
        <time>2020-02-18T09:14:49.670Z</time>
      </trkpt>
      <trkpt lat="44.72168" lon="6.92019">
        <ele>2266.83600128</ele>
        <time>2020-02-18T09:15:04.670Z</time>
      </trkpt>
      <trkpt lat="44.7216" lon="6.92023">
        <ele>2268.91800064</ele>
        <time>2020-02-18T09:15:19.670Z</time>
      </trkpt>
      <trkpt lat="44.72152" lon="6.9203">
        <ele>2271.21800064</ele>
        <time>2020-02-18T09:15:32.670Z</time>
      </trkpt>
      <trkpt lat="44.72143" lon="6.92034">
        <ele>2272.61800064</ele>
        <time>2020-02-18T09:15:46.670Z</time>
      </trkpt>
      <trkpt lat="44.72135" lon="6.92038">
        <ele>2274.41800064</ele>
        <time>2020-02-18T09:16:04.670Z</time>
      </trkpt>
      <trkpt lat="44.72127" lon="6.92046">
        <ele>2275.83600128</ele>
        <time>2020-02-18T09:16:14.670Z</time>
      </trkpt>
      <trkpt lat="44.72124" lon="6.92058">
        <ele>2278.6311074357</ele>
        <time>2020-02-18T09:16:28.670Z</time>
      </trkpt>
      <trkpt lat="44.72123" lon="6.92072">
        <ele>2280</ele>
        <time>2020-02-18T09:16:43.670Z</time>
      </trkpt>
      <trkpt lat="44.72123" lon="6.92084">
        <ele>2281.25400192</ele>
        <time>2020-02-18T09:16:54.670Z</time>
      </trkpt>
      <trkpt lat="44.72125" lon="6.92096">
        <ele>2283</ele>
        <time>2020-02-18T09:17:09.670Z</time>
      </trkpt>
      <trkpt lat="44.72123" lon="6.92109">
        <ele>2285.0339327528</ele>
        <time>2020-02-18T09:17:25.670Z</time>
      </trkpt>
      <trkpt lat="44.7212" lon="6.92122">
        <ele>2286.9178362599</ele>
        <time>2020-02-18T09:17:39.670Z</time>
      </trkpt>
      <trkpt lat="44.72118" lon="6.92135">
        <ele>2287.2608697381</ele>
        <time>2020-02-18T09:17:51.670Z</time>
      </trkpt>
      <trkpt lat="44.72118" lon="6.92148">
        <ele>2290.61800064</ele>
        <time>2020-02-18T09:18:06.670Z</time>
      </trkpt>
      <trkpt lat="44.72116" lon="6.92161">
        <ele>2292.2355300691</ele>
        <time>2020-02-18T09:18:21.670Z</time>
      </trkpt>
      <trkpt lat="44.72113" lon="6.92173">
        <ele>2294.8176357949</ele>
        <time>2020-02-18T09:18:38.670Z</time>
      </trkpt>
      <trkpt lat="44.7211" lon="6.92186">
        <ele>2297.41800064</ele>
        <time>2020-02-18T09:18:54.670Z</time>
      </trkpt>
      <trkpt lat="44.72106" lon="6.92198">
        <ele>2299.63600128</ele>
        <time>2020-02-18T09:19:08.670Z</time>
      </trkpt>
      <trkpt lat="44.72105" lon="6.92211">
        <ele>2300.5170343997</ele>
        <time>2020-02-18T09:19:25.670Z</time>
      </trkpt>
      <trkpt lat="44.72103" lon="6.92223">
        <ele>2302.431294662</ele>
        <time>2020-02-18T09:19:42.670Z</time>
      </trkpt>
      <trkpt lat="44.721" lon="6.92237">
        <ele>2304.41800064</ele>
        <time>2020-02-18T09:19:54.670Z</time>
      </trkpt>
      <trkpt lat="44.72097" lon="6.92249">
        <ele>2305</ele>
        <time>2020-02-18T09:20:08.670Z</time>
      </trkpt>
      <trkpt lat="44.72094" lon="6.92261">
        <ele>2308.23600128</ele>
        <time>2020-02-18T09:20:26.670Z</time>
      </trkpt>
      <trkpt lat="44.72094" lon="6.92275">
        <ele>2310.11800064</ele>
        <time>2020-02-18T09:20:41.670Z</time>
      </trkpt>
      <trkpt lat="44.72094" lon="6.92288">
        <ele>2311.4995179947</ele>
        <time>2020-02-18T09:20:55.670Z</time>
      </trkpt>
      <trkpt lat="44.72096" lon="6.92301">
        <ele>2313.8297000172</ele>
        <time>2020-02-18T09:21:09.670Z</time>
      </trkpt>
      <trkpt lat="44.72105" lon="6.92299">
        <ele>2319.1971253862</ele>
        <time>2020-02-18T09:21:42.670Z</time>
      </trkpt>
      <trkpt lat="44.72111" lon="6.92309">
        <ele>2322.3991819526</ele>
        <time>2020-02-18T09:22:12.670Z</time>
      </trkpt>
      <trkpt lat="44.72112" lon="6.92322">
        <ele>2324.7165670473</ele>
        <time>2020-02-18T09:22:27.670Z</time>
      </trkpt>
      <trkpt lat="44.72109" lon="6.92335">
        <ele>2326.3173657055</ele>
        <time>2020-02-18T09:22:43.670Z</time>
      </trkpt>
      <trkpt lat="44.72106" lon="6.92347">
        <ele>2329.4529073846</ele>
        <time>2020-02-18T09:22:58.670Z</time>
      </trkpt>
      <trkpt lat="44.72103" lon="6.92359">
        <ele>2330.3159482659</ele>
        <time>2020-02-18T09:23:13.670Z</time>
      </trkpt>
      <trkpt lat="44.72101" lon="6.92373">
        <ele>2331.8171837178</ele>
        <time>2020-02-18T09:23:28.670Z</time>
      </trkpt>
      <trkpt lat="44.721" lon="6.92387">
        <ele>2333.1707326674</ele>
        <time>2020-02-18T09:23:42.670Z</time>
      </trkpt>
      <trkpt lat="44.72099" lon="6.924">
        <ele>2334.43600128</ele>
        <time>2020-02-18T09:23:52.670Z</time>
      </trkpt>
      <trkpt lat="44.72096" lon="6.92412">
        <ele>2336.3072469002</ele>
        <time>2020-02-18T09:24:03.670Z</time>
      </trkpt>
      <trkpt lat="44.72095" lon="6.92425">
        <ele>2337</ele>
        <time>2020-02-18T09:24:16.670Z</time>
      </trkpt>
      <trkpt lat="44.72093" lon="6.92438">
        <ele>2338.83600128</ele>
        <time>2020-02-18T09:24:29.670Z</time>
      </trkpt>
      <trkpt lat="44.72089" lon="6.9245">
        <ele>2340.431294662</ele>
        <time>2020-02-18T09:24:42.670Z</time>
      </trkpt>
      <trkpt lat="44.72085" lon="6.92462">
        <ele>2342.63600128</ele>
        <time>2020-02-18T09:24:53.670Z</time>
      </trkpt>
      <trkpt lat="44.72085" lon="6.92475">
        <ele>2344</ele>
        <time>2020-02-18T09:25:04.670Z</time>
      </trkpt>
      <trkpt lat="44.72084" lon="6.92489">
        <ele>2344.5169663764</ele>
        <time>2020-02-18T09:25:15.670Z</time>
      </trkpt>
      <trkpt lat="44.72083" lon="6.92501">
        <ele>2346.4348706596</ele>
        <time>2020-02-18T09:25:27.670Z</time>
      </trkpt>
      <trkpt lat="44.72082" lon="6.92514">
        <ele>2348.0320641488</ele>
        <time>2020-02-18T09:25:40.670Z</time>
      </trkpt>
      <trkpt lat="44.72082" lon="6.92528">
        <ele>2350.3170493904</ele>
        <time>2020-02-18T09:25:53.670Z</time>
      </trkpt>
      <trkpt lat="44.7208" lon="6.9254">
        <ele>2351.4162492008</ele>
        <time>2020-02-18T09:26:04.670Z</time>
      </trkpt>
      <trkpt lat="44.72078" lon="6.92553">
        <ele>2352.71800064</ele>
        <time>2020-02-18T09:26:17.670Z</time>
      </trkpt>
      <trkpt lat="44.72076" lon="6.92566">
        <ele>2354.3942507724</ele>
        <time>2020-02-18T09:26:32.670Z</time>
      </trkpt>
      <trkpt lat="44.72074" lon="6.92579">
        <ele>2356.41800064</ele>
        <time>2020-02-18T09:26:44.670Z</time>
      </trkpt>
      <trkpt lat="44.72073" lon="6.92592">
        <ele>2358.8323354364</ele>
        <time>2020-02-18T09:26:59.670Z</time>
      </trkpt>
      <trkpt lat="44.72067" lon="6.92602">
        <ele>2361.2091105319</ele>
        <time>2020-02-18T09:27:26.670Z</time>
      </trkpt>
      <trkpt lat="44.72065" lon="6.92615">
        <ele>2362</ele>
        <time>2020-02-18T09:27:38.670Z</time>
      </trkpt>
      <trkpt lat="44.72066" lon="6.92628">
        <ele>2362.9161677182</ele>
        <time>2020-02-18T09:27:49.670Z</time>
      </trkpt>
      <trkpt lat="44.72063" lon="6.92641">
        <ele>2364.11800064</ele>
        <time>2020-02-18T09:28:01.670Z</time>
      </trkpt>
      <trkpt lat="44.72061" lon="6.92654">
        <ele>2365.31800064</ele>
        <time>2020-02-18T09:28:13.670Z</time>
      </trkpt>
      <trkpt lat="44.72058" lon="6.92666">
        <ele>2366.8343320819</ele>
        <time>2020-02-18T09:28:24.670Z</time>
      </trkpt>
      <trkpt lat="44.72057" lon="6.92679">
        <ele>2369.8356725199</ele>
        <time>2020-02-18T09:28:39.670Z</time>
      </trkpt>
      <trkpt lat="44.72058" lon="6.92692">
        <ele>2371.01800064</ele>
        <time>2020-02-18T09:28:50.670Z</time>
      </trkpt>
      <trkpt lat="44.72058" lon="6.92706">
        <ele>2372.11800064</ele>
        <time>2020-02-18T09:29:01.670Z</time>
      </trkpt>
      <trkpt lat="44.72057" lon="6.92718">
        <ele>2374.03600128</ele>
        <time>2020-02-18T09:29:15.670Z</time>
      </trkpt>
      <trkpt lat="44.72059" lon="6.92731">
        <ele>2375</ele>
        <time>2020-02-18T09:29:26.670Z</time>
      </trkpt>
      <trkpt lat="44.72059" lon="6.92744">
        <ele>2377.01800064</ele>
        <time>2020-02-18T09:29:40.670Z</time>
      </trkpt>
      <trkpt lat="44.7206" lon="6.92756">
        <ele>2378.41800064</ele>
        <time>2020-02-18T09:29:54.670Z</time>
      </trkpt>
      <trkpt lat="44.72061" lon="6.92769">
        <ele>2379.51800064</ele>
        <time>2020-02-18T09:30:05.670Z</time>
      </trkpt>
      <trkpt lat="44.72057" lon="6.92782">
        <ele>2380.81800064</ele>
        <time>2020-02-18T09:30:18.670Z</time>
      </trkpt>
      <trkpt lat="44.7206" lon="6.92794">
        <ele>2381.8878143828</ele>
        <time>2020-02-18T09:30:29.670Z</time>
      </trkpt>
      <trkpt lat="44.72059" lon="6.92807">
        <ele>2383.1995909763</ele>
        <time>2020-02-18T09:30:42.670Z</time>
      </trkpt>
      <trkpt lat="44.72061" lon="6.92821">
        <ele>2384</ele>
        <time>2020-02-18T09:30:55.670Z</time>
      </trkpt>
      <trkpt lat="44.72064" lon="6.92834">
        <ele>2386.4529073846</ele>
        <time>2020-02-18T09:31:08.670Z</time>
      </trkpt>
      <trkpt lat="44.72066" lon="6.92847">
        <ele>2388.3991819526</ele>
        <time>2020-02-18T09:31:22.670Z</time>
      </trkpt>
      <trkpt lat="44.72066" lon="6.9286">
        <ele>2390</ele>
        <time>2020-02-18T09:31:36.670Z</time>
      </trkpt>
      <trkpt lat="44.7207" lon="6.92872">
        <ele>2391.63600128</ele>
        <time>2020-02-18T09:31:48.670Z</time>
      </trkpt>
      <trkpt lat="44.72073" lon="6.92884">
        <ele>2393.1995909763</ele>
        <time>2020-02-18T09:32:02.670Z</time>
      </trkpt>
      <trkpt lat="44.72071" lon="6.92898">
        <ele>2395.4331340946</ele>
        <time>2020-02-18T09:32:37.670Z</time>
      </trkpt>
      <trkpt lat="44.72071" lon="6.92912">
        <ele>2398</ele>
        <time>2020-02-18T09:32:51.670Z</time>
      </trkpt>
      <trkpt lat="44.7207" lon="6.92925">
        <ele>2398.1671833782</ele>
        <time>2020-02-18T09:33:02.670Z</time>
      </trkpt>
      <trkpt lat="44.72072" lon="6.92938">
        <ele>2399.3958992752</ele>
        <time>2020-02-18T09:33:12.670Z</time>
      </trkpt>
      <trkpt lat="44.72073" lon="6.92951">
        <ele>2401.41800064</ele>
        <time>2020-02-18T09:33:24.670Z</time>
      </trkpt>
      <trkpt lat="44.72074" lon="6.92964">
        <ele>2402.7903385383</ele>
        <time>2020-02-18T09:33:38.670Z</time>
      </trkpt>
      <trkpt lat="44.72074" lon="6.92977">
        <ele>2404.21800064</ele>
        <time>2020-02-18T09:33:52.670Z</time>
      </trkpt>
      <trkpt lat="44.72078" lon="6.92988">
        <ele>2405.3108509683</ele>
        <time>2020-02-18T09:34:03.670Z</time>
      </trkpt>
      <trkpt lat="44.72084" lon="6.92999">
        <ele>2406.3983662028</ele>
        <time>2020-02-18T09:34:12.670Z</time>
      </trkpt>
      <trkpt lat="44.72086" lon="6.93011">
        <ele>2409.2505018039</ele>
        <time>2020-02-18T09:34:24.670Z</time>
      </trkpt>
      <trkpt lat="44.72088" lon="6.93024">
        <ele>2411.61800064</ele>
        <time>2020-02-18T09:34:36.670Z</time>
      </trkpt>
      <trkpt lat="44.72088" lon="6.93037">
        <ele>2412.01800064</ele>
        <time>2020-02-18T09:34:50.670Z</time>
      </trkpt>
      <trkpt lat="44.72088" lon="6.93051">
        <ele>2413.3173657055</ele>
        <time>2020-02-18T09:35:03.670Z</time>
      </trkpt>
      <trkpt lat="44.72085" lon="6.93064">
        <ele>2414.5170343997</ele>
        <time>2020-02-18T09:35:15.670Z</time>
      </trkpt>
      <trkpt lat="44.72085" lon="6.93077">
        <ele>2416.6327347655</ele>
        <time>2020-02-18T09:35:28.670Z</time>
      </trkpt>
      <trkpt lat="44.72085" lon="6.9309">
        <ele>2418.4175831904</ele>
        <time>2020-02-18T09:35:44.670Z</time>
      </trkpt>
      <trkpt lat="44.72083" lon="6.93103">
        <ele>2419.8178185168</ele>
        <time>2020-02-18T09:35:58.670Z</time>
      </trkpt>
      <trkpt lat="44.72086" lon="6.93116">
        <ele>2423.11800064</ele>
        <time>2020-02-18T09:36:11.670Z</time>
      </trkpt>
      <trkpt lat="44.72085" lon="6.93129">
        <ele>2424.3173657055</ele>
        <time>2020-02-18T09:36:23.670Z</time>
      </trkpt>
      <trkpt lat="44.72083" lon="6.93143">
        <ele>2425.4034921313</ele>
        <time>2020-02-18T09:36:34.670Z</time>
      </trkpt>
      <trkpt lat="44.72082" lon="6.93156">
        <ele>2426</ele>
        <time>2020-02-18T09:36:42.670Z</time>
      </trkpt>
      <trkpt lat="44.72081" lon="6.93169">
        <ele>2426.2954552066</ele>
        <time>2020-02-18T09:36:53.670Z</time>
      </trkpt>
      <trkpt lat="44.72079" lon="6.93181">
        <ele>2427</ele>
        <time>2020-02-18T09:37:04.670Z</time>
      </trkpt>
      <trkpt lat="44.72078" lon="6.93195">
        <ele>2428.23600128</ele>
        <time>2020-02-18T09:37:16.670Z</time>
      </trkpt>
      <trkpt lat="44.7208" lon="6.93208">
        <ele>2430.8323354364</ele>
        <time>2020-02-18T09:37:29.670Z</time>
      </trkpt>
      <trkpt lat="44.72078" lon="6.93221">
        <ele>2431</ele>
        <time>2020-02-18T09:37:38.670Z</time>
      </trkpt>
      <trkpt lat="44.72075" lon="6.93234">
        <ele>2431</ele>
        <time>2020-02-18T09:37:48.670Z</time>
      </trkpt>
      <trkpt lat="44.72073" lon="6.93247">
        <ele>2434.67200256</ele>
        <time>2020-02-18T09:37:59.670Z</time>
      </trkpt>
      <trkpt lat="44.72071" lon="6.93259">
        <ele>2435</ele>
        <time>2020-02-18T09:38:09.670Z</time>
      </trkpt>
      <trkpt lat="44.72069" lon="6.93272">
        <ele>2437</ele>
        <time>2020-02-18T09:38:20.670Z</time>
      </trkpt>
      <trkpt lat="44.72069" lon="6.93285">
        <ele>2437.11800064</ele>
        <time>2020-02-18T09:38:31.670Z</time>
      </trkpt>
      <trkpt lat="44.72069" lon="6.93299">
        <ele>2438.41800064</ele>
        <time>2020-02-18T09:38:44.670Z</time>
      </trkpt>
      <trkpt lat="44.72071" lon="6.93312">
        <ele>2439.5174833223</ele>
        <time>2020-02-18T09:38:55.670Z</time>
      </trkpt>
      <trkpt lat="44.72069" lon="6.93325">
        <ele>2440.6176183807</ele>
        <time>2020-02-18T09:39:06.670Z</time>
      </trkpt>
      <trkpt lat="44.72066" lon="6.93339">
        <ele>2441.71800064</ele>
        <time>2020-02-18T09:39:17.670Z</time>
      </trkpt>
      <trkpt lat="44.72062" lon="6.93351">
        <ele>2443.63600128</ele>
        <time>2020-02-18T09:39:33.670Z</time>
      </trkpt>
      <trkpt lat="44.72062" lon="6.93364">
        <ele>2446.63600128</ele>
        <time>2020-02-18T09:39:48.670Z</time>
      </trkpt>
      <trkpt lat="44.7206" lon="6.93376">
        <ele>2448.0869565794</ele>
        <time>2020-02-18T09:40:01.670Z</time>
      </trkpt>
      <trkpt lat="44.72054" lon="6.93387">
        <ele>2449</ele>
        <time>2020-02-18T09:40:15.670Z</time>
      </trkpt>
      <trkpt lat="44.72055" lon="6.934">
        <ele>2450.83600128</ele>
        <time>2020-02-18T09:40:29.670Z</time>
      </trkpt>
      <trkpt lat="44.72056" lon="6.93413">
        <ele>2452</ele>
        <time>2020-02-18T09:40:40.670Z</time>
      </trkpt>
      <trkpt lat="44.72059" lon="6.93426">
        <ele>2452.4168339346</ele>
        <time>2020-02-18T09:40:54.670Z</time>
      </trkpt>
      <trkpt lat="44.7206" lon="6.93439">
        <ele>2453</ele>
        <time>2020-02-18T09:41:04.670Z</time>
      </trkpt>
      <trkpt lat="44.72057" lon="6.93451">
        <ele>2453</ele>
        <time>2020-02-18T09:41:15.670Z</time>
      </trkpt>
      <trkpt lat="44.72055" lon="6.93464">
        <ele>2453</ele>
        <time>2020-02-18T09:41:26.670Z</time>
      </trkpt>
      <trkpt lat="44.72051" lon="6.93475">
        <ele>2454.2335334237</ele>
        <time>2020-02-18T09:41:36.670Z</time>
      </trkpt>
      <trkpt lat="44.72048" lon="6.93489">
        <ele>2455</ele>
        <time>2020-02-18T09:41:49.670Z</time>
      </trkpt>
      <trkpt lat="44.72042" lon="6.93498">
        <ele>2453.56399872</ele>
        <time>2020-02-18T09:41:57.670Z</time>
      </trkpt>
      <trkpt lat="44.72035" lon="6.93507">
        <ele>2454.6327347655</ele>
        <time>2020-02-18T09:42:08.670Z</time>
      </trkpt>
      <trkpt lat="44.72028" lon="6.93515">
        <ele>2455.9178362599</ele>
        <time>2020-02-18T09:42:19.670Z</time>
      </trkpt>
      <trkpt lat="44.72019" lon="6.9352">
        <ele>2456.91800064</ele>
        <time>2020-02-18T09:42:29.670Z</time>
      </trkpt>
      <trkpt lat="44.72012" lon="6.93528">
        <ele>2459</ele>
        <time>2020-02-18T09:42:46.670Z</time>
      </trkpt>
      <trkpt lat="44.7202" lon="6.93523">
        <ele>2460.8878143828</ele>
        <time>2020-02-18T09:43:09.670Z</time>
      </trkpt>
      <trkpt lat="44.72029" lon="6.93523">
        <ele>2460.0848855221</ele>
        <time>2020-02-18T09:43:19.670Z</time>
      </trkpt>
      <trkpt lat="44.7202" lon="6.93536">
        <ele>2460</ele>
        <time>2020-02-18T09:43:47.670Z</time>
      </trkpt>
      <trkpt lat="44.72013" lon="6.93527">
        <ele>2460.61800064</ele>
        <time>2020-02-18T09:45:46.670Z</time>
      </trkpt>
      <trkpt lat="44.72022" lon="6.93522">
        <ele>2461</ele>
        <time>2020-02-18T09:46:11.670Z</time>
      </trkpt>
      <trkpt lat="44.72027" lon="6.93532">
        <ele>2461</ele>
        <time>2020-02-18T09:47:22.670Z</time>
      </trkpt>
      <trkpt lat="44.72018" lon="6.9353">
        <ele>2461</ele>
        <time>2020-02-18T09:48:44.670Z</time>
      </trkpt>
      <trkpt lat="44.7201" lon="6.93537">
        <ele>2460</ele>
        <time>2020-02-18T09:49:12.670Z</time>
      </trkpt>
      <trkpt lat="44.72016" lon="6.93528">
        <ele>2460</ele>
        <time>2020-02-18T09:49:16.670Z</time>
      </trkpt>
      <trkpt lat="44.72027" lon="6.93525">
        <ele>2460</ele>
        <time>2020-02-18T09:49:30.670Z</time>
      </trkpt>
      <trkpt lat="44.72019" lon="6.93516">
        <ele>2460</ele>
        <time>2020-02-18T09:49:38.670Z</time>
      </trkpt>
      <trkpt lat="44.72017" lon="6.93529">
        <ele>2459.8086857303</ele>
        <time>2020-02-18T09:50:22.670Z</time>
      </trkpt>
      <trkpt lat="44.72026" lon="6.93527">
        <ele>2459</ele>
        <time>2020-02-18T09:50:31.670Z</time>
      </trkpt>
      <trkpt lat="44.72023" lon="6.93514">
        <ele>2455.4824816873</ele>
        <time>2020-02-18T09:51:15.670Z</time>
      </trkpt>
      <trkpt lat="44.72014" lon="6.93514">
        <ele>2455</ele>
        <time>2020-02-18T09:51:22.670Z</time>
      </trkpt>
      <trkpt lat="44.72017" lon="6.93527">
        <ele>2455.18199936</ele>
        <time>2020-02-18T09:51:58.670Z</time>
      </trkpt>
      <trkpt lat="44.72025" lon="6.93533">
        <ele>2461.1140102449</ele>
        <time>2020-02-18T09:53:31.670Z</time>
      </trkpt>
      <trkpt lat="44.72025" lon="6.93546">
        <ele>2462.1839198604</ele>
        <time>2020-02-18T09:53:42.670Z</time>
      </trkpt>
      <trkpt lat="44.72029" lon="6.93558">
        <ele>2463.1938145609</ele>
        <time>2020-02-18T09:53:52.670Z</time>
      </trkpt>
      <trkpt lat="44.72028" lon="6.93571">
        <ele>2464.8343320819</ele>
        <time>2020-02-18T09:54:04.670Z</time>
      </trkpt>
      <trkpt lat="44.72028" lon="6.93585">
        <ele>2466.8176357949</ele>
        <time>2020-02-18T09:54:18.670Z</time>
      </trkpt>
      <trkpt lat="44.72026" lon="6.93598">
        <ele>2469.25400192</ele>
        <time>2020-02-18T09:54:34.670Z</time>
      </trkpt>
      <trkpt lat="44.72024" lon="6.9361">
        <ele>2471.9152545834</ele>
        <time>2020-02-18T09:54:49.670Z</time>
      </trkpt>
      <trkpt lat="44.72018" lon="6.9362">
        <ele>2475</ele>
        <time>2020-02-18T09:55:07.670Z</time>
      </trkpt>
      <trkpt lat="44.72015" lon="6.93633">
        <ele>2475.0179826631</ele>
        <time>2020-02-18T09:55:20.670Z</time>
      </trkpt>
      <trkpt lat="44.72015" lon="6.93645">
        <ele>2476.3173181766</ele>
        <time>2020-02-18T09:55:33.670Z</time>
      </trkpt>
      <trkpt lat="44.72009" lon="6.93655">
        <ele>2477</ele>
        <time>2020-02-18T09:55:44.670Z</time>
      </trkpt>
      <trkpt lat="44.72002" lon="6.93664">
        <ele>2477.7086783471</ele>
        <time>2020-02-18T09:55:57.670Z</time>
      </trkpt>
      <trkpt lat="44.71993" lon="6.93669">
        <ele>2480.11800064</ele>
        <time>2020-02-18T09:56:11.670Z</time>
      </trkpt>
      <trkpt lat="44.71984" lon="6.93673">
        <ele>2482.85400192</ele>
        <time>2020-02-18T09:56:26.670Z</time>
      </trkpt>
      <trkpt lat="44.71992" lon="6.93679">
        <ele>2481.65400192</ele>
        <time>2020-02-18T09:57:02.670Z</time>
      </trkpt>
      <trkpt lat="44.71985" lon="6.93687">
        <ele>2484.1178827949</ele>
        <time>2020-02-18T09:57:51.670Z</time>
      </trkpt>
      <trkpt lat="44.71974" lon="6.93697">
        <ele>2485</ele>
        <time>2020-02-18T09:58:06.670Z</time>
      </trkpt>
      <trkpt lat="44.71965" lon="6.937">
        <ele>2485.83600128</ele>
        <time>2020-02-18T09:58:14.670Z</time>
      </trkpt>
      <trkpt lat="44.71959" lon="6.9371">
        <ele>2488.83600128</ele>
        <time>2020-02-18T09:58:29.670Z</time>
      </trkpt>
      <trkpt lat="44.71967" lon="6.93715">
        <ele>2491.604555266</ele>
        <time>2020-02-18T09:59:06.670Z</time>
      </trkpt>
      <trkpt lat="44.71965" lon="6.93728">
        <ele>2493</ele>
        <time>2020-02-18T09:59:23.670Z</time>
      </trkpt>
      <trkpt lat="44.71961" lon="6.9374">
        <ele>2495.15400192</ele>
        <time>2020-02-18T09:59:37.670Z</time>
      </trkpt>
      <trkpt lat="44.71958" lon="6.93753">
        <ele>2497.41800064</ele>
        <time>2020-02-18T09:59:54.670Z</time>
      </trkpt>
      <trkpt lat="44.71967" lon="6.93756">
        <ele>2499.9178362599</ele>
        <time>2020-02-18T10:00:19.670Z</time>
      </trkpt>
      <trkpt lat="44.71964" lon="6.93769">
        <ele>2502.61800064</ele>
        <time>2020-02-18T10:00:56.670Z</time>
      </trkpt>
      <trkpt lat="44.71956" lon="6.93775">
        <ele>2505</ele>
        <time>2020-02-18T10:01:10.670Z</time>
      </trkpt>
      <trkpt lat="44.71947" lon="6.93779">
        <ele>2508.1162325395</ele>
        <time>2020-02-18T10:01:31.670Z</time>
      </trkpt>
      <trkpt lat="44.71952" lon="6.9379">
        <ele>2509.61800064</ele>
        <time>2020-02-18T10:01:46.670Z</time>
      </trkpt>
      <trkpt lat="44.71956" lon="6.93801">
        <ele>2512.75400192</ele>
        <time>2020-02-18T10:01:59.670Z</time>
      </trkpt>
      <trkpt lat="44.71952" lon="6.93813">
        <ele>2514</ele>
        <time>2020-02-18T10:02:15.670Z</time>
      </trkpt>
      <trkpt lat="44.71943" lon="6.93815">
        <ele>2515.83600128</ele>
        <time>2020-02-18T10:02:29.670Z</time>
      </trkpt>
      <trkpt lat="44.71934" lon="6.93817">
        <ele>2519</ele>
        <time>2020-02-18T10:02:40.670Z</time>
      </trkpt>
      <trkpt lat="44.71938" lon="6.93828">
        <ele>2520.0340359451</ele>
        <time>2020-02-18T10:03:00.670Z</time>
      </trkpt>
      <trkpt lat="44.71942" lon="6.9384">
        <ele>2523.03600128</ele>
        <time>2020-02-18T10:03:15.670Z</time>
      </trkpt>
      <trkpt lat="44.71947" lon="6.93851">
        <ele>2523</ele>
        <time>2020-02-18T10:03:36.670Z</time>
      </trkpt>
      <trkpt lat="44.71937" lon="6.9385">
        <ele>2527.114120471</ele>
        <time>2020-02-18T10:05:11.670Z</time>
      </trkpt>
      <trkpt lat="44.71928" lon="6.93845">
        <ele>2529.23600128</ele>
        <time>2020-02-18T10:06:21.670Z</time>
      </trkpt>
      <trkpt lat="44.71931" lon="6.93857">
        <ele>2531.51800064</ele>
        <time>2020-02-18T10:06:35.670Z</time>
      </trkpt>
      <trkpt lat="44.71937" lon="6.93867">
        <ele>2533.03600128</ele>
        <time>2020-02-18T10:06:45.670Z</time>
      </trkpt>
      <trkpt lat="44.7193" lon="6.93878">
        <ele>2534.91800064</ele>
        <time>2020-02-18T10:06:59.670Z</time>
      </trkpt>
      <trkpt lat="44.71921" lon="6.93883">
        <ele>2536.23600128</ele>
        <time>2020-02-18T10:07:11.670Z</time>
      </trkpt>
      <trkpt lat="44.71914" lon="6.93892">
        <ele>2538</ele>
        <time>2020-02-18T10:07:23.670Z</time>
      </trkpt>
      <trkpt lat="44.71909" lon="6.93903">
        <ele>2539.6343674356</ele>
        <time>2020-02-18T10:07:38.670Z</time>
      </trkpt>
      <trkpt lat="44.71906" lon="6.93915">
        <ele>2543</ele>
        <time>2020-02-18T10:07:51.670Z</time>
      </trkpt>
      <trkpt lat="44.719" lon="6.93925">
        <ele>2543.6347314109</ele>
        <time>2020-02-18T10:08:03.670Z</time>
      </trkpt>
      <trkpt lat="44.71892" lon="6.93932">
        <ele>2546.2278004633</ele>
        <time>2020-02-18T10:08:21.670Z</time>
      </trkpt>
      <trkpt lat="44.71883" lon="6.93936">
        <ele>2548.5000006639</ele>
        <time>2020-02-18T10:08:35.670Z</time>
      </trkpt>
      <trkpt lat="44.71875" lon="6.93943">
        <ele>2550.1877592535</ele>
        <time>2020-02-18T10:08:52.670Z</time>
      </trkpt>
      <trkpt lat="44.71867" lon="6.9395">
        <ele>2551.4174182447</ele>
        <time>2020-02-18T10:09:04.670Z</time>
      </trkpt>
      <trkpt lat="44.71875" lon="6.93958">
        <ele>2553.05400192</ele>
        <time>2020-02-18T10:09:20.670Z</time>
      </trkpt>
      <trkpt lat="44.71875" lon="6.93971">
        <ele>2556.71800064</ele>
        <time>2020-02-18T10:09:37.670Z</time>
      </trkpt>
      <trkpt lat="44.71866" lon="6.93975">
        <ele>2557.35400192</ele>
        <time>2020-02-18T10:09:51.670Z</time>
      </trkpt>
      <trkpt lat="44.71857" lon="6.93977">
        <ele>2560.91800064</ele>
        <time>2020-02-18T10:10:09.670Z</time>
      </trkpt>
      <trkpt lat="44.71863" lon="6.93986">
        <ele>2564.03600128</ele>
        <time>2020-02-18T10:11:05.670Z</time>
      </trkpt>
      <trkpt lat="44.71855" lon="6.93993">
        <ele>2568.0310077519</ele>
        <time>2020-02-18T10:11:30.670Z</time>
      </trkpt>
      <trkpt lat="44.71846" lon="6.93995">
        <ele>2569.9689922481</ele>
        <time>2020-02-18T10:11:40.670Z</time>
      </trkpt>
      <trkpt lat="44.71836" lon="6.93997">
        <ele>2571</ele>
        <time>2020-02-18T10:11:53.670Z</time>
      </trkpt>
      <trkpt lat="44.71828" lon="6.94003">
        <ele>2573.83600128</ele>
        <time>2020-02-18T10:12:14.670Z</time>
      </trkpt>
      <trkpt lat="44.71825" lon="6.94015">
        <ele>2577.81800064</ele>
        <time>2020-02-18T10:12:48.670Z</time>
      </trkpt>
      <trkpt lat="44.71833" lon="6.94023">
        <ele>2578.3755185069</ele>
        <time>2020-02-18T10:13:02.670Z</time>
      </trkpt>
      <trkpt lat="44.71828" lon="6.94033">
        <ele>2584.31800064</ele>
        <time>2020-02-18T10:13:43.670Z</time>
      </trkpt>
      <trkpt lat="44.71819" lon="6.94035">
        <ele>2586.83600128</ele>
        <time>2020-02-18T10:14:04.670Z</time>
      </trkpt>
      <trkpt lat="44.71827" lon="6.9404">
        <ele>2589.3513541217</ele>
        <time>2020-02-18T10:14:31.670Z</time>
      </trkpt>
      <trkpt lat="44.71826" lon="6.94053">
        <ele>2594.63600128</ele>
        <time>2020-02-18T10:15:08.670Z</time>
      </trkpt>
      <trkpt lat="44.71818" lon="6.94058">
        <ele>2597.0170179725</ele>
        <time>2020-02-18T10:15:30.670Z</time>
      </trkpt>
      <trkpt lat="44.71824" lon="6.94069">
        <ele>2599.83600128</ele>
        <time>2020-02-18T10:15:49.670Z</time>
      </trkpt>
      <trkpt lat="44.71833" lon="6.94076">
        <ele>2601.41800064</ele>
        <time>2020-02-18T10:16:04.670Z</time>
      </trkpt>
      <trkpt lat="44.71824" lon="6.94081">
        <ele>2606.8178185168</ele>
        <time>2020-02-18T10:16:38.670Z</time>
      </trkpt>
      <trkpt lat="44.71815" lon="6.94085">
        <ele>2608.23600128</ele>
        <time>2020-02-18T10:16:51.670Z</time>
      </trkpt>
      <trkpt lat="44.71814" lon="6.94098">
        <ele>2613.31800064</ele>
        <time>2020-02-18T10:17:43.670Z</time>
      </trkpt>
      <trkpt lat="44.71805" lon="6.94103">
        <ele>2617.23600128</ele>
        <time>2020-02-18T10:18:11.670Z</time>
      </trkpt>
      <trkpt lat="44.71796" lon="6.94107">
        <ele>2620.03600128</ele>
        <time>2020-02-18T10:18:25.670Z</time>
      </trkpt>
      <trkpt lat="44.71787" lon="6.94111">
        <ele>2622.63600128</ele>
        <time>2020-02-18T10:18:43.670Z</time>
      </trkpt>
      <trkpt lat="44.71791" lon="6.94123">
        <ele>2627.7535087798</ele>
        <time>2020-02-18T10:19:19.670Z</time>
      </trkpt>
      <trkpt lat="44.71798" lon="6.94132">
        <ele>2630.4345671719</ele>
        <time>2020-02-18T10:19:37.670Z</time>
      </trkpt>
      <trkpt lat="44.7179" lon="6.94139">
        <ele>2633.51800064</ele>
        <time>2020-02-18T10:20:05.670Z</time>
      </trkpt>
      <trkpt lat="44.71781" lon="6.94144">
        <ele>2634.2357655898</ele>
        <time>2020-02-18T10:20:21.670Z</time>
      </trkpt>
      <trkpt lat="44.71782" lon="6.94157">
        <ele>2638.3423614129</ele>
        <time>2020-02-18T10:21:01.670Z</time>
      </trkpt>
      <trkpt lat="44.71786" lon="6.94169">
        <ele>2642.91800064</ele>
        <time>2020-02-18T10:21:29.670Z</time>
      </trkpt>
      <trkpt lat="44.71777" lon="6.94174">
        <ele>2645</ele>
        <time>2020-02-18T10:21:46.670Z</time>
      </trkpt>
      <trkpt lat="44.71769" lon="6.9418">
        <ele>2648</ele>
        <time>2020-02-18T10:22:06.670Z</time>
      </trkpt>
      <trkpt lat="44.71761" lon="6.94185">
        <ele>2649.35400192</ele>
        <time>2020-02-18T10:22:21.670Z</time>
      </trkpt>
      <trkpt lat="44.71764" lon="6.94197">
        <ele>2655.51800064</ele>
        <time>2020-02-18T10:23:05.670Z</time>
      </trkpt>
      <trkpt lat="44.71771" lon="6.94206">
        <ele>2656.03600128</ele>
        <time>2020-02-18T10:23:20.670Z</time>
      </trkpt>
      <trkpt lat="44.71765" lon="6.94216">
        <ele>2661.6943909048</ele>
        <time>2020-02-18T10:24:17.670Z</time>
      </trkpt>
      <trkpt lat="44.71757" lon="6.94221">
        <ele>2666.03600128</ele>
        <time>2020-02-18T10:24:40.670Z</time>
      </trkpt>
      <trkpt lat="44.71763" lon="6.9423">
        <ele>2671.161843914</ele>
        <time>2020-02-18T10:25:22.670Z</time>
      </trkpt>
      <trkpt lat="44.71771" lon="6.94234">
        <ele>2674.98199936</ele>
        <time>2020-02-18T10:25:50.670Z</time>
      </trkpt>
      <trkpt lat="44.71767" lon="6.94245">
        <ele>2678.43600128</ele>
        <time>2020-02-18T10:26:32.670Z</time>
      </trkpt>
      <trkpt lat="44.71759" lon="6.9425">
        <ele>2681.23600128</ele>
        <time>2020-02-18T10:26:46.670Z</time>
      </trkpt>
      <trkpt lat="44.71751" lon="6.94258">
        <ele>2683.51800064</ele>
        <time>2020-02-18T10:27:05.670Z</time>
      </trkpt>
      <trkpt lat="44.71744" lon="6.94267">
        <ele>2685.83600128</ele>
        <time>2020-02-18T10:27:19.670Z</time>
      </trkpt>
      <trkpt lat="44.71752" lon="6.94275">
        <ele>2687.6161519869</ele>
        <time>2020-02-18T10:27:56.670Z</time>
      </trkpt>
      <trkpt lat="44.71761" lon="6.94279">
        <ele>2692.7165670473</ele>
        <time>2020-02-18T10:28:17.670Z</time>
      </trkpt>
      <trkpt lat="44.71771" lon="6.94283">
        <ele>2693.0179646991</ele>
        <time>2020-02-18T10:28:30.670Z</time>
      </trkpt>
      <trkpt lat="44.71758" lon="6.94281">
        <ele>2693.6167667118</ele>
        <time>2020-02-18T10:28:36.670Z</time>
      </trkpt>
      <trkpt lat="44.71747" lon="6.94278">
        <ele>2693.7165670473</ele>
        <time>2020-02-18T10:28:37.670Z</time>
      </trkpt>
      <trkpt lat="44.71756" lon="6.94281">
        <ele>2693.8163673828</ele>
        <time>2020-02-18T10:28:38.670Z</time>
      </trkpt>
      <trkpt lat="44.71748" lon="6.94277">
        <ele>2694.0160320744</ele>
        <time>2020-02-18T10:28:40.670Z</time>
      </trkpt>
      <trkpt lat="44.71741" lon="6.94285">
        <ele>2696.11800064</ele>
        <time>2020-02-18T10:29:01.670Z</time>
      </trkpt>
      <trkpt lat="44.71735" lon="6.94295">
        <ele>2699.11800064</ele>
        <time>2020-02-18T10:29:21.670Z</time>
      </trkpt>
      <trkpt lat="44.71733" lon="6.94308">
        <ele>2701</ele>
        <time>2020-02-18T10:29:49.670Z</time>
      </trkpt>
      <trkpt lat="44.71742" lon="6.94312">
        <ele>2702.23600128</ele>
        <time>2020-02-18T10:30:11.670Z</time>
      </trkpt>
      <trkpt lat="44.71752" lon="6.94315">
        <ele>2704.83600128</ele>
        <time>2020-02-18T10:30:24.670Z</time>
      </trkpt>
      <trkpt lat="44.7176" lon="6.94318">
        <ele>2706.5976791658</ele>
        <time>2020-02-18T10:30:36.670Z</time>
      </trkpt>
      <trkpt lat="44.71768" lon="6.94325">
        <ele>2708.01800064</ele>
        <time>2020-02-18T10:30:50.670Z</time>
      </trkpt>
      <trkpt lat="44.71763" lon="6.94336">
        <ele>2713.63600128</ele>
        <time>2020-02-18T10:31:48.670Z</time>
      </trkpt>
      <trkpt lat="44.71765" lon="6.94349">
        <ele>2717.1609448927</ele>
        <time>2020-02-18T10:32:22.670Z</time>
      </trkpt>
      <trkpt lat="44.71773" lon="6.94354">
        <ele>2720.0150454612</ele>
        <time>2020-02-18T10:32:40.670Z</time>
      </trkpt>
      <trkpt lat="44.71782" lon="6.94358">
        <ele>2721.11800064</ele>
        <time>2020-02-18T10:32:51.670Z</time>
      </trkpt>
      <trkpt lat="44.71781" lon="6.94371">
        <ele>2724.9177538753</ele>
        <time>2020-02-18T10:33:19.670Z</time>
      </trkpt>
      <trkpt lat="44.71773" lon="6.94378">
        <ele>2726.5511031991</ele>
        <time>2020-02-18T10:33:35.670Z</time>
      </trkpt>
      <trkpt lat="44.71767" lon="6.94369">
        <ele>2730</ele>
        <time>2020-02-18T10:34:52.670Z</time>
      </trkpt>
      <trkpt lat="44.71777" lon="6.9437">
        <ele>2729.58099968</ele>
        <time>2020-02-18T10:35:44.670Z</time>
      </trkpt>
      <trkpt lat="44.71769" lon="6.94365">
        <ele>2729</ele>
        <time>2020-02-18T10:36:03.670Z</time>
      </trkpt>
      <trkpt lat="44.71777" lon="6.9437">
        <ele>2732.91800064</ele>
        <time>2020-02-18T10:38:59.670Z</time>
      </trkpt>
      <trkpt lat="44.71775" lon="6.94382">
        <ele>2735.9520971164</ele>
        <time>2020-02-18T10:39:23.670Z</time>
      </trkpt>
      <trkpt lat="44.71767" lon="6.94387">
        <ele>2738</ele>
        <time>2020-02-18T10:39:34.670Z</time>
      </trkpt>
      <trkpt lat="44.71771" lon="6.94399">
        <ele>2741.1953583317</ele>
        <time>2020-02-18T10:40:06.670Z</time>
      </trkpt>
      <trkpt lat="44.7178" lon="6.94402">
        <ele>2743.0179646991</ele>
        <time>2020-02-18T10:40:20.670Z</time>
      </trkpt>
      <trkpt lat="44.71775" lon="6.94413">
        <ele>2745.2173485249</ele>
        <time>2020-02-18T10:40:42.670Z</time>
      </trkpt>
      <trkpt lat="44.71768" lon="6.94422">
        <ele>2747.434304011</ele>
        <time>2020-02-18T10:40:57.670Z</time>
      </trkpt>
      <trkpt lat="44.71759" lon="6.94428">
        <ele>2750.35400192</ele>
        <time>2020-02-18T10:41:21.670Z</time>
      </trkpt>
      <trkpt lat="44.71765" lon="6.94438">
        <ele>2755.9178362599</ele>
        <time>2020-02-18T10:42:09.670Z</time>
      </trkpt>
      <trkpt lat="44.71774" lon="6.94441">
        <ele>2756.63600128</ele>
        <time>2020-02-18T10:42:23.670Z</time>
      </trkpt>
      <trkpt lat="44.7177" lon="6.94453">
        <ele>2760</ele>
        <time>2020-02-18T10:43:02.670Z</time>
      </trkpt>
      <trkpt lat="44.7176" lon="6.94455">
        <ele>2762.0851912752</ele>
        <time>2020-02-18T10:43:17.670Z</time>
      </trkpt>
      <trkpt lat="44.71767" lon="6.94463">
        <ele>2768</ele>
        <time>2020-02-18T10:44:17.670Z</time>
      </trkpt>
      <trkpt lat="44.71776" lon="6.94469">
        <ele>2768.0160320744</ele>
        <time>2020-02-18T10:44:30.670Z</time>
      </trkpt>
      <trkpt lat="44.71775" lon="6.94482">
        <ele>2773.4175831904</ele>
        <time>2020-02-18T10:45:24.670Z</time>
      </trkpt>
      <trkpt lat="44.71766" lon="6.94484">
        <ele>2774</ele>
        <time>2020-02-18T10:45:38.670Z</time>
      </trkpt>
      <trkpt lat="44.7177" lon="6.94472">
        <ele>2775.9599210965</ele>
        <time>2020-02-18T10:45:55.700Z</time>
      </trkpt>
      <trkpt lat="44.71761" lon="6.94471">
        <ele>2777</ele>
        <time>2020-02-18T10:46:25.670Z</time>
      </trkpt>
      <trkpt lat="44.71757" lon="6.94459">
        <ele>2777</ele>
        <time>2020-02-18T10:46:43.640Z</time>
      </trkpt>
      <trkpt lat="44.71766" lon="6.94462">
        <ele>2777</ele>
        <time>2020-02-18T10:47:08.670Z</time>
      </trkpt>
      <trkpt lat="44.71772" lon="6.94472">
        <ele>2778.3173657055</ele>
        <time>2020-02-18T10:47:53.670Z</time>
      </trkpt>
      <trkpt lat="44.7178" lon="6.94478">
        <ele>2779.6172348648</ele>
        <time>2020-02-18T10:48:06.670Z</time>
      </trkpt>
      <trkpt lat="44.7177" lon="6.94481">
        <ele>2781.41800064</ele>
        <time>2020-02-18T10:48:24.670Z</time>
      </trkpt>
      <trkpt lat="44.71779" lon="6.94484">
        <ele>2785.5164511214</ele>
        <time>2020-02-18T10:49:15.670Z</time>
      </trkpt>
      <trkpt lat="44.7177" lon="6.94489">
        <ele>2789.2947268518</ele>
        <time>2020-02-18T10:49:43.670Z</time>
      </trkpt>
      <trkpt lat="44.71761" lon="6.9449">
        <ele>2790.41800064</ele>
        <time>2020-02-18T10:49:54.670Z</time>
      </trkpt>
      <trkpt lat="44.71765" lon="6.94502">
        <ele>2791</ele>
        <time>2020-02-18T10:50:24.670Z</time>
      </trkpt>
      <trkpt lat="44.71774" lon="6.94508">
        <ele>2792.2505018039</ele>
        <time>2020-02-18T10:50:34.670Z</time>
      </trkpt>
      <trkpt lat="44.71767" lon="6.94517">
        <ele>2795</ele>
        <time>2020-02-18T10:51:09.670Z</time>
      </trkpt>
      <trkpt lat="44.71775" lon="6.94523">
        <ele>2797.31800064</ele>
        <time>2020-02-18T10:51:43.670Z</time>
      </trkpt>
      <trkpt lat="44.71767" lon="6.94527">
        <ele>2801</ele>
        <time>2020-02-18T10:52:09.670Z</time>
      </trkpt>
      <trkpt lat="44.71757" lon="6.94527">
        <ele>2802.11800064</ele>
        <time>2020-02-18T10:52:21.670Z</time>
      </trkpt>
      <trkpt lat="44.71748" lon="6.94532">
        <ele>2809</ele>
        <time>2020-02-18T10:53:32.670Z</time>
      </trkpt>
      <trkpt lat="44.7174" lon="6.94526">
        <ele>2810.9161677182</ele>
        <time>2020-02-18T10:53:59.670Z</time>
      </trkpt>
      <trkpt lat="44.71732" lon="6.94535">
        <ele>2815.6347314109</ele>
        <time>2020-02-18T10:54:53.670Z</time>
      </trkpt>
      <trkpt lat="44.71723" lon="6.94532">
        <ele>2817.3166334696</ele>
        <time>2020-02-18T10:55:03.670Z</time>
      </trkpt>
      <trkpt lat="44.71731" lon="6.94542">
        <ele>2818</ele>
        <time>2020-02-18T10:55:17.670Z</time>
      </trkpt>
      <trkpt lat="44.71739" lon="6.94552">
        <ele>2818</ele>
        <time>2020-02-18T10:55:32.670Z</time>
      </trkpt>
      <trkpt lat="44.71748" lon="6.94551">
        <ele>2818.95400192</ele>
        <time>2020-02-18T10:55:43.670Z</time>
      </trkpt>
      <trkpt lat="44.71756" lon="6.94558">
        <ele>2821</ele>
        <time>2020-02-18T10:55:55.670Z</time>
      </trkpt>
      <trkpt lat="44.71747" lon="6.94562">
        <ele>2823</ele>
        <time>2020-02-18T10:56:11.670Z</time>
      </trkpt>
      <trkpt lat="44.71751" lon="6.94573">
        <ele>2825.6167667118</ele>
        <time>2020-02-18T10:56:46.670Z</time>
      </trkpt>
      <trkpt lat="44.7174" lon="6.94572">
        <ele>2828.61800064</ele>
        <time>2020-02-18T10:57:16.670Z</time>
      </trkpt>
      <trkpt lat="44.7173" lon="6.94568">
        <ele>2829</ele>
        <time>2020-02-18T10:57:24.670Z</time>
      </trkpt>
      <trkpt lat="44.71739" lon="6.94572">
        <ele>2831</ele>
        <time>2020-02-18T10:57:58.670Z</time>
      </trkpt>
      <trkpt lat="44.71743" lon="6.94583">
        <ele>2833</ele>
        <time>2020-02-18T10:58:17.670Z</time>
      </trkpt>
      <trkpt lat="44.71735" lon="6.94587">
        <ele>2838.5170343997</ele>
        <time>2020-02-18T10:58:55.670Z</time>
      </trkpt>
      <trkpt lat="44.71726" lon="6.94584">
        <ele>2840.9111563636</ele>
        <time>2020-02-18T10:59:11.670Z</time>
      </trkpt>
      <trkpt lat="44.71717" lon="6.94584">
        <ele>2842.45400192</ele>
        <time>2020-02-18T10:59:28.670Z</time>
      </trkpt>
      <trkpt lat="44.71725" lon="6.9459">
        <ele>2843.41800064</ele>
        <time>2020-02-18T10:59:54.670Z</time>
      </trkpt>
      <trkpt lat="44.7173" lon="6.94602">
        <ele>2845.02100096</ele>
        <time>2020-02-18T11:00:10.700Z</time>
      </trkpt>
      <trkpt lat="44.71734" lon="6.94615">
        <ele>2849.3176360288</ele>
        <time>2020-02-18T11:00:53.670Z</time>
      </trkpt>
      <trkpt lat="44.71742" lon="6.94622">
        <ele>2853</ele>
        <time>2020-02-18T11:01:20.670Z</time>
      </trkpt>
      <trkpt lat="44.71752" lon="6.94626">
        <ele>2853.63600128</ele>
        <time>2020-02-18T11:01:33.670Z</time>
      </trkpt>
      <trkpt lat="44.71754" lon="6.94639">
        <ele>2857</ele>
        <time>2020-02-18T11:02:19.670Z</time>
      </trkpt>
      <trkpt lat="44.71746" lon="6.94645">
        <ele>2859.3166334696</ele>
        <time>2020-02-18T11:02:53.670Z</time>
      </trkpt>
      <trkpt lat="44.71737" lon="6.94642">
        <ele>2861.32999936</ele>
        <time>2020-02-18T11:03:07.140Z</time>
      </trkpt>
      <trkpt lat="44.71727" lon="6.9464">
        <ele>2863.1627410109</ele>
        <time>2020-02-18T11:03:22.670Z</time>
      </trkpt>
      <trkpt lat="44.71718" lon="6.94641">
        <ele>2874</ele>
        <time>2020-02-18T11:05:40.670Z</time>
      </trkpt>
      <trkpt lat="44.71709" lon="6.94637">
        <ele>2872</ele>
        <time>2020-02-18T11:06:23.670Z</time>
      </trkpt>
      <trkpt lat="44.71703" lon="6.94625">
        <ele>2875</ele>
        <time>2020-02-18T11:07:39.670Z</time>
      </trkpt>
      <trkpt lat="44.71697" lon="6.94638">
        <ele>2876</ele>
        <time>2020-02-18T11:09:26.670Z</time>
      </trkpt>
      <trkpt lat="44.71689" lon="6.94644">
        <ele>2876</ele>
        <time>2020-02-18T11:09:53.670Z</time>
      </trkpt>
      <trkpt lat="44.71697" lon="6.94636">
        <ele>2876.72099968</ele>
        <time>2020-02-18T11:10:17.700Z</time>
      </trkpt>
      <trkpt lat="44.71692" lon="6.94647">
        <ele>2881</ele>
        <time>2020-02-18T11:12:27.670Z</time>
      </trkpt>
      <trkpt lat="44.71701" lon="6.94647">
        <ele>2883</ele>
        <time>2020-02-18T11:13:46.670Z</time>
      </trkpt>
      <trkpt lat="44.71708" lon="6.94656">
        <ele>2884</ele>
        <time>2020-02-18T11:14:14.670Z</time>
      </trkpt>
      <trkpt lat="44.71699" lon="6.94659">
        <ele>2887.7158528524</ele>
        <time>2020-02-18T11:15:47.670Z</time>
      </trkpt>
      <trkpt lat="44.71709" lon="6.94657">
        <ele>2890</ele>
        <time>2020-02-18T11:17:08.670Z</time>
      </trkpt>
      <trkpt lat="44.71709" lon="6.9467">
        <ele>2890.9478447977</ele>
        <time>2020-02-18T11:17:33.670Z</time>
      </trkpt>
      <trkpt lat="44.71707" lon="6.94683">
        <ele>2902.2164330045</ele>
        <time>2020-02-18T11:18:42.670Z</time>
      </trkpt>
      <trkpt lat="44.71703" lon="6.94694">
        <ele>2908</ele>
        <time>2020-02-18T11:19:29.670Z</time>
      </trkpt>
      <trkpt lat="44.71702" lon="6.94707">
        <ele>2917</ele>
        <time>2020-02-18T11:20:13.670Z</time>
      </trkpt>
      <trkpt lat="44.71703" lon="6.9472">
        <ele>2925.0174424806</ele>
        <time>2020-02-18T11:21:10.670Z</time>
      </trkpt>
      <trkpt lat="44.71705" lon="6.94732">
        <ele>2933.03600128</ele>
        <time>2020-02-18T11:22:10.670Z</time>
      </trkpt>
      <trkpt lat="44.71702" lon="6.94744">
        <ele>2938.431294662</ele>
        <time>2020-02-18T11:22:52.670Z</time>
      </trkpt>
      <trkpt lat="44.71705" lon="6.94756">
        <ele>2943</ele>
        <time>2020-02-18T11:23:29.670Z</time>
      </trkpt>
      <trkpt lat="44.71712" lon="6.94765">
        <ele>2947.8358371697</ele>
        <time>2020-02-18T11:23:59.670Z</time>
      </trkpt>
      <trkpt lat="44.7172" lon="6.94772">
        <ele>2949.8336678693</ele>
        <time>2020-02-18T11:24:14.670Z</time>
      </trkpt>
      <trkpt lat="44.71728" lon="6.94778">
        <ele>2952.2985533884</ele>
        <time>2020-02-18T11:24:33.700Z</time>
      </trkpt>
      <trkpt lat="44.71736" lon="6.94784">
        <ele>2954.4162492008</ele>
        <time>2020-02-18T11:25:04.670Z</time>
      </trkpt>
      <trkpt lat="44.71741" lon="6.94795">
        <ele>2959</ele>
        <time>2020-02-18T11:25:26.670Z</time>
      </trkpt>
      <trkpt lat="44.71749" lon="6.94801">
        <ele>2962</ele>
        <time>2020-02-18T11:25:51.670Z</time>
      </trkpt>
      <trkpt lat="44.71741" lon="6.94795">
        <ele>2967.08199936</ele>
        <time>2020-02-18T11:30:39.670Z</time>
      </trkpt>
      <trkpt lat="44.7175" lon="6.94798">
        <ele>2968</ele>
        <time>2020-02-18T11:32:21.670Z</time>
      </trkpt>
      <trkpt lat="44.71752" lon="6.94811">
        <ele>2977.68199936</ele>
        <time>2020-02-18T11:39:23.670Z</time>
      </trkpt>
      <trkpt lat="44.71745" lon="6.9482">
        <ele>2977.6569748837</ele>
        <time>2020-02-18T11:40:11.670Z</time>
      </trkpt>
      <trkpt lat="44.71744" lon="6.94833">
        <ele>2976.4099968</ele>
        <time>2020-02-18T11:40:31.670Z</time>
      </trkpt>
      <trkpt lat="44.71741" lon="6.94847">
        <ele>2972.9099968</ele>
        <time>2020-02-18T11:40:38.670Z</time>
      </trkpt>
      <trkpt lat="44.71744" lon="6.94862">
        <ele>2966.11398272</ele>
        <time>2020-02-18T11:40:42.670Z</time>
      </trkpt>
      <trkpt lat="44.71752" lon="6.94873">
        <ele>2958.01398272</ele>
        <time>2020-02-18T11:40:45.670Z</time>
      </trkpt>
      <trkpt lat="44.7176" lon="6.94882">
        <ele>2952.61398272</ele>
        <time>2020-02-18T11:40:47.670Z</time>
      </trkpt>
      <trkpt lat="44.71768" lon="6.94888">
        <ele>2947.21398272</ele>
        <time>2020-02-18T11:40:49.670Z</time>
      </trkpt>
      <trkpt lat="44.71776" lon="6.94895">
        <ele>2942.75798784</ele>
        <time>2020-02-18T11:40:51.670Z</time>
      </trkpt>
      <trkpt lat="44.71786" lon="6.94908">
        <ele>2937.05798784</ele>
        <time>2020-02-18T11:40:54.670Z</time>
      </trkpt>
      <trkpt lat="44.71794" lon="6.94921">
        <ele>2931.35798784</ele>
        <time>2020-02-18T11:40:57.670Z</time>
      </trkpt>
      <trkpt lat="44.71804" lon="6.94929">
        <ele>2925.89199616</ele>
        <time>2020-02-18T11:41:00.670Z</time>
      </trkpt>
      <trkpt lat="44.7181" lon="6.94939">
        <ele>2919.80199296</ele>
        <time>2020-02-18T11:41:10.670Z</time>
      </trkpt>
      <trkpt lat="44.71815" lon="6.94957">
        <ele>2916.50199296</ele>
        <time>2020-02-18T11:41:13.670Z</time>
      </trkpt>
      <trkpt lat="44.71813" lon="6.94972">
        <ele>2913.20199296</ele>
        <time>2020-02-18T11:41:16.670Z</time>
      </trkpt>
      <trkpt lat="44.71811" lon="6.94988">
        <ele>2909</ele>
        <time>2020-02-18T11:41:49.670Z</time>
      </trkpt>
      <trkpt lat="44.71808" lon="6.95">
        <ele>2905.81398272</ele>
        <time>2020-02-18T11:41:51.670Z</time>
      </trkpt>
      <trkpt lat="44.71805" lon="6.95016">
        <ele>2897.71398272</ele>
        <time>2020-02-18T11:41:54.670Z</time>
      </trkpt>
      <trkpt lat="44.71809" lon="6.95029">
        <ele>2889.61398272</ele>
        <time>2020-02-18T11:41:57.670Z</time>
      </trkpt>
      <trkpt lat="44.71813" lon="6.95041">
        <ele>2881.69398912</ele>
        <time>2020-02-18T11:42:00.670Z</time>
      </trkpt>
      <trkpt lat="44.71822" lon="6.9505">
        <ele>2876.59398912</ele>
        <time>2020-02-18T11:42:03.670Z</time>
      </trkpt>
      <trkpt lat="44.71831" lon="6.95052">
        <ele>2873.19398912</ele>
        <time>2020-02-18T11:42:05.670Z</time>
      </trkpt>
      <trkpt lat="44.71837" lon="6.95061">
        <ele>2868.09398912</ele>
        <time>2020-02-18T11:42:08.670Z</time>
      </trkpt>
      <trkpt lat="44.71837" lon="6.95075">
        <ele>2864.68199936</ele>
        <time>2020-02-18T11:42:13.670Z</time>
      </trkpt>
      <trkpt lat="44.7183" lon="6.95083">
        <ele>2864</ele>
        <time>2020-02-18T11:42:30.670Z</time>
      </trkpt>
      <trkpt lat="44.71841" lon="6.95086">
        <ele>2863</ele>
        <time>2020-02-18T11:42:57.670Z</time>
      </trkpt>
      <trkpt lat="44.71836" lon="6.95097">
        <ele>2854</ele>
        <time>2020-02-18T11:43:20.670Z</time>
      </trkpt>
      <trkpt lat="44.71829" lon="6.95108">
        <ele>2854</ele>
        <time>2020-02-18T11:43:23.670Z</time>
      </trkpt>
      <trkpt lat="44.71823" lon="6.9512">
        <ele>2854</ele>
        <time>2020-02-18T11:43:26.670Z</time>
      </trkpt>
      <trkpt lat="44.71822" lon="6.95136">
        <ele>2851.5123781818</ele>
        <time>2020-02-18T11:43:31.670Z</time>
      </trkpt>
      <trkpt lat="44.71824" lon="6.9515">
        <ele>2842.9214783471</ele>
        <time>2020-02-18T11:43:34.640Z</time>
      </trkpt>
      <trkpt lat="44.71828" lon="6.95162">
        <ele>2834.157006281</ele>
        <time>2020-02-18T11:43:37.670Z</time>
      </trkpt>
      <trkpt lat="44.71831" lon="6.95176">
        <ele>2825.76399872</ele>
        <time>2020-02-18T11:43:41.670Z</time>
      </trkpt>
      <trkpt lat="44.71837" lon="6.95188">
        <ele>2825</ele>
        <time>2020-02-18T11:44:28.670Z</time>
      </trkpt>
      <trkpt lat="44.71847" lon="6.95188">
        <ele>2823.47399552</ele>
        <time>2020-02-18T11:44:32.670Z</time>
      </trkpt>
      <trkpt lat="44.71849" lon="6.95202">
        <ele>2812.56599168</ele>
        <time>2020-02-18T11:44:44.670Z</time>
      </trkpt>
      <trkpt lat="44.71855" lon="6.95213">
        <ele>2804.83799424</ele>
        <time>2020-02-18T11:44:50.670Z</time>
      </trkpt>
      <trkpt lat="44.71859" lon="6.95227">
        <ele>2795.87399552</ele>
        <time>2020-02-18T11:45:00.670Z</time>
      </trkpt>
      <trkpt lat="44.7186" lon="6.9524">
        <ele>2790.27399552</ele>
        <time>2020-02-18T11:45:08.670Z</time>
      </trkpt>
      <trkpt lat="44.71854" lon="6.95253">
        <ele>2787.32799744</ele>
        <time>2020-02-18T11:45:14.670Z</time>
      </trkpt>
      <trkpt lat="44.71847" lon="6.95264">
        <ele>2786.12799744</ele>
        <time>2020-02-18T11:45:17.670Z</time>
      </trkpt>
      <trkpt lat="44.71841" lon="6.95274">
        <ele>2784.5284688203</ele>
        <time>2020-02-18T11:45:21.670Z</time>
      </trkpt>
      <trkpt lat="44.71839" lon="6.95288">
        <ele>2780.85599488</ele>
        <time>2020-02-18T11:45:40.670Z</time>
      </trkpt>
      <trkpt lat="44.71833" lon="6.95299">
        <ele>2778.45599488</ele>
        <time>2020-02-18T11:45:43.670Z</time>
      </trkpt>
      <trkpt lat="44.71836" lon="6.95312">
        <ele>2764.96599168</ele>
        <time>2020-02-18T11:45:56.670Z</time>
      </trkpt>
      <trkpt lat="44.71842" lon="6.9532">
        <ele>2759.80199296</ele>
        <time>2020-02-18T11:46:00.670Z</time>
      </trkpt>
      <trkpt lat="44.71851" lon="6.95322">
        <ele>2756.50199296</ele>
        <time>2020-02-18T11:46:03.670Z</time>
      </trkpt>
      <trkpt lat="44.71855" lon="6.95335">
        <ele>2749</ele>
        <time>2020-02-18T11:46:11.670Z</time>
      </trkpt>
      <trkpt lat="44.71853" lon="6.95348">
        <ele>2749</ele>
        <time>2020-02-18T11:46:35.670Z</time>
      </trkpt>
      <trkpt lat="44.71861" lon="6.95354">
        <ele>2749</ele>
        <time>2020-02-18T11:46:40.670Z</time>
      </trkpt>
      <trkpt lat="44.71864" lon="6.95366">
        <ele>2737.4979213223</ele>
        <time>2020-02-18T11:46:46.670Z</time>
      </trkpt>
      <trkpt lat="44.71872" lon="6.95377">
        <ele>2728.03799424</ele>
        <time>2020-02-18T11:46:52.670Z</time>
      </trkpt>
      <trkpt lat="44.71875" lon="6.95389">
        <ele>2723.53799424</ele>
        <time>2020-02-18T11:46:57.670Z</time>
      </trkpt>
      <trkpt lat="44.71868" lon="6.95402">
        <ele>2720.9099968</ele>
        <time>2020-02-18T11:47:00.670Z</time>
      </trkpt>
      <trkpt lat="44.7186" lon="6.95415">
        <ele>2719.4099968</ele>
        <time>2020-02-18T11:47:03.670Z</time>
      </trkpt>
      <trkpt lat="44.71854" lon="6.95429">
        <ele>2717.4099968</ele>
        <time>2020-02-18T11:47:07.670Z</time>
      </trkpt>
      <trkpt lat="44.71847" lon="6.95442">
        <ele>2715.78399232</ele>
        <time>2020-02-18T11:47:10.670Z</time>
      </trkpt>
      <trkpt lat="44.71839" lon="6.95453">
        <ele>2712.18399232</ele>
        <time>2020-02-18T11:47:13.670Z</time>
      </trkpt>
      <trkpt lat="44.71839" lon="6.95469">
        <ele>2704.98399232</ele>
        <time>2020-02-18T11:47:19.670Z</time>
      </trkpt>
      <trkpt lat="44.71844" lon="6.95482">
        <ele>2699.42198656</ele>
        <time>2020-02-18T11:47:22.670Z</time>
      </trkpt>
      <trkpt lat="44.71849" lon="6.95495">
        <ele>2693.12198656</ele>
        <time>2020-02-18T11:47:25.670Z</time>
      </trkpt>
      <trkpt lat="44.71854" lon="6.95506">
        <ele>2686.82198656</ele>
        <time>2020-02-18T11:47:28.670Z</time>
      </trkpt>
      <trkpt lat="44.7186" lon="6.95519">
        <ele>2681.8199936</ele>
        <time>2020-02-18T11:47:31.670Z</time>
      </trkpt>
      <trkpt lat="44.71865" lon="6.95534">
        <ele>2678.8199936</ele>
        <time>2020-02-18T11:47:34.670Z</time>
      </trkpt>
      <trkpt lat="44.71864" lon="6.95547">
        <ele>2675.8199936</ele>
        <time>2020-02-18T11:47:37.670Z</time>
      </trkpt>
      <trkpt lat="44.71873" lon="6.95554">
        <ele>2673</ele>
        <time>2020-02-18T11:47:55.670Z</time>
      </trkpt>
      <trkpt lat="44.71878" lon="6.95565">
        <ele>2672.87399552</ele>
        <time>2020-02-18T11:48:00.670Z</time>
      </trkpt>
      <trkpt lat="44.71873" lon="6.95576">
        <ele>2666</ele>
        <time>2020-02-18T11:48:11.670Z</time>
      </trkpt>
      <trkpt lat="44.71866" lon="6.95588">
        <ele>2665.38199936</ele>
        <time>2020-02-18T11:49:06.670Z</time>
      </trkpt>
      <trkpt lat="44.71858" lon="6.95601">
        <ele>2664.67598848</ele>
        <time>2020-02-18T11:49:10.670Z</time>
      </trkpt>
      <trkpt lat="44.71852" lon="6.95612">
        <ele>2661.07598848</ele>
        <time>2020-02-18T11:49:12.670Z</time>
      </trkpt>
      <trkpt lat="44.71849" lon="6.95625">
        <ele>2657.47598848</ele>
        <time>2020-02-18T11:49:14.670Z</time>
      </trkpt>
      <trkpt lat="44.71847" lon="6.95643">
        <ele>2652.07598848</ele>
        <time>2020-02-18T11:49:17.670Z</time>
      </trkpt>
      <trkpt lat="44.7185" lon="6.95655">
        <ele>2645.34799104</ele>
        <time>2020-02-18T11:49:21.670Z</time>
      </trkpt>
      <trkpt lat="44.7186" lon="6.95655">
        <ele>2642.54799104</ele>
        <time>2020-02-18T11:49:23.670Z</time>
      </trkpt>
      <trkpt lat="44.71876" lon="6.95657">
        <ele>2639.74799104</ele>
        <time>2020-02-18T11:49:25.670Z</time>
      </trkpt>
      <trkpt lat="44.7189" lon="6.95662">
        <ele>2636.94799104</ele>
        <time>2020-02-18T11:49:27.670Z</time>
      </trkpt>
      <trkpt lat="44.71901" lon="6.95671">
        <ele>2634.14799104</ele>
        <time>2020-02-18T11:49:29.670Z</time>
      </trkpt>
      <trkpt lat="44.71903" lon="6.95685">
        <ele>2631.93799424</ele>
        <time>2020-02-18T11:49:31.670Z</time>
      </trkpt>
      <trkpt lat="44.71905" lon="6.95702">
        <ele>2630.13799424</ele>
        <time>2020-02-18T11:49:33.670Z</time>
      </trkpt>
      <trkpt lat="44.71908" lon="6.95721">
        <ele>2628.33799424</ele>
        <time>2020-02-18T11:49:35.670Z</time>
      </trkpt>
      <trkpt lat="44.7191" lon="6.95739">
        <ele>2626.53799424</ele>
        <time>2020-02-18T11:49:37.670Z</time>
      </trkpt>
      <trkpt lat="44.71911" lon="6.95756">
        <ele>2624.73799424</ele>
        <time>2020-02-18T11:49:39.670Z</time>
      </trkpt>
      <trkpt lat="44.71911" lon="6.95773">
        <ele>2623.3139497674</ele>
        <time>2020-02-18T11:49:41.670Z</time>
      </trkpt>
      <trkpt lat="44.71909" lon="6.95792">
        <ele>2622.1511590698</ele>
        <time>2020-02-18T11:49:43.670Z</time>
      </trkpt>
      <trkpt lat="44.71908" lon="6.95814">
        <ele>2620.9883683721</ele>
        <time>2020-02-18T11:49:45.670Z</time>
      </trkpt>
      <trkpt lat="44.71908" lon="6.95831">
        <ele>2619.8255776744</ele>
        <time>2020-02-18T11:49:47.670Z</time>
      </trkpt>
      <trkpt lat="44.71908" lon="6.95844">
        <ele>2618.6627869767</ele>
        <time>2020-02-18T11:49:49.670Z</time>
      </trkpt>
      <trkpt lat="44.71905" lon="6.95868">
        <ele>2616.5072330579</ele>
        <time>2020-02-18T11:49:53.700Z</time>
      </trkpt>
      <trkpt lat="44.71898" lon="6.95881">
        <ele>2614.9731371901</ele>
        <time>2020-02-18T11:49:56.670Z</time>
      </trkpt>
      <trkpt lat="44.71891" lon="6.95892">
        <ele>2613.4235504132</ele>
        <time>2020-02-18T11:49:59.670Z</time>
      </trkpt>
      <trkpt lat="44.71881" lon="6.95903">
        <ele>2612.78199936</ele>
        <time>2020-02-18T11:50:02.670Z</time>
      </trkpt>
      <trkpt lat="44.71873" lon="6.95912">
        <ele>2612.58199936</ele>
        <time>2020-02-18T11:50:04.670Z</time>
      </trkpt>
      <trkpt lat="44.71863" lon="6.95922">
        <ele>2612.28199936</ele>
        <time>2020-02-18T11:50:07.670Z</time>
      </trkpt>
      <trkpt lat="44.71853" lon="6.95931">
        <ele>2611.64599808</ele>
        <time>2020-02-18T11:50:11.670Z</time>
      </trkpt>
      <trkpt lat="44.71844" lon="6.95936">
        <ele>2610.44599808</ele>
        <time>2020-02-18T11:50:15.670Z</time>
      </trkpt>
      <trkpt lat="44.71835" lon="6.95939">
        <ele>2609.54599808</ele>
        <time>2020-02-18T11:50:18.670Z</time>
      </trkpt>
      <trkpt lat="44.71824" lon="6.95941">
        <ele>2608.05599488</ele>
        <time>2020-02-18T11:50:21.670Z</time>
      </trkpt>
      <trkpt lat="44.71812" lon="6.95944">
        <ele>2605.65599488</ele>
        <time>2020-02-18T11:50:24.670Z</time>
      </trkpt>
      <trkpt lat="44.71804" lon="6.95952">
        <ele>2603.25599488</ele>
        <time>2020-02-18T11:50:27.670Z</time>
      </trkpt>
      <trkpt lat="44.71799" lon="6.95968">
        <ele>2600.87399552</ele>
        <time>2020-02-18T11:50:30.670Z</time>
      </trkpt>
      <trkpt lat="44.71797" lon="6.95984">
        <ele>2598.77399552</ele>
        <time>2020-02-18T11:50:33.670Z</time>
      </trkpt>
      <trkpt lat="44.71796" lon="6.96">
        <ele>2596.67399552</ele>
        <time>2020-02-18T11:50:36.670Z</time>
      </trkpt>
      <trkpt lat="44.71797" lon="6.96014">
        <ele>2595.27399552</ele>
        <time>2020-02-18T11:50:38.670Z</time>
      </trkpt>
      <trkpt lat="44.71797" lon="6.9603">
        <ele>2593.83799424</ele>
        <time>2020-02-18T11:50:40.670Z</time>
      </trkpt>
      <trkpt lat="44.718" lon="6.96041">
        <ele>2592.03799424</ele>
        <time>2020-02-18T11:50:42.670Z</time>
      </trkpt>
      <trkpt lat="44.71806" lon="6.96055">
        <ele>2590.23799424</ele>
        <time>2020-02-18T11:50:44.670Z</time>
      </trkpt>
      <trkpt lat="44.71813" lon="6.9607">
        <ele>2588.43799424</ele>
        <time>2020-02-18T11:50:46.670Z</time>
      </trkpt>
      <trkpt lat="44.7182" lon="6.96084">
        <ele>2586.63799424</ele>
        <time>2020-02-18T11:50:48.670Z</time>
      </trkpt>
      <trkpt lat="44.71829" lon="6.96092">
        <ele>2584.74799104</ele>
        <time>2020-02-18T11:50:50.670Z</time>
      </trkpt>
      <trkpt lat="44.71841" lon="6.96099">
        <ele>2581.94799104</ele>
        <time>2020-02-18T11:50:52.670Z</time>
      </trkpt>
      <trkpt lat="44.71853" lon="6.96103">
        <ele>2579.14799104</ele>
        <time>2020-02-18T11:50:54.670Z</time>
      </trkpt>
      <trkpt lat="44.71864" lon="6.96107">
        <ele>2576.34799104</ele>
        <time>2020-02-18T11:50:56.670Z</time>
      </trkpt>
      <trkpt lat="44.71875" lon="6.96113">
        <ele>2573.54799104</ele>
        <time>2020-02-18T11:50:58.670Z</time>
      </trkpt>
      <trkpt lat="44.71887" lon="6.96117">
        <ele>2570.92799744</ele>
        <time>2020-02-18T11:51:00.670Z</time>
      </trkpt>
      <trkpt lat="44.71894" lon="6.96126">
        <ele>2570.12799744</ele>
        <time>2020-02-18T11:51:02.670Z</time>
      </trkpt>
      <trkpt lat="44.71903" lon="6.96134">
        <ele>2569.32799744</ele>
        <time>2020-02-18T11:51:04.670Z</time>
      </trkpt>
      <trkpt lat="44.7191" lon="6.96141">
        <ele>2568.52799744</ele>
        <time>2020-02-18T11:51:06.670Z</time>
      </trkpt>
      <trkpt lat="44.71915" lon="6.96154">
        <ele>2567</ele>
        <time>2020-02-18T11:51:29.670Z</time>
      </trkpt>
      <trkpt lat="44.71922" lon="6.96165">
        <ele>2566.52799744</ele>
        <time>2020-02-18T11:51:31.670Z</time>
      </trkpt>
      <trkpt lat="44.7192" lon="6.96177">
        <ele>2561.58199936</ele>
        <time>2020-02-18T11:52:24.670Z</time>
      </trkpt>
      <trkpt lat="44.7191" lon="6.96179">
        <ele>2560.3785418624</ele>
        <time>2020-02-18T11:53:23.670Z</time>
      </trkpt>
      <trkpt lat="44.71905" lon="6.9619">
        <ele>2560.1761127126</ele>
        <time>2020-02-18T11:53:24.670Z</time>
      </trkpt>
      <trkpt lat="44.71897" lon="6.96175">
        <ele>2559</ele>
        <time>2020-02-18T11:53:33.700Z</time>
      </trkpt>
      <trkpt lat="44.719" lon="6.96187">
        <ele>2559</ele>
        <time>2020-02-18T11:53:42.670Z</time>
      </trkpt>
      <trkpt lat="44.71907" lon="6.96179">
        <ele>2560.63600128</ele>
        <time>2020-02-18T11:55:33.670Z</time>
      </trkpt>
      <trkpt lat="44.71899" lon="6.96175">
        <ele>2561</ele>
        <time>2020-02-18T11:56:14.670Z</time>
      </trkpt>
      <trkpt lat="44.71905" lon="6.96166">
        <ele>2562</ele>
        <time>2020-02-18T11:56:53.670Z</time>
      </trkpt>
      <trkpt lat="44.71896" lon="6.96163">
        <ele>2562.68199936</ele>
        <time>2020-02-18T11:58:03.670Z</time>
      </trkpt>
      <trkpt lat="44.71887" lon="6.96161">
        <ele>2562</ele>
        <time>2020-02-18T11:58:18.670Z</time>
      </trkpt>
      <trkpt lat="44.71885" lon="6.96174">
        <ele>2561</ele>
        <time>2020-02-18T11:58:40.670Z</time>
      </trkpt>
      <trkpt lat="44.71878" lon="6.96164">
        <ele>2561.21800064</ele>
        <time>2020-02-18T11:59:02.670Z</time>
      </trkpt>
      <trkpt lat="44.71886" lon="6.96168">
        <ele>2561.78199936</ele>
        <time>2020-02-18T11:59:42.670Z</time>
      </trkpt>
      <trkpt lat="44.71879" lon="6.96161">
        <ele>2561.95900032</ele>
        <time>2020-02-18T12:00:00.900Z</time>
      </trkpt>
      <trkpt lat="44.71888" lon="6.96163">
        <ele>2561</ele>
        <time>2020-02-18T12:02:08.670Z</time>
      </trkpt>
      <trkpt lat="44.71878" lon="6.96162">
        <ele>2560.88199936</ele>
        <time>2020-02-18T12:03:21.670Z</time>
      </trkpt>
      <trkpt lat="44.71888" lon="6.96165">
        <ele>2560.01800064</ele>
        <time>2020-02-18T12:03:30.670Z</time>
      </trkpt>
      <trkpt lat="44.71897" lon="6.96166">
        <ele>2560.41800064</ele>
        <time>2020-02-18T12:03:34.670Z</time>
      </trkpt>
      <trkpt lat="44.71886" lon="6.96166">
        <ele>2561</ele>
        <time>2020-02-18T12:03:42.670Z</time>
      </trkpt>
      <trkpt lat="44.71879" lon="6.96158">
        <ele>2560</ele>
        <time>2020-02-18T12:04:56.670Z</time>
      </trkpt>
      <trkpt lat="44.71867" lon="6.96154">
        <ele>2560</ele>
        <time>2020-02-18T12:05:52.670Z</time>
      </trkpt>
      <trkpt lat="44.71874" lon="6.96162">
        <ele>2560</ele>
        <time>2020-02-18T12:05:58.670Z</time>
      </trkpt>
      <trkpt lat="44.71883" lon="6.96167">
        <ele>2561</ele>
        <time>2020-02-18T12:06:12.670Z</time>
      </trkpt>
      <trkpt lat="44.71874" lon="6.96166">
        <ele>2561</ele>
        <time>2020-02-18T12:06:16.670Z</time>
      </trkpt>
      <trkpt lat="44.71883" lon="6.96167">
        <ele>2561</ele>
        <time>2020-02-18T12:06:40.670Z</time>
      </trkpt>
      <trkpt lat="44.71874" lon="6.96163">
        <ele>2561</ele>
        <time>2020-02-18T12:07:25.670Z</time>
      </trkpt>
      <trkpt lat="44.71883" lon="6.96166">
        <ele>2560</ele>
        <time>2020-02-18T12:08:47.670Z</time>
      </trkpt>
      <trkpt lat="44.71878" lon="6.96156">
        <ele>2562.68199936</ele>
        <time>2020-02-18T12:11:33.670Z</time>
      </trkpt>
      <trkpt lat="44.71873" lon="6.96167">
        <ele>2562</ele>
        <time>2020-02-18T12:11:44.670Z</time>
      </trkpt>
      <trkpt lat="44.71881" lon="6.96157">
        <ele>2560.0821637401</ele>
        <time>2020-02-18T12:15:29.670Z</time>
      </trkpt>
      <trkpt lat="44.71873" lon="6.9615">
        <ele>2560.3816178643</ele>
        <time>2020-02-18T12:16:36.670Z</time>
      </trkpt>
      <trkpt lat="44.71869" lon="6.96161">
        <ele>2559.48199936</ele>
        <time>2020-02-18T12:16:45.670Z</time>
      </trkpt>
      <trkpt lat="44.71874" lon="6.96172">
        <ele>2563</ele>
        <time>2020-02-18T12:19:42.670Z</time>
      </trkpt>
      <trkpt lat="44.71883" lon="6.96175">
        <ele>2567.68199936</ele>
        <time>2020-02-18T12:27:23.670Z</time>
      </trkpt>
      <trkpt lat="44.71875" lon="6.96167">
        <ele>2568.2971006523</ele>
        <time>2020-02-18T12:27:53.700Z</time>
      </trkpt>
      <trkpt lat="44.71868" lon="6.96157">
        <ele>2570.67200256</ele>
        <time>2020-02-18T12:28:04.670Z</time>
      </trkpt>
      <trkpt lat="44.71862" lon="6.96146">
        <ele>2573</ele>
        <time>2020-02-18T12:28:17.670Z</time>
      </trkpt>
      <trkpt lat="44.71855" lon="6.96139">
        <ele>2574.6167667118</ele>
        <time>2020-02-18T12:28:36.670Z</time>
      </trkpt>
      <trkpt lat="44.71846" lon="6.96141">
        <ele>2577</ele>
        <time>2020-02-18T12:29:29.670Z</time>
      </trkpt>
      <trkpt lat="44.71836" lon="6.96143">
        <ele>2577.18199936</ele>
        <time>2020-02-18T12:30:08.670Z</time>
      </trkpt>
      <trkpt lat="44.71827" lon="6.96138">
        <ele>2579.75400192</ele>
        <time>2020-02-18T12:30:19.670Z</time>
      </trkpt>
      <trkpt lat="44.71819" lon="6.96145">
        <ele>2582.2172181086</ele>
        <time>2020-02-18T12:30:42.670Z</time>
      </trkpt>
      <trkpt lat="44.71813" lon="6.96154">
        <ele>2583.5942013047</ele>
        <time>2020-02-18T12:31:03.700Z</time>
      </trkpt>
      <trkpt lat="44.71804" lon="6.96149">
        <ele>2585.23600128</ele>
        <time>2020-02-18T12:31:21.670Z</time>
      </trkpt>
      <trkpt lat="44.71796" lon="6.96153">
        <ele>2589.11800064</ele>
        <time>2020-02-18T12:31:41.670Z</time>
      </trkpt>
      <trkpt lat="44.71793" lon="6.96166">
        <ele>2590</ele>
        <time>2020-02-18T12:31:55.670Z</time>
      </trkpt>
      <trkpt lat="44.71794" lon="6.96179">
        <ele>2592.6172348648</ele>
        <time>2020-02-18T12:32:16.670Z</time>
      </trkpt>
      <trkpt lat="44.71795" lon="6.96192">
        <ele>2593.2306927922</ele>
        <time>2020-02-18T12:32:31.670Z</time>
      </trkpt>
      <trkpt lat="44.71798" lon="6.96204">
        <ele>2595</ele>
        <time>2020-02-18T12:32:48.670Z</time>
      </trkpt>
      <trkpt lat="44.71795" lon="6.96216">
        <ele>2597.3176830586</ele>
        <time>2020-02-18T12:33:03.670Z</time>
      </trkpt>
      <trkpt lat="44.7179" lon="6.96227">
        <ele>2598</ele>
        <time>2020-02-18T12:33:18.670Z</time>
      </trkpt>
      <trkpt lat="44.71781" lon="6.96235">
        <ele>2600.31800064</ele>
        <time>2020-02-18T12:33:43.670Z</time>
      </trkpt>
      <trkpt lat="44.71778" lon="6.96247">
        <ele>2602.85400192</ele>
        <time>2020-02-18T12:33:56.670Z</time>
      </trkpt>
      <trkpt lat="44.71777" lon="6.9626">
        <ele>2604.8886746606</ele>
        <time>2020-02-18T12:34:09.670Z</time>
      </trkpt>
      <trkpt lat="44.71775" lon="6.96273">
        <ele>2606</ele>
        <time>2020-02-18T12:34:23.670Z</time>
      </trkpt>
      <trkpt lat="44.71773" lon="6.96286">
        <ele>2607.2335334237</ele>
        <time>2020-02-18T12:34:36.670Z</time>
      </trkpt>
      <trkpt lat="44.71772" lon="6.96298">
        <ele>2609.4348706596</ele>
        <time>2020-02-18T12:34:47.670Z</time>
      </trkpt>
      <trkpt lat="44.71769" lon="6.9631">
        <ele>2611.63600128</ele>
        <time>2020-02-18T12:35:03.670Z</time>
      </trkpt>
      <trkpt lat="44.71763" lon="6.9632">
        <ele>2613</ele>
        <time>2020-02-18T12:35:17.670Z</time>
      </trkpt>
      <trkpt lat="44.71756" lon="6.96329">
        <ele>2615.01800064</ele>
        <time>2020-02-18T12:35:30.670Z</time>
      </trkpt>
      <trkpt lat="44.7175" lon="6.96339">
        <ele>2616.31800064</ele>
        <time>2020-02-18T12:35:43.670Z</time>
      </trkpt>
      <trkpt lat="44.71744" lon="6.96348">
        <ele>2617.51800064</ele>
        <time>2020-02-18T12:35:55.670Z</time>
      </trkpt>
      <trkpt lat="44.71738" lon="6.96359">
        <ele>2618.41800064</ele>
        <time>2020-02-18T12:36:04.670Z</time>
      </trkpt>
      <trkpt lat="44.71733" lon="6.96371">
        <ele>2619</ele>
        <time>2020-02-18T12:36:16.670Z</time>
      </trkpt>
      <trkpt lat="44.71728" lon="6.96382">
        <ele>2619</ele>
        <time>2020-02-18T12:36:24.670Z</time>
      </trkpt>
      <trkpt lat="44.71722" lon="6.96392">
        <ele>2619.8343320819</ele>
        <time>2020-02-18T12:36:34.670Z</time>
      </trkpt>
      <trkpt lat="44.71717" lon="6.96403">
        <ele>2620.0821637401</ele>
        <time>2020-02-18T12:36:49.670Z</time>
      </trkpt>
      <trkpt lat="44.71714" lon="6.96415">
        <ele>2621.2164330045</ele>
        <time>2020-02-18T12:37:02.670Z</time>
      </trkpt>
      <trkpt lat="44.7171" lon="6.96427">
        <ele>2623.0019348537</ele>
        <time>2020-02-18T12:37:15.670Z</time>
      </trkpt>
      <trkpt lat="44.71704" lon="6.96437">
        <ele>2625.21800064</ele>
        <time>2020-02-18T12:37:32.670Z</time>
      </trkpt>
      <trkpt lat="44.71701" lon="6.96449">
        <ele>2627.4331340946</ele>
        <time>2020-02-18T12:37:47.670Z</time>
      </trkpt>
      <trkpt lat="44.71699" lon="6.96461">
        <ele>2630</ele>
        <time>2020-02-18T12:38:03.670Z</time>
      </trkpt>
      <trkpt lat="44.71697" lon="6.96474">
        <ele>2633</ele>
        <time>2020-02-18T12:38:20.670Z</time>
      </trkpt>
      <trkpt lat="44.71703" lon="6.96461">
        <ele>2635.45400192</ele>
        <time>2020-02-18T12:38:38.670Z</time>
      </trkpt>
      <trkpt lat="44.71694" lon="6.96455">
        <ele>2638.3173657055</ele>
        <time>2020-02-18T12:39:03.670Z</time>
      </trkpt>
      <trkpt lat="44.7169" lon="6.96466">
        <ele>2641.8484559606</ele>
        <time>2020-02-18T12:39:26.670Z</time>
      </trkpt>
      <trkpt lat="44.71689" lon="6.9648">
        <ele>2644.11800064</ele>
        <time>2020-02-18T12:39:41.670Z</time>
      </trkpt>
      <trkpt lat="44.71688" lon="6.96493">
        <ele>2646.52199936</ele>
        <time>2020-02-18T12:39:58.100Z</time>
      </trkpt>
      <trkpt lat="44.71686" lon="6.96505">
        <ele>2647.71800064</ele>
        <time>2020-02-18T12:40:07.670Z</time>
      </trkpt>
      <trkpt lat="44.71676" lon="6.96505">
        <ele>2652.03600128</ele>
        <time>2020-02-18T12:40:40.670Z</time>
      </trkpt>
      <trkpt lat="44.7167" lon="6.96496">
        <ele>2655</ele>
        <time>2020-02-18T12:41:01.670Z</time>
      </trkpt>
      <trkpt lat="44.71666" lon="6.96508">
        <ele>2657.45400192</ele>
        <time>2020-02-18T12:41:18.670Z</time>
      </trkpt>
      <trkpt lat="44.71665" lon="6.96521">
        <ele>2658.11800064</ele>
        <time>2020-02-18T12:41:31.670Z</time>
      </trkpt>
      <trkpt lat="44.71665" lon="6.96534">
        <ele>2659.63600128</ele>
        <time>2020-02-18T12:41:43.670Z</time>
      </trkpt>
      <trkpt lat="44.71668" lon="6.96546">
        <ele>2662.63600128</ele>
        <time>2020-02-18T12:41:58.670Z</time>
      </trkpt>
      <trkpt lat="44.71675" lon="6.96554">
        <ele>2664</ele>
        <time>2020-02-18T12:42:13.670Z</time>
      </trkpt>
      <trkpt lat="44.71679" lon="6.96566">
        <ele>2668.5174833223</ele>
        <time>2020-02-18T12:42:45.670Z</time>
      </trkpt>
      <trkpt lat="44.7167" lon="6.96566">
        <ele>2671.11800064</ele>
        <time>2020-02-18T12:43:11.670Z</time>
      </trkpt>
      <trkpt lat="44.71661" lon="6.96568">
        <ele>2673</ele>
        <time>2020-02-18T12:43:38.670Z</time>
      </trkpt>
      <trkpt lat="44.71653" lon="6.9656">
        <ele>2674.4168339346</ele>
        <time>2020-02-18T12:44:14.670Z</time>
      </trkpt>
      <trkpt lat="44.71647" lon="6.96552">
        <ele>2676.27200256</ele>
        <time>2020-02-18T12:44:33.670Z</time>
      </trkpt>
      <trkpt lat="44.71642" lon="6.96541">
        <ele>2679</ele>
        <time>2020-02-18T12:44:52.670Z</time>
      </trkpt>
      <trkpt lat="44.71637" lon="6.9653">
        <ele>2681.7515169303</ele>
        <time>2020-02-18T12:45:09.670Z</time>
      </trkpt>
      <trkpt lat="44.71632" lon="6.96518">
        <ele>2683.2172181086</ele>
        <time>2020-02-18T12:45:22.670Z</time>
      </trkpt>
      <trkpt lat="44.71628" lon="6.96506">
        <ele>2684.81800064</ele>
        <time>2020-02-18T12:45:38.670Z</time>
      </trkpt>
      <trkpt lat="44.7162" lon="6.96501">
        <ele>2686.51800064</ele>
        <time>2020-02-18T12:45:55.670Z</time>
      </trkpt>
      <trkpt lat="44.71617" lon="6.96514">
        <ele>2689.25400192</ele>
        <time>2020-02-18T12:46:24.670Z</time>
      </trkpt>
      <trkpt lat="44.71608" lon="6.96508">
        <ele>2693</ele>
        <time>2020-02-18T12:47:05.670Z</time>
      </trkpt>
      <trkpt lat="44.71601" lon="6.96516">
        <ele>2694.11800064</ele>
        <time>2020-02-18T12:47:41.670Z</time>
      </trkpt>
      <trkpt lat="44.71599" lon="6.96529">
        <ele>2695</ele>
        <time>2020-02-18T12:47:55.670Z</time>
      </trkpt>
      <trkpt lat="44.71601" lon="6.96542">
        <ele>2698</ele>
        <time>2020-02-18T12:48:10.670Z</time>
      </trkpt>
      <trkpt lat="44.71596" lon="6.96531">
        <ele>2698.25400192</ele>
        <time>2020-02-18T12:48:44.670Z</time>
      </trkpt>
      <trkpt lat="44.71588" lon="6.96539">
        <ele>2701</ele>
        <time>2020-02-18T12:49:18.670Z</time>
      </trkpt>
      <trkpt lat="44.71591" lon="6.96551">
        <ele>2702</ele>
        <time>2020-02-18T12:49:56.670Z</time>
      </trkpt>
      <trkpt lat="44.71582" lon="6.96549">
        <ele>2704.7453434338</ele>
        <time>2020-02-18T12:50:09.670Z</time>
      </trkpt>
      <trkpt lat="44.71575" lon="6.96541">
        <ele>2706</ele>
        <time>2020-02-18T12:50:30.670Z</time>
      </trkpt>
      <trkpt lat="44.71578" lon="6.96553">
        <ele>2708.81800064</ele>
        <time>2020-02-18T12:51:28.670Z</time>
      </trkpt>
      <trkpt lat="44.71585" lon="6.96561">
        <ele>2712.68199936</ele>
        <time>2020-02-18T12:51:53.670Z</time>
      </trkpt>
      <trkpt lat="44.71576" lon="6.96562">
        <ele>2715.21800064</ele>
        <time>2020-02-18T12:52:22.670Z</time>
      </trkpt>
      <trkpt lat="44.7157" lon="6.96554">
        <ele>2716</ele>
        <time>2020-02-18T12:52:38.670Z</time>
      </trkpt>
      <trkpt lat="44.71571" lon="6.96567">
        <ele>2716</ele>
        <time>2020-02-18T12:52:59.670Z</time>
      </trkpt>
      <trkpt lat="44.71574" lon="6.96579">
        <ele>2719</ele>
        <time>2020-02-18T12:53:15.670Z</time>
      </trkpt>
      <trkpt lat="44.71573" lon="6.96593">
        <ele>2719.91800064</ele>
        <time>2020-02-18T12:53:29.670Z</time>
      </trkpt>
      <trkpt lat="44.71577" lon="6.96581">
        <ele>2722.91800064</ele>
        <time>2020-02-18T12:53:49.670Z</time>
      </trkpt>
      <trkpt lat="44.7157" lon="6.9659">
        <ele>2723.61800064</ele>
        <time>2020-02-18T12:55:56.670Z</time>
      </trkpt>
      <trkpt lat="44.71561" lon="6.9659">
        <ele>2724.81800064</ele>
        <time>2020-02-18T12:56:08.670Z</time>
      </trkpt>
      <trkpt lat="44.71552" lon="6.9659">
        <ele>2728</ele>
        <time>2020-02-18T12:56:23.700Z</time>
      </trkpt>
      <trkpt lat="44.71542" lon="6.96586">
        <ele>2727.08199936</ele>
        <time>2020-02-18T12:56:39.670Z</time>
      </trkpt>
      <trkpt lat="44.71534" lon="6.96579">
        <ele>2729.03600128</ele>
        <time>2020-02-18T12:56:55.670Z</time>
      </trkpt>
      <trkpt lat="44.71526" lon="6.96574">
        <ele>2732.81800064</ele>
        <time>2020-02-18T12:57:18.670Z</time>
      </trkpt>
      <trkpt lat="44.71523" lon="6.96587">
        <ele>2734.31800064</ele>
        <time>2020-02-18T12:57:33.670Z</time>
      </trkpt>
      <trkpt lat="44.71521" lon="6.96599">
        <ele>2735</ele>
        <time>2020-02-18T12:57:49.670Z</time>
      </trkpt>
      <trkpt lat="44.71513" lon="6.96594">
        <ele>2738.8174529404</ele>
        <time>2020-02-18T12:58:18.670Z</time>
      </trkpt>
      <trkpt lat="44.71506" lon="6.96585">
        <ele>2740.41800064</ele>
        <time>2020-02-18T12:58:34.670Z</time>
      </trkpt>
      <trkpt lat="44.71501" lon="6.96575">
        <ele>2741.0320641488</ele>
        <time>2020-02-18T12:58:50.670Z</time>
      </trkpt>
      <trkpt lat="44.71495" lon="6.96565">
        <ele>2743.43600128</ele>
        <time>2020-02-18T12:59:02.670Z</time>
      </trkpt>
      <trkpt lat="44.71489" lon="6.96554">
        <ele>2745</ele>
        <time>2020-02-18T12:59:15.670Z</time>
      </trkpt>
      <trkpt lat="44.7148" lon="6.96552">
        <ele>2745.8891174762</ele>
        <time>2020-02-18T12:59:33.700Z</time>
      </trkpt>
      <trkpt lat="44.71476" lon="6.96563">
        <ele>2748</ele>
        <time>2020-02-18T12:59:45.670Z</time>
      </trkpt>
      <trkpt lat="44.71473" lon="6.96577">
        <ele>2750.75400192</ele>
        <time>2020-02-18T12:59:59.670Z</time>
      </trkpt>
      <trkpt lat="44.71473" lon="6.9659">
        <ele>2751.63600128</ele>
        <time>2020-02-18T13:00:13.670Z</time>
      </trkpt>
      <trkpt lat="44.71472" lon="6.96603">
        <ele>2753.8821172051</ele>
        <time>2020-02-18T13:00:31.670Z</time>
      </trkpt>
      <trkpt lat="44.71463" lon="6.96604">
        <ele>2757.71800064</ele>
        <time>2020-02-18T13:01:07.670Z</time>
      </trkpt>
      <trkpt lat="44.71455" lon="6.96597">
        <ele>2759.23600128</ele>
        <time>2020-02-18T13:01:26.670Z</time>
      </trkpt>
      <trkpt lat="44.71454" lon="6.9661">
        <ele>2761</ele>
        <time>2020-02-18T13:01:52.670Z</time>
      </trkpt>
      <trkpt lat="44.71459" lon="6.96621">
        <ele>2761.91800064</ele>
        <time>2020-02-18T13:02:09.670Z</time>
      </trkpt>
      <trkpt lat="44.7145" lon="6.96618">
        <ele>2764.7722020077</ele>
        <time>2020-02-18T13:02:39.670Z</time>
      </trkpt>
      <trkpt lat="44.71441" lon="6.96617">
        <ele>2765.9120996361</ele>
        <time>2020-02-18T13:02:49.670Z</time>
      </trkpt>
      <trkpt lat="44.71436" lon="6.96628">
        <ele>2768</ele>
        <time>2020-02-18T13:03:19.670Z</time>
      </trkpt>
      <trkpt lat="44.7144" lon="6.96641">
        <ele>2770</ele>
        <time>2020-02-18T13:03:30.670Z</time>
      </trkpt>
      <trkpt lat="44.71446" lon="6.9665">
        <ele>2772.47200256</ele>
        <time>2020-02-18T13:03:46.670Z</time>
      </trkpt>
      <trkpt lat="44.71437" lon="6.96645">
        <ele>2775</ele>
        <time>2020-02-18T13:04:13.670Z</time>
      </trkpt>
      <trkpt lat="44.7143" lon="6.96637">
        <ele>2776.03600128</ele>
        <time>2020-02-18T13:04:25.670Z</time>
      </trkpt>
      <trkpt lat="44.71421" lon="6.96634">
        <ele>2777.81800064</ele>
        <time>2020-02-18T13:04:48.670Z</time>
      </trkpt>
      <trkpt lat="44.71421" lon="6.96647">
        <ele>2778.63600128</ele>
        <time>2020-02-18T13:05:03.670Z</time>
      </trkpt>
      <trkpt lat="44.71422" lon="6.9666">
        <ele>2781.85400192</ele>
        <time>2020-02-18T13:05:16.670Z</time>
      </trkpt>
      <trkpt lat="44.71431" lon="6.96661">
        <ele>2782.98199936</ele>
        <time>2020-02-18T13:07:40.670Z</time>
      </trkpt>
      <trkpt lat="44.7144" lon="6.96657">
        <ele>2780.76399872</ele>
        <time>2020-02-18T13:08:21.670Z</time>
      </trkpt>
      <trkpt lat="44.71448" lon="6.96649">
        <ele>2777.68199936</ele>
        <time>2020-02-18T13:09:23.670Z</time>
      </trkpt>
      <trkpt lat="44.71456" lon="6.96646">
        <ele>2777.61800064</ele>
        <time>2020-02-18T13:09:36.670Z</time>
      </trkpt>
      <trkpt lat="44.71465" lon="6.96641">
        <ele>2772.56399872</ele>
        <time>2020-02-18T13:09:57.670Z</time>
      </trkpt>
      <trkpt lat="44.71473" lon="6.96633">
        <ele>2770.44599808</ele>
        <time>2020-02-18T13:10:05.670Z</time>
      </trkpt>
      <trkpt lat="44.71482" lon="6.96628">
        <ele>2766</ele>
        <time>2020-02-18T13:10:23.670Z</time>
      </trkpt>
      <trkpt lat="44.71492" lon="6.96629">
        <ele>2760.76399872</ele>
        <time>2020-02-18T13:10:41.670Z</time>
      </trkpt>
      <trkpt lat="44.715" lon="6.96638">
        <ele>2759.36399872</ele>
        <time>2020-02-18T13:10:48.670Z</time>
      </trkpt>
      <trkpt lat="44.71508" lon="6.96644">
        <ele>2757.96399872</ele>
        <time>2020-02-18T13:10:55.670Z</time>
      </trkpt>
      <trkpt lat="44.71517" lon="6.9665">
        <ele>2755.76399872</ele>
        <time>2020-02-18T13:11:06.670Z</time>
      </trkpt>
      <trkpt lat="44.71525" lon="6.96654">
        <ele>2755</ele>
        <time>2020-02-18T13:11:18.670Z</time>
      </trkpt>
      <trkpt lat="44.71534" lon="6.96661">
        <ele>2755</ele>
        <time>2020-02-18T13:11:28.670Z</time>
      </trkpt>
      <trkpt lat="44.71541" lon="6.9667">
        <ele>2755</ele>
        <time>2020-02-18T13:11:38.670Z</time>
      </trkpt>
      <trkpt lat="44.7155" lon="6.96674">
        <ele>2756.61800064</ele>
        <time>2020-02-18T13:11:56.670Z</time>
      </trkpt>
      <trkpt lat="44.71558" lon="6.9668">
        <ele>2757</ele>
        <time>2020-02-18T13:12:08.670Z</time>
      </trkpt>
      <trkpt lat="44.71565" lon="6.96688">
        <ele>2758.51800064</ele>
        <time>2020-02-18T13:12:25.670Z</time>
      </trkpt>
      <trkpt lat="44.71573" lon="6.96696">
        <ele>2759.91900032</ele>
        <time>2020-02-18T13:12:39.680Z</time>
      </trkpt>
      <trkpt lat="44.71582" lon="6.96699">
        <ele>2762.01800064</ele>
        <time>2020-02-18T13:13:00.670Z</time>
      </trkpt>
      <trkpt lat="44.71586" lon="6.96711">
        <ele>2766.5900032</ele>
        <time>2020-02-18T13:13:17.670Z</time>
      </trkpt>
      <trkpt lat="44.71578" lon="6.96716">
        <ele>2769.83600128</ele>
        <time>2020-02-18T13:13:29.670Z</time>
      </trkpt>
      <trkpt lat="44.71568" lon="6.96719">
        <ele>2773.31800064</ele>
        <time>2020-02-18T13:13:43.670Z</time>
      </trkpt>
      <trkpt lat="44.71571" lon="6.96731">
        <ele>2774.87200256</ele>
        <time>2020-02-18T13:14:32.670Z</time>
      </trkpt>
      <trkpt lat="44.71566" lon="6.96742">
        <ele>2784</ele>
        <time>2020-02-18T13:15:25.670Z</time>
      </trkpt>
      <trkpt lat="44.71563" lon="6.96755">
        <ele>2790.81800064</ele>
        <time>2020-02-18T13:15:48.670Z</time>
      </trkpt>
      <trkpt lat="44.71554" lon="6.96753">
        <ele>2791</ele>
        <time>2020-02-18T13:16:36.670Z</time>
      </trkpt>
      <trkpt lat="44.71547" lon="6.96746">
        <ele>2789</ele>
        <time>2020-02-18T13:17:20.670Z</time>
      </trkpt>
      <trkpt lat="44.71537" lon="6.9675">
        <ele>2790.3832332882</ele>
        <time>2020-02-18T13:25:16.670Z</time>
      </trkpt>
      <trkpt lat="44.71526" lon="6.96746">
        <ele>2786.6653285229</ele>
        <time>2020-02-18T13:25:24.670Z</time>
      </trkpt>
      <trkpt lat="44.71516" lon="6.96744">
        <ele>2781.85599488</ele>
        <time>2020-02-18T13:25:30.670Z</time>
      </trkpt>
      <trkpt lat="44.71503" lon="6.96741">
        <ele>2778.65599488</ele>
        <time>2020-02-18T13:25:34.670Z</time>
      </trkpt>
      <trkpt lat="44.71494" lon="6.96737">
        <ele>2776.23200256</ele>
        <time>2020-02-18T13:25:37.700Z</time>
      </trkpt>
      <trkpt lat="44.71483" lon="6.96737">
        <ele>2773.76399872</ele>
        <time>2020-02-18T13:25:41.670Z</time>
      </trkpt>
      <trkpt lat="44.7148" lon="6.96749">
        <ele>2771.9099968</ele>
        <time>2020-02-18T13:25:50.670Z</time>
      </trkpt>
      <trkpt lat="44.71479" lon="6.96763">
        <ele>2765.34799104</ele>
        <time>2020-02-18T13:26:01.670Z</time>
      </trkpt>
      <trkpt lat="44.71468" lon="6.96766">
        <ele>2759.74799104</ele>
        <time>2020-02-18T13:26:05.670Z</time>
      </trkpt>
      <trkpt lat="44.71458" lon="6.96766">
        <ele>2755.54799104</ele>
        <time>2020-02-18T13:26:08.670Z</time>
      </trkpt>
      <trkpt lat="44.71448" lon="6.96765">
        <ele>2752.76399872</ele>
        <time>2020-02-18T13:26:11.670Z</time>
      </trkpt>
      <trkpt lat="44.71447" lon="6.96779">
        <ele>2749.9099968</ele>
        <time>2020-02-18T13:26:22.670Z</time>
      </trkpt>
      <trkpt lat="44.71452" lon="6.96791">
        <ele>2748.9099968</ele>
        <time>2020-02-18T13:26:24.670Z</time>
      </trkpt>
      <trkpt lat="44.71459" lon="6.96803">
        <ele>2747.9099968</ele>
        <time>2020-02-18T13:26:26.670Z</time>
      </trkpt>
      <trkpt lat="44.71463" lon="6.96816">
        <ele>2746.9099968</ele>
        <time>2020-02-18T13:26:28.670Z</time>
      </trkpt>
      <trkpt lat="44.71468" lon="6.9683">
        <ele>2745.64599808</ele>
        <time>2020-02-18T13:26:31.670Z</time>
      </trkpt>
      <trkpt lat="44.71473" lon="6.96844">
        <ele>2744.74599808</ele>
        <time>2020-02-18T13:26:34.670Z</time>
      </trkpt>
      <trkpt lat="44.71475" lon="6.96857">
        <ele>2743.84599808</ele>
        <time>2020-02-18T13:26:37.670Z</time>
      </trkpt>
      <trkpt lat="44.71466" lon="6.96867">
        <ele>2735.89398912</ele>
        <time>2020-02-18T13:26:44.670Z</time>
      </trkpt>
      <trkpt lat="44.71457" lon="6.96872">
        <ele>2729.09398912</ele>
        <time>2020-02-18T13:26:48.670Z</time>
      </trkpt>
      <trkpt lat="44.71449" lon="6.96876">
        <ele>2723.75798784</ele>
        <time>2020-02-18T13:26:51.670Z</time>
      </trkpt>
      <trkpt lat="44.71439" lon="6.96879">
        <ele>2718.05798784</ele>
        <time>2020-02-18T13:26:54.670Z</time>
      </trkpt>
      <trkpt lat="44.71431" lon="6.96883">
        <ele>2712.35798784</ele>
        <time>2020-02-18T13:26:57.670Z</time>
      </trkpt>
      <trkpt lat="44.71415" lon="6.96887">
        <ele>2706.98199936</ele>
        <time>2020-02-18T13:27:00.670Z</time>
      </trkpt>
      <trkpt lat="44.71403" lon="6.96888">
        <ele>2706.78199936</ele>
        <time>2020-02-18T13:27:02.670Z</time>
      </trkpt>
      <trkpt lat="44.71393" lon="6.96891">
        <ele>2706.58199936</ele>
        <time>2020-02-18T13:27:04.670Z</time>
      </trkpt>
      <trkpt lat="44.71383" lon="6.96896">
        <ele>2706.28199936</ele>
        <time>2020-02-18T13:27:07.670Z</time>
      </trkpt>
      <trkpt lat="44.71373" lon="6.96902">
        <ele>2706</ele>
        <time>2020-02-18T13:27:10.670Z</time>
      </trkpt>
      <trkpt lat="44.71372" lon="6.9692">
        <ele>2706</ele>
        <time>2020-02-18T13:27:16.730Z</time>
      </trkpt>
      <trkpt lat="44.71373" lon="6.96934">
        <ele>2704.68199936</ele>
        <time>2020-02-18T13:27:33.670Z</time>
      </trkpt>
      <trkpt lat="44.71379" lon="6.96921">
        <ele>2704.988</ele>
        <time>2020-02-18T13:28:20.610Z</time>
      </trkpt>
      <trkpt lat="44.71388" lon="6.96917">
        <ele>2704.48199936</ele>
        <time>2020-02-18T13:28:25.670Z</time>
      </trkpt>
      <trkpt lat="44.71386" lon="6.9693">
        <ele>2705</ele>
        <time>2020-02-18T13:28:46.670Z</time>
      </trkpt>
      <trkpt lat="44.71379" lon="6.96939">
        <ele>2704.68199936</ele>
        <time>2020-02-18T13:28:53.670Z</time>
      </trkpt>
      <trkpt lat="44.71372" lon="6.9695">
        <ele>2704.48199936</ele>
        <time>2020-02-18T13:28:55.670Z</time>
      </trkpt>
      <trkpt lat="44.71363" lon="6.96962">
        <ele>2704.28199936</ele>
        <time>2020-02-18T13:28:57.670Z</time>
      </trkpt>
      <trkpt lat="44.71354" lon="6.96976">
        <ele>2704.08199936</ele>
        <time>2020-02-18T13:28:59.670Z</time>
      </trkpt>
      <trkpt lat="44.71347" lon="6.96991">
        <ele>2702.8199936</ele>
        <time>2020-02-18T13:29:01.670Z</time>
      </trkpt>
      <trkpt lat="44.71341" lon="6.97006">
        <ele>2700.8199936</ele>
        <time>2020-02-18T13:29:03.670Z</time>
      </trkpt>
      <trkpt lat="44.71336" lon="6.9702">
        <ele>2698.8199936</ele>
        <time>2020-02-18T13:29:05.670Z</time>
      </trkpt>
      <trkpt lat="44.71332" lon="6.97035">
        <ele>2696.8199936</ele>
        <time>2020-02-18T13:29:07.670Z</time>
      </trkpt>
      <trkpt lat="44.71329" lon="6.97048">
        <ele>2694.8199936</ele>
        <time>2020-02-18T13:29:09.670Z</time>
      </trkpt>
      <trkpt lat="44.71326" lon="6.97061">
        <ele>2694</ele>
        <time>2020-02-18T13:29:11.670Z</time>
      </trkpt>
      <trkpt lat="44.71321" lon="6.97077">
        <ele>2694</ele>
        <time>2020-02-18T13:29:14.670Z</time>
      </trkpt>
      <trkpt lat="44.71316" lon="6.97092">
        <ele>2694</ele>
        <time>2020-02-18T13:29:18.670Z</time>
      </trkpt>
      <trkpt lat="44.71349" lon="6.97052">
        <ele>2693.18099968</ele>
        <time>2020-02-18T13:29:28.670Z</time>
      </trkpt>
      <trkpt lat="44.71339" lon="6.97057">
        <ele>2691.94599808</ele>
        <time>2020-02-18T13:29:40.670Z</time>
      </trkpt>
      <trkpt lat="44.71334" lon="6.97068">
        <ele>2690.74599808</ele>
        <time>2020-02-18T13:29:44.670Z</time>
      </trkpt>
      <trkpt lat="44.7133" lon="6.97081">
        <ele>2689.24599808</ele>
        <time>2020-02-18T13:29:49.670Z</time>
      </trkpt>
      <trkpt lat="44.71327" lon="6.97093">
        <ele>2689</ele>
        <time>2020-02-18T13:29:53.670Z</time>
      </trkpt>
      <trkpt lat="44.71324" lon="6.97109">
        <ele>2689</ele>
        <time>2020-02-18T13:29:56.670Z</time>
      </trkpt>
      <trkpt lat="44.71324" lon="6.97125">
        <ele>2688.69398912</ele>
        <time>2020-02-18T13:30:00.670Z</time>
      </trkpt>
      <trkpt lat="44.71325" lon="6.97139">
        <ele>2685.29398912</ele>
        <time>2020-02-18T13:30:02.670Z</time>
      </trkpt>
      <trkpt lat="44.71321" lon="6.97167">
        <ele>2678.57898368</ele>
        <time>2020-02-18T13:30:06.620Z</time>
      </trkpt>
      <trkpt lat="44.71317" lon="6.97181">
        <ele>2673.39398912</ele>
        <time>2020-02-18T13:30:09.670Z</time>
      </trkpt>
      <trkpt lat="44.71315" lon="6.97197">
        <ele>2671.68199936</ele>
        <time>2020-02-18T13:30:13.670Z</time>
      </trkpt>
      <trkpt lat="44.71314" lon="6.97209">
        <ele>2671.38199936</ele>
        <time>2020-02-18T13:30:16.670Z</time>
      </trkpt>
      <trkpt lat="44.71309" lon="6.97221">
        <ele>2671.08199936</ele>
        <time>2020-02-18T13:30:19.670Z</time>
      </trkpt>
      <trkpt lat="44.71304" lon="6.97236">
        <ele>2670.12799744</ele>
        <time>2020-02-18T13:30:22.670Z</time>
      </trkpt>
      <trkpt lat="44.71301" lon="6.97249">
        <ele>2668.92799744</ele>
        <time>2020-02-18T13:30:25.670Z</time>
      </trkpt>
      <trkpt lat="44.71298" lon="6.97262">
        <ele>2667</ele>
        <time>2020-02-18T13:30:32.670Z</time>
      </trkpt>
      <trkpt lat="44.71288" lon="6.97262">
        <ele>2667</ele>
        <time>2020-02-18T13:30:42.670Z</time>
      </trkpt>
      <trkpt lat="44.71278" lon="6.97265">
        <ele>2667</ele>
        <time>2020-02-18T13:30:46.670Z</time>
      </trkpt>
      <trkpt lat="44.71258" lon="6.97258">
        <ele>2667.5982583073</ele>
        <time>2020-02-18T13:31:06.670Z</time>
      </trkpt>
      <trkpt lat="44.71249" lon="6.97258">
        <ele>2668</ele>
        <time>2020-02-18T13:31:53.670Z</time>
      </trkpt>
      <trkpt lat="44.71244" lon="6.97269">
        <ele>2667.52099968</ele>
        <time>2020-02-18T13:32:55.700Z</time>
      </trkpt>
      <trkpt lat="44.71237" lon="6.97277">
        <ele>2667.9930895141</ele>
        <time>2020-02-18T13:34:30.670Z</time>
      </trkpt>
      <trkpt lat="44.71246" lon="6.97271">
        <ele>2667</ele>
        <time>2020-02-18T13:34:49.670Z</time>
      </trkpt>
      <trkpt lat="44.71237" lon="6.97274">
        <ele>2667</ele>
        <time>2020-02-18T13:36:00.670Z</time>
      </trkpt>
      <trkpt lat="44.71242" lon="6.97264">
        <ele>2667</ele>
        <time>2020-02-18T13:36:51.670Z</time>
      </trkpt>
      <trkpt lat="44.71247" lon="6.97252">
        <ele>2668.0676087774</ele>
        <time>2020-02-18T13:38:12.240Z</time>
      </trkpt>
      <trkpt lat="44.71242" lon="6.97263">
        <ele>2669.43800064</ele>
        <time>2020-02-18T13:38:33.670Z</time>
      </trkpt>
      <trkpt lat="44.71238" lon="6.97276">
        <ele>2671</ele>
        <time>2020-02-18T13:38:46.670Z</time>
      </trkpt>
      <trkpt lat="44.71233" lon="6.97286">
        <ele>2673.41800064</ele>
        <time>2020-02-18T13:39:05.670Z</time>
      </trkpt>
      <trkpt lat="44.71225" lon="6.97282">
        <ele>2674.8188191972</ele>
        <time>2020-02-18T13:39:19.670Z</time>
      </trkpt>
      <trkpt lat="44.71219" lon="6.97271">
        <ele>2679.6183821357</ele>
        <time>2020-02-18T13:39:47.670Z</time>
      </trkpt>
      <trkpt lat="44.71211" lon="6.97277">
        <ele>2681</ele>
        <time>2020-02-18T13:40:08.670Z</time>
      </trkpt>
      <trkpt lat="44.71207" lon="6.97288">
        <ele>2683.91800064</ele>
        <time>2020-02-18T13:40:30.670Z</time>
      </trkpt>
      <trkpt lat="44.71202" lon="6.97299">
        <ele>2683.63600128</ele>
        <time>2020-02-18T13:41:04.670Z</time>
      </trkpt>
      <trkpt lat="44.71197" lon="6.97311">
        <ele>2685.11800064</ele>
        <time>2020-02-18T13:41:12.670Z</time>
      </trkpt>
      <trkpt lat="44.71195" lon="6.97324">
        <ele>2686.71800064</ele>
        <time>2020-02-18T13:41:28.670Z</time>
      </trkpt>
      <trkpt lat="44.71192" lon="6.97335">
        <ele>2690.43600128</ele>
        <time>2020-02-18T13:41:43.670Z</time>
      </trkpt>
      <trkpt lat="44.71183" lon="6.97339">
        <ele>2692.51800064</ele>
        <time>2020-02-18T13:41:56.670Z</time>
      </trkpt>
      <trkpt lat="44.71174" lon="6.97337">
        <ele>2695.0189813447</ele>
        <time>2020-02-18T13:42:11.670Z</time>
      </trkpt>
      <trkpt lat="44.71169" lon="6.97348">
        <ele>2695.9180825313</ele>
        <time>2020-02-18T13:42:20.670Z</time>
      </trkpt>
      <trkpt lat="44.71165" lon="6.9736">
        <ele>2697.01800064</ele>
        <time>2020-02-18T13:42:31.670Z</time>
      </trkpt>
      <trkpt lat="44.71161" lon="6.97372">
        <ele>2698.61800064</ele>
        <time>2020-02-18T13:42:47.670Z</time>
      </trkpt>
      <trkpt lat="44.71154" lon="6.97382">
        <ele>2701.75400192</ele>
        <time>2020-02-18T13:43:00.670Z</time>
      </trkpt>
      <trkpt lat="44.71146" lon="6.97387">
        <ele>2704.01800064</ele>
        <time>2020-02-18T13:43:21.670Z</time>
      </trkpt>
      <trkpt lat="44.71138" lon="6.97394">
        <ele>2705.31800064</ele>
        <time>2020-02-18T13:43:34.670Z</time>
      </trkpt>
      <trkpt lat="44.7113" lon="6.97401">
        <ele>2706.3075439489</ele>
        <time>2020-02-18T13:43:44.670Z</time>
      </trkpt>
      <trkpt lat="44.71121" lon="6.97399">
        <ele>2709.1242250098</ele>
        <time>2020-02-18T13:43:58.670Z</time>
      </trkpt>
      <trkpt lat="44.71111" lon="6.974">
        <ele>2710</ele>
        <time>2020-02-18T13:44:10.670Z</time>
      </trkpt>
      <trkpt lat="44.71102" lon="6.97402">
        <ele>2712.01800064</ele>
        <time>2020-02-18T13:44:21.670Z</time>
      </trkpt>
      <trkpt lat="44.71093" lon="6.97403">
        <ele>2713.11800064</ele>
        <time>2020-02-18T13:44:32.670Z</time>
      </trkpt>
      <trkpt lat="44.71084" lon="6.97405">
        <ele>2714.51800064</ele>
        <time>2020-02-18T13:44:46.670Z</time>
      </trkpt>
      <trkpt lat="44.71074" lon="6.97408">
        <ele>2716.85400192</ele>
        <time>2020-02-18T13:44:57.670Z</time>
      </trkpt>
      <trkpt lat="44.71064" lon="6.97411">
        <ele>2718</ele>
        <time>2020-02-18T13:45:07.670Z</time>
      </trkpt>
      <trkpt lat="44.71055" lon="6.97412">
        <ele>2719.6363647988</ele>
        <time>2020-02-18T13:45:19.670Z</time>
      </trkpt>
      <trkpt lat="44.71045" lon="6.97413">
        <ele>2721.83600128</ele>
        <time>2020-02-18T13:45:35.670Z</time>
      </trkpt>
      <trkpt lat="44.71036" lon="6.97416">
        <ele>2723</ele>
        <time>2020-02-18T13:45:48.670Z</time>
      </trkpt>
      <trkpt lat="44.71027" lon="6.97419">
        <ele>2725</ele>
        <time>2020-02-18T13:46:01.670Z</time>
      </trkpt>
      <trkpt lat="44.71018" lon="6.97421">
        <ele>2725.95400192</ele>
        <time>2020-02-18T13:46:14.670Z</time>
      </trkpt>
      <trkpt lat="44.71009" lon="6.97422">
        <ele>2728.21800064</ele>
        <time>2020-02-18T13:46:23.670Z</time>
      </trkpt>
      <trkpt lat="44.71" lon="6.97426">
        <ele>2729.31800064</ele>
        <time>2020-02-18T13:46:34.670Z</time>
      </trkpt>
      <trkpt lat="44.7099" lon="6.97429">
        <ele>2730.41800064</ele>
        <time>2020-02-18T13:46:45.670Z</time>
      </trkpt>
      <trkpt lat="44.70982" lon="6.97435">
        <ele>2731.3069504247</ele>
        <time>2020-02-18T13:46:54.670Z</time>
      </trkpt>
      <trkpt lat="44.70973" lon="6.97435">
        <ele>2732.9149384232</ele>
        <time>2020-02-18T13:47:10.670Z</time>
      </trkpt>
      <trkpt lat="44.70964" lon="6.97431">
        <ele>2736.63600128</ele>
        <time>2020-02-18T13:47:29.670Z</time>
      </trkpt>
      <trkpt lat="44.70955" lon="6.97431">
        <ele>2739.2747269609</ele>
        <time>2020-02-18T13:47:54.670Z</time>
      </trkpt>
      <trkpt lat="44.70946" lon="6.97433">
        <ele>2742.8188191972</ele>
        <time>2020-02-18T13:48:09.670Z</time>
      </trkpt>
      <trkpt lat="44.70937" lon="6.97437">
        <ele>2743.0379626895</ele>
        <time>2020-02-18T13:48:21.670Z</time>
      </trkpt>
      <trkpt lat="44.70929" lon="6.97442">
        <ele>2745.43600128</ele>
        <time>2020-02-18T13:48:33.670Z</time>
      </trkpt>
      <trkpt lat="44.7092" lon="6.97449">
        <ele>2748.01800064</ele>
        <time>2020-02-18T13:48:51.670Z</time>
      </trkpt>
      <trkpt lat="44.70913" lon="6.97458">
        <ele>2749.21800064</ele>
        <time>2020-02-18T13:49:03.670Z</time>
      </trkpt>
      <trkpt lat="44.70905" lon="6.97465">
        <ele>2750.31800064</ele>
        <time>2020-02-18T13:49:14.670Z</time>
      </trkpt>
      <trkpt lat="44.70897" lon="6.97471">
        <ele>2753</ele>
        <time>2020-02-18T13:49:31.670Z</time>
      </trkpt>
      <trkpt lat="44.70887" lon="6.97473">
        <ele>2754.6363647988</ele>
        <time>2020-02-18T13:49:49.670Z</time>
      </trkpt>
      <trkpt lat="44.70879" lon="6.97477">
        <ele>2755.91800064</ele>
        <time>2020-02-18T13:50:00.670Z</time>
      </trkpt>
      <trkpt lat="44.70869" lon="6.97476">
        <ele>2756.1188814766</ele>
        <time>2020-02-18T13:52:42.670Z</time>
      </trkpt>
      <trkpt lat="44.7086" lon="6.97474">
        <ele>2757.63600128</ele>
        <time>2020-02-18T13:52:54.670Z</time>
      </trkpt>
      <trkpt lat="44.70851" lon="6.97474">
        <ele>2759</ele>
        <time>2020-02-18T13:53:08.670Z</time>
      </trkpt>
      <trkpt lat="44.70841" lon="6.97472">
        <ele>2759.7913044124</ele>
        <time>2020-02-18T13:53:19.670Z</time>
      </trkpt>
      <trkpt lat="44.70831" lon="6.97468">
        <ele>2760</ele>
        <time>2020-02-18T13:53:28.670Z</time>
      </trkpt>
      <trkpt lat="44.70821" lon="6.97468">
        <ele>2760.6183821357</ele>
        <time>2020-02-18T13:53:37.670Z</time>
      </trkpt>
      <trkpt lat="44.70812" lon="6.97471">
        <ele>2761.71800064</ele>
        <time>2020-02-18T13:53:48.670Z</time>
      </trkpt>
      <trkpt lat="44.70803" lon="6.97473">
        <ele>2762</ele>
        <time>2020-02-18T13:54:00.670Z</time>
      </trkpt>
      <trkpt lat="44.70793" lon="6.97472">
        <ele>2763.98199936</ele>
        <time>2020-02-18T13:54:11.670Z</time>
      </trkpt>
      <trkpt lat="44.70784" lon="6.97469">
        <ele>2763.05400192</ele>
        <time>2020-02-18T13:54:21.670Z</time>
      </trkpt>
      <trkpt lat="44.70775" lon="6.97471">
        <ele>2766.01800064</ele>
        <time>2020-02-18T13:54:31.670Z</time>
      </trkpt>
      <trkpt lat="44.70765" lon="6.97471">
        <ele>2767.31800064</ele>
        <time>2020-02-18T13:54:44.670Z</time>
      </trkpt>
      <trkpt lat="44.70756" lon="6.97467">
        <ele>2769.23600128</ele>
        <time>2020-02-18T13:54:57.670Z</time>
      </trkpt>
      <trkpt lat="44.70747" lon="6.97465">
        <ele>2770.23600128</ele>
        <time>2020-02-18T13:55:12.670Z</time>
      </trkpt>
      <trkpt lat="44.70738" lon="6.97468">
        <ele>2772.71800064</ele>
        <time>2020-02-18T13:55:28.670Z</time>
      </trkpt>
      <trkpt lat="44.70729" lon="6.97469">
        <ele>2775.418418925</ele>
        <time>2020-02-18T13:55:45.670Z</time>
      </trkpt>
      <trkpt lat="44.7072" lon="6.97469">
        <ele>2777.4365645352</ele>
        <time>2020-02-18T13:55:58.670Z</time>
      </trkpt>
      <trkpt lat="44.7071" lon="6.97466">
        <ele>2779.11800064</ele>
        <time>2020-02-18T13:56:12.670Z</time>
      </trkpt>
      <trkpt lat="44.70701" lon="6.97465">
        <ele>2780.8085113758</ele>
        <time>2020-02-18T13:56:25.670Z</time>
      </trkpt>
      <trkpt lat="44.70692" lon="6.97466">
        <ele>2783.2091105319</ele>
        <time>2020-02-18T13:56:37.670Z</time>
      </trkpt>
      <trkpt lat="44.70683" lon="6.9747">
        <ele>2784</ele>
        <time>2020-02-18T13:56:48.670Z</time>
      </trkpt>
      <trkpt lat="44.70674" lon="6.97475">
        <ele>2785.8361650625</ele>
        <time>2020-02-18T13:57:00.670Z</time>
      </trkpt>
      <trkpt lat="44.70665" lon="6.97472">
        <ele>2786.31800064</ele>
        <time>2020-02-18T13:58:14.670Z</time>
      </trkpt>
      <trkpt lat="44.70656" lon="6.97469">
        <ele>2788.23600128</ele>
        <time>2020-02-18T13:58:27.670Z</time>
      </trkpt>
      <trkpt lat="44.70664" lon="6.97461">
        <ele>2790.5184820039</ele>
        <time>2020-02-18T13:58:46.670Z</time>
      </trkpt>
      <trkpt lat="44.70657" lon="6.97452">
        <ele>2794.6156831451</ele>
        <time>2020-02-18T13:59:34.670Z</time>
      </trkpt>
      <trkpt lat="44.70664" lon="6.97443">
        <ele>2796</ele>
        <time>2020-02-18T13:59:59.670Z</time>
      </trkpt>
      <trkpt lat="44.70657" lon="6.97435">
        <ele>2798.6363647988</ele>
        <time>2020-02-18T14:00:19.670Z</time>
      </trkpt>
      <trkpt lat="44.70648" lon="6.9743">
        <ele>2799.51900032</ele>
        <time>2020-02-18T14:00:36.670Z</time>
      </trkpt>
      <trkpt lat="44.70652" lon="6.97418">
        <ele>2804</ele>
        <time>2020-02-18T14:01:06.670Z</time>
      </trkpt>
      <trkpt lat="44.70659" lon="6.97409">
        <ele>2805.41900032</ele>
        <time>2020-02-18T14:01:25.670Z</time>
      </trkpt>
      <trkpt lat="44.70663" lon="6.97398">
        <ele>2806</ele>
        <time>2020-02-18T14:01:40.670Z</time>
      </trkpt>
      <trkpt lat="44.70668" lon="6.97386">
        <ele>2810.83600128</ele>
        <time>2020-02-18T14:01:55.670Z</time>
      </trkpt>
      <trkpt lat="44.70673" lon="6.97375">
        <ele>2812</ele>
        <time>2020-02-18T14:02:08.670Z</time>
      </trkpt>
      <trkpt lat="44.70664" lon="6.97373">
        <ele>2814.9560452207</ele>
        <time>2020-02-18T14:02:34.670Z</time>
      </trkpt>
      <trkpt lat="44.70656" lon="6.97369">
        <ele>2817</ele>
        <time>2020-02-18T14:02:49.670Z</time>
      </trkpt>
      <trkpt lat="44.70655" lon="6.97356">
        <ele>2819</ele>
        <time>2020-02-18T14:03:06.670Z</time>
      </trkpt>
      <trkpt lat="44.70652" lon="6.97345">
        <ele>2819.9180825313</ele>
        <time>2020-02-18T14:03:20.670Z</time>
      </trkpt>
      <trkpt lat="44.7065" lon="6.97331">
        <ele>2821.61800064</ele>
        <time>2020-02-18T14:03:37.670Z</time>
      </trkpt>
      <trkpt lat="44.70646" lon="6.9732">
        <ele>2824.5185189931</ele>
        <time>2020-02-18T14:03:56.670Z</time>
      </trkpt>
      <trkpt lat="44.70637" lon="6.97316">
        <ele>2826.8361650625</ele>
        <time>2020-02-18T14:04:10.670Z</time>
      </trkpt>
      <trkpt lat="44.70627" lon="6.97317">
        <ele>2826</ele>
        <time>2020-02-18T14:05:30.670Z</time>
      </trkpt>
      <trkpt lat="44.70618" lon="6.97319">
        <ele>2827.31800064</ele>
        <time>2020-02-18T14:06:24.670Z</time>
      </trkpt>
      <trkpt lat="44.70609" lon="6.97322">
        <ele>2828.1188814766</ele>
        <time>2020-02-18T14:06:42.670Z</time>
      </trkpt>
      <trkpt lat="44.706" lon="6.97322">
        <ele>2829</ele>
        <time>2020-02-18T14:06:52.670Z</time>
      </trkpt>
      <trkpt lat="44.70591" lon="6.97325">
        <ele>2829.01800064</ele>
        <time>2020-02-18T14:07:01.670Z</time>
      </trkpt>
      <trkpt lat="44.70581" lon="6.97327">
        <ele>2830</ele>
        <time>2020-02-18T14:07:12.670Z</time>
      </trkpt>
      <trkpt lat="44.70571" lon="6.97329">
        <ele>2830</ele>
        <time>2020-02-18T14:07:26.670Z</time>
      </trkpt>
      <trkpt lat="44.70562" lon="6.97329">
        <ele>2829.18199936</ele>
        <time>2020-02-18T14:07:39.670Z</time>
      </trkpt>
      <trkpt lat="44.70552" lon="6.97327">
        <ele>2828.18199936</ele>
        <time>2020-02-18T14:07:49.670Z</time>
      </trkpt>
      <trkpt lat="44.70543" lon="6.97326">
        <ele>2828.81800064</ele>
        <time>2020-02-18T14:07:59.670Z</time>
      </trkpt>
      <trkpt lat="44.70534" lon="6.97328">
        <ele>2829</ele>
        <time>2020-02-18T14:08:11.670Z</time>
      </trkpt>
      <trkpt lat="44.70525" lon="6.97329">
        <ele>2829.01800064</ele>
        <time>2020-02-18T14:08:21.670Z</time>
      </trkpt>
      <trkpt lat="44.70515" lon="6.97326">
        <ele>2829.91800064</ele>
        <time>2020-02-18T14:08:30.670Z</time>
      </trkpt>
      <trkpt lat="44.70506" lon="6.97325">
        <ele>2830</ele>
        <time>2020-02-18T14:08:40.670Z</time>
      </trkpt>
      <trkpt lat="44.70497" lon="6.97323">
        <ele>2830</ele>
        <time>2020-02-18T14:08:52.670Z</time>
      </trkpt>
      <trkpt lat="44.70487" lon="6.97324">
        <ele>2830</ele>
        <time>2020-02-18T14:09:01.670Z</time>
      </trkpt>
      <trkpt lat="44.70478" lon="6.97326">
        <ele>2830.0860107228</ele>
        <time>2020-02-18T14:09:12.670Z</time>
      </trkpt>
      <trkpt lat="44.7047" lon="6.97318">
        <ele>2831.318318857</ele>
        <time>2020-02-18T14:09:24.670Z</time>
      </trkpt>
      <trkpt lat="44.70463" lon="6.97308">
        <ele>2833.03800064</ele>
        <time>2020-02-18T14:09:36.670Z</time>
      </trkpt>
      <trkpt lat="44.70457" lon="6.97298">
        <ele>2834.23600128</ele>
        <time>2020-02-18T14:09:52.670Z</time>
      </trkpt>
      <trkpt lat="44.70449" lon="6.97294">
        <ele>2836</ele>
        <time>2020-02-18T14:10:04.670Z</time>
      </trkpt>
      <trkpt lat="44.7044" lon="6.97295">
        <ele>2838.0739280156</ele>
        <time>2020-02-18T14:10:16.670Z</time>
      </trkpt>
      <trkpt lat="44.7043" lon="6.97294">
        <ele>2840</ele>
        <time>2020-02-18T14:10:28.670Z</time>
      </trkpt>
      <trkpt lat="44.70429" lon="6.97278">
        <ele>2840.5184820039</ele>
        <time>2020-02-18T14:10:36.670Z</time>
      </trkpt>
      <trkpt lat="44.70419" lon="6.97282">
        <ele>2842.85400192</ele>
        <time>2020-02-18T14:10:47.670Z</time>
      </trkpt>
      <trkpt lat="44.70412" lon="6.97289">
        <ele>2843.28199936</ele>
        <time>2020-02-18T14:10:58.670Z</time>
      </trkpt>
      <trkpt lat="44.70403" lon="6.9729">
        <ele>2845.23600128</ele>
        <time>2020-02-18T14:11:12.670Z</time>
      </trkpt>
      <trkpt lat="44.70393" lon="6.97292">
        <ele>2847.41800064</ele>
        <time>2020-02-18T14:11:25.670Z</time>
      </trkpt>
      <trkpt lat="44.70384" lon="6.97293">
        <ele>2849.03600128</ele>
        <time>2020-02-18T14:11:36.670Z</time>
      </trkpt>
      <trkpt lat="44.70375" lon="6.97294">
        <ele>2851.01800064</ele>
        <time>2020-02-18T14:11:51.670Z</time>
      </trkpt>
      <trkpt lat="44.70365" lon="6.97298">
        <ele>2852.21800064</ele>
        <time>2020-02-18T14:12:03.670Z</time>
      </trkpt>
      <trkpt lat="44.70356" lon="6.97301">
        <ele>2855.9535783653</ele>
        <time>2020-02-18T14:12:21.670Z</time>
      </trkpt>
      <trkpt lat="44.70347" lon="6.97305">
        <ele>2856.7182822676</ele>
        <time>2020-02-18T14:12:38.670Z</time>
      </trkpt>
      <trkpt lat="44.70338" lon="6.97309">
        <ele>2859.1181187209</ele>
        <time>2020-02-18T14:12:52.670Z</time>
      </trkpt>
      <trkpt lat="44.70329" lon="6.97311">
        <ele>2860.8371637442</ele>
        <time>2020-02-18T14:13:05.670Z</time>
      </trkpt>
      <trkpt lat="44.7032" lon="6.97312">
        <ele>2862</ele>
        <time>2020-02-18T14:13:17.670Z</time>
      </trkpt>
      <trkpt lat="44.70311" lon="6.97312">
        <ele>2862</ele>
        <time>2020-02-18T14:13:30.670Z</time>
      </trkpt>
      <trkpt lat="44.70301" lon="6.97313">
        <ele>2864.7542475938</ele>
        <time>2020-02-18T14:13:40.670Z</time>
      </trkpt>
      <trkpt lat="44.70293" lon="6.97317">
        <ele>2866</ele>
        <time>2020-02-18T14:13:53.670Z</time>
      </trkpt>
      <trkpt lat="44.70283" lon="6.97316">
        <ele>2866.51800064</ele>
        <time>2020-02-18T14:14:06.670Z</time>
      </trkpt>
      <trkpt lat="44.70274" lon="6.97316">
        <ele>2868.83600128</ele>
        <time>2020-02-18T14:14:20.670Z</time>
      </trkpt>
      <trkpt lat="44.70265" lon="6.97316">
        <ele>2870.8361650625</ele>
        <time>2020-02-18T14:14:40.670Z</time>
      </trkpt>
      <trkpt lat="44.70256" lon="6.97312">
        <ele>2872.81800064</ele>
        <time>2020-02-18T14:14:59.670Z</time>
      </trkpt>
      <trkpt lat="44.70247" lon="6.97311">
        <ele>2874.51800064</ele>
        <time>2020-02-18T14:15:16.670Z</time>
      </trkpt>
      <trkpt lat="44.70238" lon="6.97307">
        <ele>2876</ele>
        <time>2020-02-18T14:15:38.670Z</time>
      </trkpt>
      <trkpt lat="44.70229" lon="6.97307">
        <ele>2878.20570213</ele>
        <time>2020-02-18T14:15:52.670Z</time>
      </trkpt>
      <trkpt lat="44.7022" lon="6.97303">
        <ele>2879.7622370469</ele>
        <time>2020-02-18T14:16:22.670Z</time>
      </trkpt>
      <trkpt lat="44.70225" lon="6.97292">
        <ele>2878</ele>
        <time>2020-02-18T14:16:32.670Z</time>
      </trkpt>
      <trkpt lat="44.70234" lon="6.97289">
        <ele>2882</ele>
        <time>2020-02-18T14:18:44.700Z</time>
      </trkpt>
      <trkpt lat="44.70225" lon="6.97284">
        <ele>2883.0379626895</ele>
        <time>2020-02-18T14:19:11.670Z</time>
      </trkpt>
      <trkpt lat="44.70216" lon="6.9728">
        <ele>2885.418418925</ele>
        <time>2020-02-18T14:19:25.670Z</time>
      </trkpt>
      <trkpt lat="44.70207" lon="6.97278">
        <ele>2886.8181823994</ele>
        <time>2020-02-18T14:19:39.670Z</time>
      </trkpt>
      <trkpt lat="44.70198" lon="6.97274">
        <ele>2888.21800064</ele>
        <time>2020-02-18T14:19:53.670Z</time>
      </trkpt>
      <trkpt lat="44.70189" lon="6.97272">
        <ele>2889.61800064</ele>
        <time>2020-02-18T14:20:07.670Z</time>
      </trkpt>
      <trkpt lat="44.7018" lon="6.97269">
        <ele>2891.63600128</ele>
        <time>2020-02-18T14:20:19.670Z</time>
      </trkpt>
      <trkpt lat="44.70171" lon="6.97267">
        <ele>2893.43600128</ele>
        <time>2020-02-18T14:20:28.670Z</time>
      </trkpt>
      <trkpt lat="44.70162" lon="6.97265">
        <ele>2895.03600128</ele>
        <time>2020-02-18T14:20:51.670Z</time>
      </trkpt>
      <trkpt lat="44.7017" lon="6.97258">
        <ele>2897.7187191291</ele>
        <time>2020-02-18T14:21:08.670Z</time>
      </trkpt>
      <trkpt lat="44.70178" lon="6.9725">
        <ele>2902.71800064</ele>
        <time>2020-02-18T14:21:38.670Z</time>
      </trkpt>
      <trkpt lat="44.70185" lon="6.97241">
        <ele>2903.605372562</ele>
        <time>2020-02-18T14:21:57.670Z</time>
      </trkpt>
      <trkpt lat="44.70188" lon="6.97229">
        <ele>2910</ele>
        <time>2020-02-18T14:22:52.670Z</time>
      </trkpt>
      <trkpt lat="44.70197" lon="6.97226">
        <ele>2910.61800064</ele>
        <time>2020-02-18T14:23:07.670Z</time>
      </trkpt>
      <trkpt lat="44.7019" lon="6.97218">
        <ele>2912.23600128</ele>
        <time>2020-02-18T14:23:32.670Z</time>
      </trkpt>
      <trkpt lat="44.70181" lon="6.97217">
        <ele>2915.01800064</ele>
        <time>2020-02-18T14:23:51.670Z</time>
      </trkpt>
      <trkpt lat="44.70172" lon="6.97213">
        <ele>2916</ele>
        <time>2020-02-18T14:24:01.670Z</time>
      </trkpt>
      <trkpt lat="44.70163" lon="6.97211">
        <ele>2916.3186817402</ele>
        <time>2020-02-18T14:24:14.670Z</time>
      </trkpt>
      <trkpt lat="44.70153" lon="6.97209">
        <ele>2917.81800064</ele>
        <time>2020-02-18T14:24:29.670Z</time>
      </trkpt>
      <trkpt lat="44.70144" lon="6.97204">
        <ele>2919</ele>
        <time>2020-02-18T14:24:41.670Z</time>
      </trkpt>
      <trkpt lat="44.70137" lon="6.97197">
        <ele>2919.8085113758</ele>
        <time>2020-02-18T14:24:55.670Z</time>
      </trkpt>
      <trkpt lat="44.70129" lon="6.97192">
        <ele>2923.3186817402</ele>
        <time>2020-02-18T14:25:14.670Z</time>
      </trkpt>
      <trkpt lat="44.7012" lon="6.97187">
        <ele>2924.31800064</ele>
        <time>2020-02-18T14:25:34.670Z</time>
      </trkpt>
      <trkpt lat="44.70112" lon="6.97182">
        <ele>2928</ele>
        <time>2020-02-18T14:25:56.670Z</time>
      </trkpt>
      <trkpt lat="44.70103" lon="6.97176">
        <ele>2929.8361650625</ele>
        <time>2020-02-18T14:26:10.670Z</time>
      </trkpt>
      <trkpt lat="44.70103" lon="6.97162">
        <ele>2932.2367642715</ele>
        <time>2020-02-18T14:26:27.670Z</time>
      </trkpt>
      <trkpt lat="44.70109" lon="6.97154">
        <ele>2934.21800064</ele>
        <time>2020-02-18T14:26:43.670Z</time>
      </trkpt>
      <trkpt lat="44.70114" lon="6.97143">
        <ele>2935.41800064</ele>
        <time>2020-02-18T14:26:55.670Z</time>
      </trkpt>
      <trkpt lat="44.70122" lon="6.97134">
        <ele>2937.63600128</ele>
        <time>2020-02-18T14:27:09.670Z</time>
      </trkpt>
      <trkpt lat="44.7013" lon="6.97129">
        <ele>2940.03600128</ele>
        <time>2020-02-18T14:27:26.670Z</time>
      </trkpt>
      <trkpt lat="44.70138" lon="6.97123">
        <ele>2943</ele>
        <time>2020-02-18T14:27:41.670Z</time>
      </trkpt>
      <trkpt lat="44.70144" lon="6.97113">
        <ele>2942.0521552023</ele>
        <time>2020-02-18T14:28:54.670Z</time>
      </trkpt>
      <trkpt lat="44.70144" lon="6.971">
        <ele>2940.4185818721</ele>
        <time>2020-02-18T14:31:35.670Z</time>
      </trkpt>
      <trkpt lat="44.70152" lon="6.97105">
        <ele>2941.35400192</ele>
        <time>2020-02-18T14:32:02.670Z</time>
      </trkpt>
      <trkpt lat="44.70161" lon="6.97105">
        <ele>2941.56399872</ele>
        <time>2020-02-18T14:32:38.670Z</time>
      </trkpt>
      <trkpt lat="44.70167" lon="6.97116">
        <ele>2944.07200256</ele>
        <time>2020-02-18T14:32:51.670Z</time>
      </trkpt>
      <trkpt lat="44.70176" lon="6.97118">
        <ele>2948.91800064</ele>
        <time>2020-02-18T14:33:10.670Z</time>
      </trkpt>
      <trkpt lat="44.70185" lon="6.9712">
        <ele>2951.81800064</ele>
        <time>2020-02-18T14:33:29.670Z</time>
      </trkpt>
      <trkpt lat="44.70195" lon="6.97118">
        <ele>2951.1818176006</ele>
        <time>2020-02-18T14:33:49.670Z</time>
      </trkpt>
      <trkpt lat="44.70204" lon="6.97113">
        <ele>2951.08199936</ele>
        <time>2020-02-18T14:34:10.670Z</time>
      </trkpt>
      <trkpt lat="44.7021" lon="6.97103">
        <ele>2950.4235980357</ele>
        <time>2020-02-18T14:34:23.670Z</time>
      </trkpt>
      <trkpt lat="44.70218" lon="6.97093">
        <ele>2953.4182197388</ele>
        <time>2020-02-18T14:34:38.670Z</time>
      </trkpt>
      <trkpt lat="44.70227" lon="6.97088">
        <ele>2951.2457524062</ele>
        <time>2020-02-18T14:34:50.670Z</time>
      </trkpt>
      <trkpt lat="44.70234" lon="6.97081">
        <ele>2950.61800064</ele>
        <time>2020-02-18T14:35:07.670Z</time>
      </trkpt>
      <trkpt lat="44.70241" lon="6.97072">
        <ele>2950.8811185234</ele>
        <time>2020-02-18T14:35:22.670Z</time>
      </trkpt>
      <trkpt lat="44.70249" lon="6.97065">
        <ele>2950</ele>
        <time>2020-02-18T14:35:35.670Z</time>
      </trkpt>
      <trkpt lat="44.70257" lon="6.97058">
        <ele>2951.61800064</ele>
        <time>2020-02-18T14:35:57.670Z</time>
      </trkpt>
      <trkpt lat="44.70265" lon="6.97051">
        <ele>2954</ele>
        <time>2020-02-18T14:36:12.670Z</time>
      </trkpt>
      <trkpt lat="44.70268" lon="6.97039">
        <ele>2956.21800064</ele>
        <time>2020-02-18T14:36:33.670Z</time>
      </trkpt>
      <trkpt lat="44.70273" lon="6.97051">
        <ele>2959.31800064</ele>
        <time>2020-02-18T14:36:54.670Z</time>
      </trkpt>
      <trkpt lat="44.70274" lon="6.97064">
        <ele>2962.21800064</ele>
        <time>2020-02-18T14:37:13.670Z</time>
      </trkpt>
      <trkpt lat="44.70282" lon="6.9707">
        <ele>2964.9652522008</ele>
        <time>2020-02-18T14:37:41.670Z</time>
      </trkpt>
      <trkpt lat="44.70289" lon="6.97061">
        <ele>2969</ele>
        <time>2020-02-18T14:38:02.670Z</time>
      </trkpt>
      <trkpt lat="44.70287" lon="6.97074">
        <ele>2970</ele>
        <time>2020-02-18T14:38:23.670Z</time>
      </trkpt>
      <trkpt lat="44.70287" lon="6.97087">
        <ele>2971.8361650625</ele>
        <time>2020-02-18T14:38:40.670Z</time>
      </trkpt>
      <trkpt lat="44.70296" lon="6.97088">
        <ele>2974.0358935877</ele>
        <time>2020-02-18T14:39:11.670Z</time>
      </trkpt>
      <trkpt lat="44.70301" lon="6.97076">
        <ele>2976.5165501357</ele>
        <time>2020-02-18T14:39:26.670Z</time>
      </trkpt>
      <trkpt lat="44.70299" lon="6.97089">
        <ele>2980</ele>
        <time>2020-02-18T14:39:56.670Z</time>
      </trkpt>
      <trkpt lat="44.7029" lon="6.97086">
        <ele>2985</ele>
        <time>2020-02-18T14:42:52.670Z</time>
      </trkpt>
      <trkpt lat="44.70293" lon="6.97099">
        <ele>2982.4250729638</ele>
        <time>2020-02-18T14:46:03.670Z</time>
      </trkpt>
      <trkpt lat="44.70302" lon="6.97102">
        <ele>2983.21800064</ele>
        <time>2020-02-18T14:46:53.670Z</time>
      </trkpt>
      <trkpt lat="44.70293" lon="6.97107">
        <ele>2984</ele>
        <time>2020-02-18T14:48:58.670Z</time>
      </trkpt>
      <trkpt lat="44.703" lon="6.97098">
        <ele>2983.38199936</ele>
        <time>2020-02-18T14:50:57.670Z</time>
      </trkpt>
      <trkpt lat="44.70308" lon="6.97105">
        <ele>2983.0829173231</ele>
        <time>2020-02-18T14:51:40.670Z</time>
      </trkpt>
      <trkpt lat="44.70308" lon="6.97092">
        <ele>2983</ele>
        <time>2020-02-18T14:52:36.670Z</time>
      </trkpt>
      <trkpt lat="44.703" lon="6.97084">
        <ele>2982.41800064</ele>
        <time>2020-02-18T14:53:05.670Z</time>
      </trkpt>
      <trkpt lat="44.70292" lon="6.97075">
        <ele>2983</ele>
        <time>2020-02-18T14:54:45.670Z</time>
      </trkpt>
      <trkpt lat="44.70284" lon="6.97083">
        <ele>2978.4099968</ele>
        <time>2020-02-18T14:55:30.670Z</time>
      </trkpt>
      <trkpt lat="44.70283" lon="6.97069">
        <ele>2967.87399552</ele>
        <time>2020-02-18T14:55:41.670Z</time>
      </trkpt>
      <trkpt lat="44.70287" lon="6.97055">
        <ele>2965.07399552</ele>
        <time>2020-02-18T14:55:45.670Z</time>
      </trkpt>
      <trkpt lat="44.7029" lon="6.97041">
        <ele>2962.27399552</ele>
        <time>2020-02-18T14:55:49.670Z</time>
      </trkpt>
      <trkpt lat="44.7028" lon="6.97044">
        <ele>2958.12799744</ele>
        <time>2020-02-18T14:56:08.670Z</time>
      </trkpt>
      <trkpt lat="44.70273" lon="6.97057">
        <ele>2956.89199616</ele>
        <time>2020-02-18T14:56:11.670Z</time>
      </trkpt>
      <trkpt lat="44.70262" lon="6.97066">
        <ele>2952.69199616</ele>
        <time>2020-02-18T14:56:18.670Z</time>
      </trkpt>
      <trkpt lat="44.70252" lon="6.97077">
        <ele>2950.80199296</ele>
        <time>2020-02-18T14:56:21.670Z</time>
      </trkpt>
      <trkpt lat="44.70241" lon="6.97082">
        <ele>2945.30199296</ele>
        <time>2020-02-18T14:56:26.670Z</time>
      </trkpt>
      <trkpt lat="44.70232" lon="6.97085">
        <ele>2942.00199296</ele>
        <time>2020-02-18T14:56:29.670Z</time>
      </trkpt>
      <trkpt lat="44.70235" lon="6.97069">
        <ele>2938.5241745305</ele>
        <time>2020-02-18T14:56:33.670Z</time>
      </trkpt>
      <trkpt lat="44.70241" lon="6.97055">
        <ele>2937.1702101848</ele>
        <time>2020-02-18T14:56:35.670Z</time>
      </trkpt>
      <trkpt lat="44.70247" lon="6.97044">
        <ele>2935.8162458391</ele>
        <time>2020-02-18T14:56:37.670Z</time>
      </trkpt>
      <trkpt lat="44.70253" lon="6.97029">
        <ele>2933.7852993205</ele>
        <time>2020-02-18T14:56:40.670Z</time>
      </trkpt>
      <trkpt lat="44.70259" lon="6.97017">
        <ele>2932.0476184166</ele>
        <time>2020-02-18T14:56:43.670Z</time>
      </trkpt>
      <trkpt lat="44.7025" lon="6.97015">
        <ele>2929.9772236702</ele>
        <time>2020-02-18T14:56:47.670Z</time>
      </trkpt>
      <trkpt lat="44.70241" lon="6.97021">
        <ele>2928.4244276104</ele>
        <time>2020-02-18T14:56:50.670Z</time>
      </trkpt>
      <trkpt lat="44.7025" lon="6.96994">
        <ele>2920.68300288</ele>
        <time>2020-02-18T14:56:59.620Z</time>
      </trkpt>
      <trkpt lat="44.70257" lon="6.96977">
        <ele>2918.94599808</ele>
        <time>2020-02-18T14:57:01.670Z</time>
      </trkpt>
      <trkpt lat="44.70261" lon="6.96959">
        <ele>2918.04599808</ele>
        <time>2020-02-18T14:57:04.670Z</time>
      </trkpt>
      <trkpt lat="44.7026" lon="6.96946">
        <ele>2916.0179467939</ele>
        <time>2020-02-18T14:57:11.670Z</time>
      </trkpt>
      <trkpt lat="44.7026" lon="6.96933">
        <ele>2913.8295060963</ele>
        <time>2020-02-18T14:57:34.670Z</time>
      </trkpt>
      <trkpt lat="44.70263" lon="6.96917">
        <ele>2908.8444628213</ele>
        <time>2020-02-18T14:57:39.670Z</time>
      </trkpt>
      <trkpt lat="44.70266" lon="6.96902">
        <ele>2905.3851504546</ele>
        <time>2020-02-18T14:57:42.670Z</time>
      </trkpt>
      <trkpt lat="44.70258" lon="6.96889">
        <ele>2895.6399206066</ele>
        <time>2020-02-18T14:57:49.610Z</time>
      </trkpt>
      <trkpt lat="44.70249" lon="6.96884">
        <ele>2886.31198976</ele>
        <time>2020-02-18T14:57:55.670Z</time>
      </trkpt>
      <trkpt lat="44.70247" lon="6.96867">
        <ele>2879.91198976</ele>
        <time>2020-02-18T14:57:59.670Z</time>
      </trkpt>
      <trkpt lat="44.70253" lon="6.96858">
        <ele>2877</ele>
        <time>2020-02-18T14:58:02.670Z</time>
      </trkpt>
      <trkpt lat="44.70259" lon="6.96847">
        <ele>2877</ele>
        <time>2020-02-18T14:58:09.670Z</time>
      </trkpt>
      <trkpt lat="44.70252" lon="6.96838">
        <ele>2870.67598848</ele>
        <time>2020-02-18T14:58:21.670Z</time>
      </trkpt>
      <trkpt lat="44.70244" lon="6.96831">
        <ele>2863.47598848</ele>
        <time>2020-02-18T14:58:25.670Z</time>
      </trkpt>
      <trkpt lat="44.70236" lon="6.96823">
        <ele>2856.27598848</ele>
        <time>2020-02-18T14:58:29.670Z</time>
      </trkpt>
      <trkpt lat="44.70231" lon="6.96813">
        <ele>2850.13799424</ele>
        <time>2020-02-18T14:58:34.670Z</time>
      </trkpt>
      <trkpt lat="44.70232" lon="6.96797">
        <ele>2846.53799424</ele>
        <time>2020-02-18T14:58:38.670Z</time>
      </trkpt>
      <trkpt lat="44.70234" lon="6.96782">
        <ele>2843.8021909589</ele>
        <time>2020-02-18T14:58:41.670Z</time>
      </trkpt>
      <trkpt lat="44.7023" lon="6.96765">
        <ele>2841.6043908689</ele>
        <time>2020-02-18T14:58:43.670Z</time>
      </trkpt>
      <trkpt lat="44.70227" lon="6.96751">
        <ele>2839.4065907789</ele>
        <time>2020-02-18T14:58:45.670Z</time>
      </trkpt>
      <trkpt lat="44.70225" lon="6.96739">
        <ele>2837.2087906889</ele>
        <time>2020-02-18T14:58:47.670Z</time>
      </trkpt>
      <trkpt lat="44.70223" lon="6.9672">
        <ele>2833.9120905538</ele>
        <time>2020-02-18T14:58:50.670Z</time>
      </trkpt>
      <trkpt lat="44.70217" lon="6.9671">
        <ele>2832.0480480942</ele>
        <time>2020-02-18T14:58:54.670Z</time>
      </trkpt>
      <trkpt lat="44.70208" lon="6.96705">
        <ele>2829.12799744</ele>
        <time>2020-02-18T14:59:03.670Z</time>
      </trkpt>
      <trkpt lat="44.70208" lon="6.9669">
        <ele>2826.72799744</ele>
        <time>2020-02-18T14:59:09.670Z</time>
      </trkpt>
      <trkpt lat="44.70211" lon="6.96675">
        <ele>2825.9099968</ele>
        <time>2020-02-18T14:59:11.670Z</time>
      </trkpt>
      <trkpt lat="44.70215" lon="6.96657">
        <ele>2824.9099968</ele>
        <time>2020-02-18T14:59:13.670Z</time>
      </trkpt>
      <trkpt lat="44.70219" lon="6.96642">
        <ele>2823.9099968</ele>
        <time>2020-02-18T14:59:15.670Z</time>
      </trkpt>
      <trkpt lat="44.70223" lon="6.96628">
        <ele>2822.9099968</ele>
        <time>2020-02-18T14:59:17.670Z</time>
      </trkpt>
      <trkpt lat="44.70228" lon="6.96616">
        <ele>2821.9099968</ele>
        <time>2020-02-18T14:59:19.670Z</time>
      </trkpt>
      <trkpt lat="44.70234" lon="6.96605">
        <ele>2820.68199936</ele>
        <time>2020-02-18T14:59:24.670Z</time>
      </trkpt>
      <trkpt lat="44.70233" lon="6.96589">
        <ele>2817.6397499891</ele>
        <time>2020-02-18T14:59:52.700Z</time>
      </trkpt>
      <trkpt lat="44.70236" lon="6.96575">
        <ele>2816.824015784</ele>
        <time>2020-02-18T14:59:54.670Z</time>
      </trkpt>
      <trkpt lat="44.70242" lon="6.96564">
        <ele>2815.9958578854</ele>
        <time>2020-02-18T14:59:56.670Z</time>
      </trkpt>
      <trkpt lat="44.70248" lon="6.96538">
        <ele>2814.3643894754</ele>
        <time>2020-02-18T15:00:00.610Z</time>
      </trkpt>
      <trkpt lat="44.70258" lon="6.96528">
        <ele>2811.82198272</ele>
        <time>2020-02-18T15:00:02.700Z</time>
      </trkpt>
      <trkpt lat="44.70265" lon="6.96514">
        <ele>2808.27598848</ele>
        <time>2020-02-18T15:00:04.670Z</time>
      </trkpt>
      <trkpt lat="44.70268" lon="6.96501">
        <ele>2797.47598848</ele>
        <time>2020-02-18T15:00:10.670Z</time>
      </trkpt>
      <trkpt lat="44.70274" lon="6.96491">
        <ele>2794.25599488</ele>
        <time>2020-02-18T15:00:13.670Z</time>
      </trkpt>
      <trkpt lat="44.70273" lon="6.96476">
        <ele>2791.05599488</ele>
        <time>2020-02-18T15:00:17.670Z</time>
      </trkpt>
      <trkpt lat="44.70278" lon="6.96461">
        <ele>2787.76599168</ele>
        <time>2020-02-18T15:00:21.670Z</time>
      </trkpt>
      <trkpt lat="44.70272" lon="6.96448">
        <ele>2782.56599168</ele>
        <time>2020-02-18T15:00:25.670Z</time>
      </trkpt>
      <trkpt lat="44.70263" lon="6.96434">
        <ele>2778.66599168</ele>
        <time>2020-02-18T15:00:28.670Z</time>
      </trkpt>
      <trkpt lat="44.7027" lon="6.96424">
        <ele>2776.06599168</ele>
        <time>2020-02-18T15:00:30.670Z</time>
      </trkpt>
      <trkpt lat="44.70278" lon="6.96412">
        <ele>2773.58399232</ele>
        <time>2020-02-18T15:00:32.670Z</time>
      </trkpt>
      <trkpt lat="44.70284" lon="6.96391">
        <ele>2769.98399232</ele>
        <time>2020-02-18T15:00:35.670Z</time>
      </trkpt>
      <trkpt lat="44.70281" lon="6.96374">
        <ele>2766.38399232</ele>
        <time>2020-02-18T15:00:38.670Z</time>
      </trkpt>
      <trkpt lat="44.7028" lon="6.9636">
        <ele>2761.69199616</ele>
        <time>2020-02-18T15:00:43.670Z</time>
      </trkpt>
      <trkpt lat="44.70271" lon="6.96353">
        <ele>2759.29199616</ele>
        <time>2020-02-18T15:00:47.670Z</time>
      </trkpt>
      <trkpt lat="44.70263" lon="6.96346">
        <ele>2757</ele>
        <time>2020-02-18T15:00:52.670Z</time>
      </trkpt>
      <trkpt lat="44.70253" lon="6.96349">
        <ele>2757</ele>
        <time>2020-02-18T15:01:12.670Z</time>
      </trkpt>
      <trkpt lat="44.70248" lon="6.96338">
        <ele>2755.09199616</ele>
        <time>2020-02-18T15:01:44.670Z</time>
      </trkpt>
      <trkpt lat="44.70251" lon="6.96324">
        <ele>2752.69199616</ele>
        <time>2020-02-18T15:01:48.670Z</time>
      </trkpt>
      <trkpt lat="44.70248" lon="6.96312">
        <ele>2746.6399872</ele>
        <time>2020-02-18T15:01:53.670Z</time>
      </trkpt>
      <trkpt lat="44.70248" lon="6.96297">
        <ele>2736.6399872</ele>
        <time>2020-02-18T15:01:58.670Z</time>
      </trkpt>
      <trkpt lat="44.70248" lon="6.96283">
        <ele>2727.9571206518</ele>
        <time>2020-02-18T15:02:03.670Z</time>
      </trkpt>
      <trkpt lat="44.70256" lon="6.96274">
        <ele>2722.3738721838</ele>
        <time>2020-02-18T15:02:07.670Z</time>
      </trkpt>
      <trkpt lat="44.70264" lon="6.96266">
        <ele>2718.1864358328</ele>
        <time>2020-02-18T15:02:10.670Z</time>
      </trkpt>
      <trkpt lat="44.7027" lon="6.96256">
        <ele>2711.5887603896</ele>
        <time>2020-02-18T15:02:15.670Z</time>
      </trkpt>
      <trkpt lat="44.70265" lon="6.96245">
        <ele>2703.85599488</ele>
        <time>2020-02-18T15:02:21.670Z</time>
      </trkpt>
      <trkpt lat="44.70257" lon="6.96236">
        <ele>2701.45599488</ele>
        <time>2020-02-18T15:02:24.670Z</time>
      </trkpt>
      <trkpt lat="44.70247" lon="6.96227">
        <ele>2698.25599488</ele>
        <time>2020-02-18T15:02:28.670Z</time>
      </trkpt>
      <trkpt lat="44.7024" lon="6.96216">
        <ele>2691.3519399077</ele>
        <time>2020-02-18T15:02:36.670Z</time>
      </trkpt>
      <trkpt lat="44.70229" lon="6.96214">
        <ele>2688.6600165392</ele>
        <time>2020-02-18T15:02:39.670Z</time>
      </trkpt>
      <trkpt lat="44.70227" lon="6.96199">
        <ele>2683.765290035</ele>
        <time>2020-02-18T15:02:43.670Z</time>
      </trkpt>
      <trkpt lat="44.70232" lon="6.96187">
        <ele>2680.756261988</ele>
        <time>2020-02-18T15:02:45.670Z</time>
      </trkpt>
      <trkpt lat="44.70225" lon="6.96177">
        <ele>2676.2427199174</ele>
        <time>2020-02-18T15:02:48.670Z</time>
      </trkpt>
      <trkpt lat="44.70212" lon="6.96168">
        <ele>2671.7562777524</ele>
        <time>2020-02-18T15:02:51.670Z</time>
      </trkpt>
      <trkpt lat="44.70214" lon="6.96151">
        <ele>2667.6943847153</ele>
        <time>2020-02-18T15:02:54.670Z</time>
      </trkpt>
      <trkpt lat="44.70215" lon="6.96137">
        <ele>2664.9864560239</ele>
        <time>2020-02-18T15:02:56.670Z</time>
      </trkpt>
      <trkpt lat="44.70223" lon="6.96118">
        <ele>2662.2785273324</ele>
        <time>2020-02-18T15:02:58.670Z</time>
      </trkpt>
      <trkpt lat="44.70232" lon="6.96104">
        <ele>2659.570598641</ele>
        <time>2020-02-18T15:03:00.670Z</time>
      </trkpt>
      <trkpt lat="44.70239" lon="6.96089">
        <ele>2657.7391302619</ele>
        <time>2020-02-18T15:03:02.670Z</time>
      </trkpt>
      <trkpt lat="44.70248" lon="6.96074">
        <ele>2657.118011838</ele>
        <time>2020-02-18T15:03:04.670Z</time>
      </trkpt>
      <trkpt lat="44.70258" lon="6.96066">
        <ele>2656.1863342021</ele>
        <time>2020-02-18T15:03:07.670Z</time>
      </trkpt>
      <trkpt lat="44.70268" lon="6.96064">
        <ele>2655.2546565662</ele>
        <time>2020-02-18T15:03:10.670Z</time>
      </trkpt>
      <trkpt lat="44.70277" lon="6.96061">
        <ele>2655</ele>
        <time>2020-02-18T15:03:13.670Z</time>
      </trkpt>
      <trkpt lat="44.70246" lon="6.96083">
        <ele>2653.2497471328</ele>
        <time>2020-02-18T15:03:23.670Z</time>
      </trkpt>
      <trkpt lat="44.70236" lon="6.96051">
        <ele>2650.8521439687</ele>
        <time>2020-02-18T15:03:26.670Z</time>
      </trkpt>
      <trkpt lat="44.70227" lon="6.9604">
        <ele>2649.2537418593</ele>
        <time>2020-02-18T15:03:28.670Z</time>
      </trkpt>
      <trkpt lat="44.70219" lon="6.96031">
        <ele>2647.65533975</ele>
        <time>2020-02-18T15:03:30.670Z</time>
      </trkpt>
      <trkpt lat="44.70208" lon="6.9603">
        <ele>2645.11198976</ele>
        <time>2020-02-18T15:03:32.670Z</time>
      </trkpt>
      <trkpt lat="44.70192" lon="6.96016">
        <ele>2640.31198976</ele>
        <time>2020-02-18T15:03:35.670Z</time>
      </trkpt>
      <trkpt lat="44.70186" lon="6.96005">
        <ele>2637.11198976</ele>
        <time>2020-02-18T15:03:37.670Z</time>
      </trkpt>
      <trkpt lat="44.7018" lon="6.95993">
        <ele>2633.91198976</ele>
        <time>2020-02-18T15:03:39.670Z</time>
      </trkpt>
      <trkpt lat="44.70174" lon="6.95983">
        <ele>2630.98199936</ele>
        <time>2020-02-18T15:03:41.670Z</time>
      </trkpt>
      <trkpt lat="44.70166" lon="6.95975">
        <ele>2630.08199936</ele>
        <time>2020-02-18T15:03:50.670Z</time>
      </trkpt>
      <trkpt lat="44.70162" lon="6.95963">
        <ele>2628.32799744</ele>
        <time>2020-02-18T15:03:55.670Z</time>
      </trkpt>
      <trkpt lat="44.70152" lon="6.95969">
        <ele>2626.72799744</ele>
        <time>2020-02-18T15:03:59.670Z</time>
      </trkpt>
      <trkpt lat="44.70144" lon="6.95981">
        <ele>2625.94599808</ele>
        <time>2020-02-18T15:04:01.670Z</time>
      </trkpt>
      <trkpt lat="44.70139" lon="6.95996">
        <ele>2625.04599808</ele>
        <time>2020-02-18T15:04:04.670Z</time>
      </trkpt>
      <trkpt lat="44.70134" lon="6.96008">
        <ele>2623.84599808</ele>
        <time>2020-02-18T15:04:08.670Z</time>
      </trkpt>
      <trkpt lat="44.70137" lon="6.95993">
        <ele>2622.8023883098</ele>
        <time>2020-02-18T15:04:11.670Z</time>
      </trkpt>
      <trkpt lat="44.70138" lon="6.95978">
        <ele>2620.6067809298</ele>
        <time>2020-02-18T15:04:13.670Z</time>
      </trkpt>
      <trkpt lat="44.7014" lon="6.95964">
        <ele>2618.4111735497</ele>
        <time>2020-02-18T15:04:15.670Z</time>
      </trkpt>
      <trkpt lat="44.70136" lon="6.95952">
        <ele>2615.1177624797</ele>
        <time>2020-02-18T15:04:18.670Z</time>
      </trkpt>
      <trkpt lat="44.70126" lon="6.95942">
        <ele>2611.9358717024</ele>
        <time>2020-02-18T15:04:21.670Z</time>
      </trkpt>
      <trkpt lat="44.70116" lon="6.95931">
        <ele>2610.7334661217</ele>
        <time>2020-02-18T15:04:24.670Z</time>
      </trkpt>
      <trkpt lat="44.70113" lon="6.95919">
        <ele>2608</ele>
        <time>2020-02-18T15:04:33.670Z</time>
      </trkpt>
      <trkpt lat="44.70121" lon="6.95911">
        <ele>2606.44599808</ele>
        <time>2020-02-18T15:05:16.670Z</time>
      </trkpt>
      <trkpt lat="44.70113" lon="6.95906">
        <ele>2605.24599808</ele>
        <time>2020-02-18T15:05:20.670Z</time>
      </trkpt>
      <trkpt lat="44.70099" lon="6.95905">
        <ele>2601.94799104</ele>
        <time>2020-02-18T15:05:23.670Z</time>
      </trkpt>
      <trkpt lat="44.70089" lon="6.95903">
        <ele>2599.14799104</ele>
        <time>2020-02-18T15:05:25.670Z</time>
      </trkpt>
      <trkpt lat="44.70086" lon="6.9589">
        <ele>2596.34799104</ele>
        <time>2020-02-18T15:05:27.670Z</time>
      </trkpt>
      <trkpt lat="44.7008" lon="6.95878">
        <ele>2593.54799104</ele>
        <time>2020-02-18T15:05:29.670Z</time>
      </trkpt>
      <trkpt lat="44.70075" lon="6.95864">
        <ele>2590.69398912</ele>
        <time>2020-02-18T15:05:31.670Z</time>
      </trkpt>
      <trkpt lat="44.70064" lon="6.95859">
        <ele>2583.89398912</ele>
        <time>2020-02-18T15:05:35.670Z</time>
      </trkpt>
      <trkpt lat="44.70057" lon="6.95851">
        <ele>2580.49398912</ele>
        <time>2020-02-18T15:05:37.670Z</time>
      </trkpt>
      <trkpt lat="44.7006" lon="6.95835">
        <ele>2575.39398912</ele>
        <time>2020-02-18T15:05:40.670Z</time>
      </trkpt>
      <trkpt lat="44.70056" lon="6.95823">
        <ele>2568.59398912</ele>
        <time>2020-02-18T15:05:44.670Z</time>
      </trkpt>
      <trkpt lat="44.70054" lon="6.95808">
        <ele>2563.49398912</ele>
        <time>2020-02-18T15:05:47.670Z</time>
      </trkpt>
      <trkpt lat="44.70062" lon="6.95793">
        <ele>2558.39398912</ele>
        <time>2020-02-18T15:05:50.670Z</time>
      </trkpt>
      <trkpt lat="44.70069" lon="6.95775">
        <ele>2556.34599808</ele>
        <time>2020-02-18T15:05:53.670Z</time>
      </trkpt>
      <trkpt lat="44.70074" lon="6.95762">
        <ele>2555.74599808</ele>
        <time>2020-02-18T15:05:55.670Z</time>
      </trkpt>
      <trkpt lat="44.70079" lon="6.9575">
        <ele>2555.14599808</ele>
        <time>2020-02-18T15:05:57.670Z</time>
      </trkpt>
      <trkpt lat="44.70086" lon="6.95734">
        <ele>2554.24599808</ele>
        <time>2020-02-18T15:06:00.670Z</time>
      </trkpt>
      <trkpt lat="44.70089" lon="6.95722">
        <ele>2554</ele>
        <time>2020-02-18T15:06:07.670Z</time>
      </trkpt>
      <trkpt lat="44.70078" lon="6.95722">
        <ele>2548.9793322314</ele>
        <time>2020-02-18T15:06:16.670Z</time>
      </trkpt>
      <trkpt lat="44.70067" lon="6.95727">
        <ele>2542.58399232</ele>
        <time>2020-02-18T15:06:22.670Z</time>
      </trkpt>
      <trkpt lat="44.70057" lon="6.9573">
        <ele>2540.18399232</ele>
        <time>2020-02-18T15:06:24.670Z</time>
      </trkpt>
      <trkpt lat="44.70046" lon="6.95734">
        <ele>2536.58399232</ele>
        <time>2020-02-18T15:06:27.670Z</time>
      </trkpt>
      <trkpt lat="44.70033" lon="6.95738">
        <ele>2532.98399232</ele>
        <time>2020-02-18T15:06:30.670Z</time>
      </trkpt>
      <trkpt lat="44.70023" lon="6.95736">
        <ele>2529.60199296</ele>
        <time>2020-02-18T15:06:33.670Z</time>
      </trkpt>
      <trkpt lat="44.70023" lon="6.95722">
        <ele>2524.10199296</ele>
        <time>2020-02-18T15:06:38.670Z</time>
      </trkpt>
      <trkpt lat="44.70026" lon="6.9571">
        <ele>2519.09199616</ele>
        <time>2020-02-18T15:06:44.670Z</time>
      </trkpt>
      <trkpt lat="44.70031" lon="6.95696">
        <ele>2517.29199616</ele>
        <time>2020-02-18T15:06:47.670Z</time>
      </trkpt>
      <trkpt lat="44.70037" lon="6.95683">
        <ele>2515.49199616</ele>
        <time>2020-02-18T15:06:50.670Z</time>
      </trkpt>
      <trkpt lat="44.70027" lon="6.95677">
        <ele>2510.85599488</ele>
        <time>2020-02-18T15:06:56.670Z</time>
      </trkpt>
      <trkpt lat="44.70022" lon="6.95661">
        <ele>2506.89199616</ele>
        <time>2020-02-18T15:07:01.670Z</time>
      </trkpt>
      <trkpt lat="44.70012" lon="6.95652">
        <ele>2505.09199616</ele>
        <time>2020-02-18T15:07:04.670Z</time>
      </trkpt>
      <trkpt lat="44.70005" lon="6.95643">
        <ele>2503.89199616</ele>
        <time>2020-02-18T15:07:06.670Z</time>
      </trkpt>
      <trkpt lat="44.70004" lon="6.95625">
        <ele>2502.09199616</ele>
        <time>2020-02-18T15:07:09.670Z</time>
      </trkpt>
      <trkpt lat="44.70007" lon="6.95611">
        <ele>2500.9099968</ele>
        <time>2020-02-18T15:07:11.670Z</time>
      </trkpt>
      <trkpt lat="44.7001" lon="6.95597">
        <ele>2499.9099968</ele>
        <time>2020-02-18T15:07:13.670Z</time>
      </trkpt>
      <trkpt lat="44.70013" lon="6.95583">
        <ele>2498.4099968</ele>
        <time>2020-02-18T15:07:16.670Z</time>
      </trkpt>
      <trkpt lat="44.70013" lon="6.9557">
        <ele>2496</ele>
        <time>2020-02-18T15:07:23.670Z</time>
      </trkpt>
      <trkpt lat="44.70019" lon="6.95559">
        <ele>2497</ele>
        <time>2020-02-18T15:07:46.670Z</time>
      </trkpt>
      <trkpt lat="44.70026" lon="6.95551">
        <ele>2497.11800064</ele>
        <time>2020-02-18T15:08:22.670Z</time>
      </trkpt>
      <trkpt lat="44.70028" lon="6.95539">
        <ele>2497</ele>
        <time>2020-02-18T15:09:06.670Z</time>
      </trkpt>
      <trkpt lat="44.70027" lon="6.95526">
        <ele>2498</ele>
        <time>2020-02-18T15:10:38.670Z</time>
      </trkpt>
      <trkpt lat="44.70037" lon="6.9552">
        <ele>2497.36390784</ele>
        <time>2020-02-18T15:10:44.670Z</time>
      </trkpt>
      <trkpt lat="44.70047" lon="6.95515">
        <ele>2496.765702647</ele>
        <time>2020-02-18T15:10:47.670Z</time>
      </trkpt>
      <trkpt lat="44.70056" lon="6.9551">
        <ele>2496.167497454</ele>
        <time>2020-02-18T15:10:50.670Z</time>
      </trkpt>
      <trkpt lat="44.70064" lon="6.95501">
        <ele>2495.3507009864</ele>
        <time>2020-02-18T15:10:53.670Z</time>
      </trkpt>
      <trkpt lat="44.70068" lon="6.95487">
        <ele>2494.4488968009</ele>
        <time>2020-02-18T15:10:56.670Z</time>
      </trkpt>
      <trkpt lat="44.70061" lon="6.95475">
        <ele>2493.2464912202</ele>
        <time>2020-02-18T15:11:00.670Z</time>
      </trkpt>
      <trkpt lat="44.70063" lon="6.9546">
        <ele>2491.32799744</ele>
        <time>2020-02-18T15:11:05.670Z</time>
      </trkpt>
      <trkpt lat="44.70073" lon="6.95449">
        <ele>2490.12799744</ele>
        <time>2020-02-18T15:11:08.670Z</time>
      </trkpt>
      <trkpt lat="44.70079" lon="6.95439">
        <ele>2489.32799744</ele>
        <time>2020-02-18T15:11:10.670Z</time>
      </trkpt>
      <trkpt lat="44.70083" lon="6.95427">
        <ele>2485.7299904</ele>
        <time>2020-02-18T15:11:13.670Z</time>
      </trkpt>
      <trkpt lat="44.70065" lon="6.95412">
        <ele>2479.7299904</ele>
        <time>2020-02-18T15:11:17.670Z</time>
      </trkpt>
      <trkpt lat="44.70055" lon="6.95405">
        <ele>2476.7299904</ele>
        <time>2020-02-18T15:11:19.670Z</time>
      </trkpt>
      <trkpt lat="44.70047" lon="6.95398">
        <ele>2473.87399552</ele>
        <time>2020-02-18T15:11:21.670Z</time>
      </trkpt>
      <trkpt lat="44.70039" lon="6.95391">
        <ele>2472.47399552</ele>
        <time>2020-02-18T15:11:23.670Z</time>
      </trkpt>
      <trkpt lat="44.70031" lon="6.95385">
        <ele>2471.07399552</ele>
        <time>2020-02-18T15:11:25.670Z</time>
      </trkpt>
      <trkpt lat="44.70023" lon="6.95379">
        <ele>2469.67399552</ele>
        <time>2020-02-18T15:11:27.670Z</time>
      </trkpt>
      <trkpt lat="44.70011" lon="6.9537">
        <ele>2467.57399552</ele>
        <time>2020-02-18T15:11:30.670Z</time>
      </trkpt>
      <trkpt lat="44.70003" lon="6.95364">
        <ele>2465.5868195853</ele>
        <time>2020-02-18T15:11:32.670Z</time>
      </trkpt>
      <trkpt lat="44.69983" lon="6.95348">
        <ele>2459.5628828341</ele>
        <time>2020-02-18T15:11:37.700Z</time>
      </trkpt>
      <trkpt lat="44.6997" lon="6.95346">
        <ele>2457.2035914069</ele>
        <time>2020-02-18T15:11:39.670Z</time>
      </trkpt>
      <trkpt lat="44.69959" lon="6.9534">
        <ele>2454.8557113303</ele>
        <time>2020-02-18T15:11:41.670Z</time>
      </trkpt>
      <trkpt lat="44.69946" lon="6.95342">
        <ele>2450.3466904027</ele>
        <time>2020-02-18T15:11:46.670Z</time>
      </trkpt>
      <trkpt lat="44.69937" lon="6.95335">
        <ele>2447.6412778461</ele>
        <time>2020-02-18T15:11:49.670Z</time>
      </trkpt>
      <trkpt lat="44.69928" lon="6.95327">
        <ele>2444.69199616</ele>
        <time>2020-02-18T15:11:53.670Z</time>
      </trkpt>
      <trkpt lat="44.69932" lon="6.95311">
        <ele>2442.29199616</ele>
        <time>2020-02-18T15:11:57.670Z</time>
      </trkpt>
      <trkpt lat="44.69937" lon="6.953">
        <ele>2438.69199616</ele>
        <time>2020-02-18T15:12:03.670Z</time>
      </trkpt>
      <trkpt lat="44.6994" lon="6.95286">
        <ele>2436.29199616</ele>
        <time>2020-02-18T15:12:07.670Z</time>
      </trkpt>
      <trkpt lat="44.6994" lon="6.95273">
        <ele>2433.64599808</ele>
        <time>2020-02-18T15:12:12.670Z</time>
      </trkpt>
      <trkpt lat="44.69937" lon="6.95259">
        <ele>2430.7910952163</ele>
        <time>2020-02-18T15:12:21.670Z</time>
      </trkpt>
      <trkpt lat="44.69932" lon="6.95248">
        <ele>2426.1489317453</ele>
        <time>2020-02-18T15:12:25.670Z</time>
      </trkpt>
      <trkpt lat="44.69928" lon="6.95236">
        <ele>2422.6673091421</ele>
        <time>2020-02-18T15:12:28.670Z</time>
      </trkpt>
      <trkpt lat="44.69926" lon="6.95221">
        <ele>2419.1856865388</ele>
        <time>2020-02-18T15:12:31.670Z</time>
      </trkpt>
      <trkpt lat="44.69919" lon="6.95213">
        <ele>2414.1133603239</ele>
        <time>2020-02-18T15:12:34.670Z</time>
      </trkpt>
      <trkpt lat="44.69909" lon="6.95206">
        <ele>2408.9514170041</ele>
        <time>2020-02-18T15:12:37.670Z</time>
      </trkpt>
      <trkpt lat="44.6991" lon="6.9519">
        <ele>2403.7894736842</ele>
        <time>2020-02-18T15:12:40.670Z</time>
      </trkpt>
      <trkpt lat="44.699" lon="6.95177">
        <ele>2399.343530375</ele>
        <time>2020-02-18T15:12:44.700Z</time>
      </trkpt>
      <trkpt lat="44.69891" lon="6.95171">
        <ele>2396.7048354448</ele>
        <time>2020-02-18T15:12:47.670Z</time>
      </trkpt>
      <trkpt lat="44.6989" lon="6.95154">
        <ele>2394.9279345873</ele>
        <time>2020-02-18T15:12:49.670Z</time>
      </trkpt>
      <trkpt lat="44.6989" lon="6.95135">
        <ele>2393.1510337298</ele>
        <time>2020-02-18T15:12:51.670Z</time>
      </trkpt>
      <trkpt lat="44.69895" lon="6.95117">
        <ele>2392.7129536043</ele>
        <time>2020-02-18T15:12:54.610Z</time>
      </trkpt>
      <trkpt lat="44.69902" lon="6.95107">
        <ele>2392.3958543903</ele>
        <time>2020-02-18T15:12:57.670Z</time>
      </trkpt>
      <trkpt lat="44.69901" lon="6.95093">
        <ele>2392.28199936</ele>
        <time>2020-02-18T15:13:38.670Z</time>
      </trkpt>
      <trkpt lat="44.69895" lon="6.95083">
        <ele>2391.52799744</ele>
        <time>2020-02-18T15:13:42.670Z</time>
      </trkpt>
      <trkpt lat="44.69887" lon="6.95076">
        <ele>2387</ele>
        <time>2020-02-18T15:14:45.670Z</time>
      </trkpt>
      <trkpt lat="44.69882" lon="6.95065">
        <ele>2387.29199616</ele>
        <time>2020-02-18T15:15:02.670Z</time>
      </trkpt>
      <trkpt lat="44.69878" lon="6.95053">
        <ele>2383.69199616</ele>
        <time>2020-02-18T15:15:08.670Z</time>
      </trkpt>
      <trkpt lat="44.69874" lon="6.95037">
        <ele>2380.2299904</ele>
        <time>2020-02-18T15:15:12.670Z</time>
      </trkpt>
      <trkpt lat="44.6987" lon="6.95024">
        <ele>2374.2299904</ele>
        <time>2020-02-18T15:15:16.670Z</time>
      </trkpt>
      <trkpt lat="44.69866" lon="6.95011">
        <ele>2366.05599488</ele>
        <time>2020-02-18T15:15:22.670Z</time>
      </trkpt>
      <trkpt lat="44.69866" lon="6.94996">
        <ele>2363.65599488</ele>
        <time>2020-02-18T15:15:25.670Z</time>
      </trkpt>
      <trkpt lat="44.69875" lon="6.94982">
        <ele>2361.25599488</ele>
        <time>2020-02-18T15:15:28.670Z</time>
      </trkpt>
      <trkpt lat="44.69882" lon="6.94973">
        <ele>2359.65599488</ele>
        <time>2020-02-18T15:15:30.670Z</time>
      </trkpt>
      <trkpt lat="44.69872" lon="6.9497">
        <ele>2358</ele>
        <time>2020-02-18T15:15:46.670Z</time>
      </trkpt>
      <trkpt lat="44.69861" lon="6.9497">
        <ele>2348.9282128245</ele>
        <time>2020-02-18T15:16:01.670Z</time>
      </trkpt>
      <trkpt lat="44.69853" lon="6.94958">
        <ele>2347.7318024385</ele>
        <time>2020-02-18T15:16:04.670Z</time>
      </trkpt>
      <trkpt lat="44.69842" lon="6.94956">
        <ele>2346.5353920525</ele>
        <time>2020-02-18T15:16:07.670Z</time>
      </trkpt>
      <trkpt lat="44.69832" lon="6.94958">
        <ele>2345.3389816665</ele>
        <time>2020-02-18T15:16:10.670Z</time>
      </trkpt>
      <trkpt lat="44.69822" lon="6.94962">
        <ele>2344.6840517341</ele>
        <time>2020-02-18T15:16:14.670Z</time>
      </trkpt>
      <trkpt lat="44.69811" lon="6.94962">
        <ele>2344.2828479945</ele>
        <time>2020-02-18T15:16:18.670Z</time>
      </trkpt>
      <trkpt lat="44.69815" lon="6.94947">
        <ele>2343.87399552</ele>
        <time>2020-02-18T15:16:21.670Z</time>
      </trkpt>
      <trkpt lat="44.69825" lon="6.94933">
        <ele>2341.77399552</ele>
        <time>2020-02-18T15:16:24.670Z</time>
      </trkpt>
      <trkpt lat="44.69833" lon="6.94924">
        <ele>2340.37399552</ele>
        <time>2020-02-18T15:16:26.670Z</time>
      </trkpt>
      <trkpt lat="44.69841" lon="6.94916">
        <ele>2338.97399552</ele>
        <time>2020-02-18T15:16:28.670Z</time>
      </trkpt>
      <trkpt lat="44.69852" lon="6.94906">
        <ele>2336.98199936</ele>
        <time>2020-02-18T15:16:31.670Z</time>
      </trkpt>
      <trkpt lat="44.6986" lon="6.94901">
        <ele>2336.08199936</ele>
        <time>2020-02-18T15:16:40.670Z</time>
      </trkpt>
      <trkpt lat="44.69871" lon="6.94896">
        <ele>2336</ele>
        <time>2020-02-18T15:16:47.670Z</time>
      </trkpt>
      <trkpt lat="44.69881" lon="6.94889">
        <ele>2336</ele>
        <time>2020-02-18T15:16:50.670Z</time>
      </trkpt>
      <trkpt lat="44.69888" lon="6.9488">
        <ele>2330.56599168</ele>
        <time>2020-02-18T15:16:55.670Z</time>
      </trkpt>
      <trkpt lat="44.69894" lon="6.94868">
        <ele>2324.06599168</ele>
        <time>2020-02-18T15:17:00.670Z</time>
      </trkpt>
      <trkpt lat="44.69902" lon="6.9486">
        <ele>2321.9099968</ele>
        <time>2020-02-18T15:17:03.670Z</time>
      </trkpt>
      <trkpt lat="44.69909" lon="6.94852">
        <ele>2320.4099968</ele>
        <time>2020-02-18T15:17:06.670Z</time>
      </trkpt>
      <trkpt lat="44.69907" lon="6.94837">
        <ele>2314.37399552</ele>
        <time>2020-02-18T15:17:16.670Z</time>
      </trkpt>
      <trkpt lat="44.69913" lon="6.94825">
        <ele>2311.57399552</ele>
        <time>2020-02-18T15:17:20.670Z</time>
      </trkpt>
      <trkpt lat="44.6991" lon="6.94813">
        <ele>2310.36399872</ele>
        <time>2020-02-18T15:17:24.670Z</time>
      </trkpt>
      <trkpt lat="44.69911" lon="6.948">
        <ele>2303.64599808</ele>
        <time>2020-02-18T15:17:42.670Z</time>
      </trkpt>
      <trkpt lat="44.69902" lon="6.94799">
        <ele>2300.89199616</ele>
        <time>2020-02-18T15:17:51.670Z</time>
      </trkpt>
      <trkpt lat="44.69897" lon="6.94786">
        <ele>2294.8562824072</ele>
        <time>2020-02-18T15:18:01.670Z</time>
      </trkpt>
      <trkpt lat="44.69892" lon="6.94774">
        <ele>2290.0658663052</ele>
        <time>2020-02-18T15:18:07.670Z</time>
      </trkpt>
      <trkpt lat="44.69884" lon="6.94767">
        <ele>2279.6573099205</ele>
        <time>2020-02-18T15:18:20.670Z</time>
      </trkpt>
      <trkpt lat="44.69883" lon="6.9475">
        <ele>2277.9132573756</ele>
        <time>2020-02-18T15:18:23.670Z</time>
      </trkpt>
      <trkpt lat="44.69885" lon="6.94734">
        <ele>2276.4177443931</ele>
        <time>2020-02-18T15:18:26.670Z</time>
      </trkpt>
      <trkpt lat="44.69875" lon="6.94733">
        <ele>2273.8846536039</ele>
        <time>2020-02-18T15:18:32.670Z</time>
      </trkpt>
      <trkpt lat="44.69868" lon="6.94742">
        <ele>2273.4834498643</ele>
        <time>2020-02-18T15:18:36.670Z</time>
      </trkpt>
      <trkpt lat="44.69862" lon="6.94754">
        <ele>2273</ele>
        <time>2020-02-18T15:18:49.670Z</time>
      </trkpt>
      <trkpt lat="44.69854" lon="6.94759">
        <ele>2272.1209951977</ele>
        <time>2020-02-18T15:18:52.670Z</time>
      </trkpt>
      <trkpt lat="44.69844" lon="6.94765">
        <ele>2269.0186136276</ele>
        <time>2020-02-18T15:18:55.670Z</time>
      </trkpt>
      <trkpt lat="44.69832" lon="6.94769">
        <ele>2265.9162320575</ele>
        <time>2020-02-18T15:18:58.670Z</time>
      </trkpt>
      <trkpt lat="44.6983" lon="6.94755">
        <ele>2261.09199616</ele>
        <time>2020-02-18T15:19:04.670Z</time>
      </trkpt>
      <trkpt lat="44.69821" lon="6.94752">
        <ele>2258.09199616</ele>
        <time>2020-02-18T15:19:09.670Z</time>
      </trkpt>
      <trkpt lat="44.69812" lon="6.94757">
        <ele>2256.52799744</ele>
        <time>2020-02-18T15:19:12.670Z</time>
      </trkpt>
      <trkpt lat="44.69815" lon="6.9474">
        <ele>2253.32799744</ele>
        <time>2020-02-18T15:19:20.670Z</time>
      </trkpt>
      <trkpt lat="44.6982" lon="6.94729">
        <ele>2252.64599808</ele>
        <time>2020-02-18T15:19:22.670Z</time>
      </trkpt>
      <trkpt lat="44.69826" lon="6.94717">
        <ele>2252.04599808</ele>
        <time>2020-02-18T15:19:24.670Z</time>
      </trkpt>
      <trkpt lat="44.69831" lon="6.94706">
        <ele>2251.44599808</ele>
        <time>2020-02-18T15:19:26.670Z</time>
      </trkpt>
      <trkpt lat="44.69838" lon="6.9469">
        <ele>2250.54599808</ele>
        <time>2020-02-18T15:19:29.670Z</time>
      </trkpt>
      <trkpt lat="44.69844" lon="6.94674">
        <ele>2249.4099968</ele>
        <time>2020-02-18T15:19:32.670Z</time>
      </trkpt>
      <trkpt lat="44.69849" lon="6.94663">
        <ele>2248.4099968</ele>
        <time>2020-02-18T15:19:34.670Z</time>
      </trkpt>
      <trkpt lat="44.69855" lon="6.94649">
        <ele>2247.4099968</ele>
        <time>2020-02-18T15:19:36.670Z</time>
      </trkpt>
      <trkpt lat="44.69864" lon="6.94635">
        <ele>2246.4099968</ele>
        <time>2020-02-18T15:19:38.670Z</time>
      </trkpt>
      <trkpt lat="44.69874" lon="6.94623">
        <ele>2245.4099968</ele>
        <time>2020-02-18T15:19:40.670Z</time>
      </trkpt>
      <trkpt lat="44.69887" lon="6.94611">
        <ele>2244.17399552</ele>
        <time>2020-02-18T15:19:42.670Z</time>
      </trkpt>
      <trkpt lat="44.69901" lon="6.946">
        <ele>2242.77399552</ele>
        <time>2020-02-18T15:19:44.670Z</time>
      </trkpt>
      <trkpt lat="44.6991" lon="6.94595">
        <ele>2242.07399552</ele>
        <time>2020-02-18T15:19:45.670Z</time>
      </trkpt>
      <trkpt lat="44.69926" lon="6.94586">
        <ele>2240.67399552</ele>
        <time>2020-02-18T15:19:47.670Z</time>
      </trkpt>
      <trkpt lat="44.69942" lon="6.94578">
        <ele>2239.27399552</ele>
        <time>2020-02-18T15:19:49.670Z</time>
      </trkpt>
      <trkpt lat="44.69954" lon="6.94565">
        <ele>2237.83799424</ele>
        <time>2020-02-18T15:19:51.670Z</time>
      </trkpt>
      <trkpt lat="44.69958" lon="6.9455">
        <ele>2236.03799424</ele>
        <time>2020-02-18T15:19:53.670Z</time>
      </trkpt>
      <trkpt lat="44.6996" lon="6.94533">
        <ele>2234.23799424</ele>
        <time>2020-02-18T15:19:55.670Z</time>
      </trkpt>
      <trkpt lat="44.69962" lon="6.94515">
        <ele>2232.43799424</ele>
        <time>2020-02-18T15:19:57.670Z</time>
      </trkpt>
      <trkpt lat="44.69965" lon="6.94497">
        <ele>2230.63799424</ele>
        <time>2020-02-18T15:19:59.670Z</time>
      </trkpt>
      <trkpt lat="44.69969" lon="6.94479">
        <ele>2228.9099968</ele>
        <time>2020-02-18T15:20:01.670Z</time>
      </trkpt>
      <trkpt lat="44.69972" lon="6.94461">
        <ele>2227.9099968</ele>
        <time>2020-02-18T15:20:03.670Z</time>
      </trkpt>
      <trkpt lat="44.69974" lon="6.94443">
        <ele>2226.9099968</ele>
        <time>2020-02-18T15:20:05.670Z</time>
      </trkpt>
      <trkpt lat="44.69976" lon="6.94422">
        <ele>2225.9099968</ele>
        <time>2020-02-18T15:20:07.670Z</time>
      </trkpt>
      <trkpt lat="44.69979" lon="6.94399">
        <ele>2224.9099968</ele>
        <time>2020-02-18T15:20:09.670Z</time>
      </trkpt>
      <trkpt lat="44.69986" lon="6.94376">
        <ele>2223.85599488</ele>
        <time>2020-02-18T15:20:11.670Z</time>
      </trkpt>
      <trkpt lat="44.6999" lon="6.94365">
        <ele>2223.05599488</ele>
        <time>2020-02-18T15:20:12.670Z</time>
      </trkpt>
      <trkpt lat="44.69995" lon="6.94353">
        <ele>2222.25599488</ele>
        <time>2020-02-18T15:20:13.670Z</time>
      </trkpt>
      <trkpt lat="44.69999" lon="6.9434">
        <ele>2221.45599488</ele>
        <time>2020-02-18T15:20:14.670Z</time>
      </trkpt>
      <trkpt lat="44.70003" lon="6.94327">
        <ele>2220.65599488</ele>
        <time>2020-02-18T15:20:15.670Z</time>
      </trkpt>
      <trkpt lat="44.70006" lon="6.94314">
        <ele>2219.85599488</ele>
        <time>2020-02-18T15:20:16.670Z</time>
      </trkpt>
      <trkpt lat="44.70009" lon="6.943">
        <ele>2219.05599488</ele>
        <time>2020-02-18T15:20:17.670Z</time>
      </trkpt>
      <trkpt lat="44.70011" lon="6.94287">
        <ele>2218.25599488</ele>
        <time>2020-02-18T15:20:18.670Z</time>
      </trkpt>
      <trkpt lat="44.70013" lon="6.94273">
        <ele>2217.45599488</ele>
        <time>2020-02-18T15:20:19.670Z</time>
      </trkpt>
      <trkpt lat="44.70015" lon="6.9426">
        <ele>2216.65599488</ele>
        <time>2020-02-18T15:20:20.670Z</time>
      </trkpt>
      <trkpt lat="44.70016" lon="6.94246">
        <ele>2216</ele>
        <time>2020-02-18T15:20:21.670Z</time>
      </trkpt>
      <trkpt lat="44.70018" lon="6.94233">
        <ele>2216</ele>
        <time>2020-02-18T15:20:22.670Z</time>
      </trkpt>
      <trkpt lat="44.70018" lon="6.9422">
        <ele>2216</ele>
        <time>2020-02-18T15:20:23.670Z</time>
      </trkpt>
      <trkpt lat="44.70019" lon="6.94207">
        <ele>2216</ele>
        <time>2020-02-18T15:20:24.670Z</time>
      </trkpt>
      <trkpt lat="44.70022" lon="6.94183">
        <ele>2216</ele>
        <time>2020-02-18T15:20:26.670Z</time>
      </trkpt>
      <trkpt lat="44.70026" lon="6.94164">
        <ele>2216</ele>
        <time>2020-02-18T15:20:28.670Z</time>
      </trkpt>
      <trkpt lat="44.70029" lon="6.94152">
        <ele>2216</ele>
        <time>2020-02-18T15:20:30.670Z</time>
      </trkpt>
      <trkpt lat="44.70033" lon="6.94139">
        <ele>2215.88199936</ele>
        <time>2020-02-18T15:20:32.670Z</time>
      </trkpt>
      <trkpt lat="44.70038" lon="6.94121">
        <ele>2215.58199936</ele>
        <time>2020-02-18T15:20:35.670Z</time>
      </trkpt>
      <trkpt lat="44.70043" lon="6.9411">
        <ele>2215.38199936</ele>
        <time>2020-02-18T15:20:37.670Z</time>
      </trkpt>
      <trkpt lat="44.70048" lon="6.94099">
        <ele>2215.18199936</ele>
        <time>2020-02-18T15:20:39.670Z</time>
      </trkpt>
      <trkpt lat="44.70055" lon="6.94083">
        <ele>2214.29199616</ele>
        <time>2020-02-18T15:20:42.670Z</time>
      </trkpt>
      <trkpt lat="44.7006" lon="6.9407">
        <ele>2213.09199616</ele>
        <time>2020-02-18T15:20:44.670Z</time>
      </trkpt>
      <trkpt lat="44.70066" lon="6.94056">
        <ele>2211.89199616</ele>
        <time>2020-02-18T15:20:46.670Z</time>
      </trkpt>
      <trkpt lat="44.70073" lon="6.94039">
        <ele>2210.69199616</ele>
        <time>2020-02-18T15:20:48.670Z</time>
      </trkpt>
      <trkpt lat="44.70081" lon="6.94019">
        <ele>2209.49199616</ele>
        <time>2020-02-18T15:20:50.670Z</time>
      </trkpt>
      <trkpt lat="44.70089" lon="6.93998">
        <ele>2207.46599168</ele>
        <time>2020-02-18T15:20:52.670Z</time>
      </trkpt>
      <trkpt lat="44.70094" lon="6.93987">
        <ele>2206.16599168</ele>
        <time>2020-02-18T15:20:53.670Z</time>
      </trkpt>
      <trkpt lat="44.70098" lon="6.93974">
        <ele>2204.86599168</ele>
        <time>2020-02-18T15:20:54.670Z</time>
      </trkpt>
      <trkpt lat="44.70104" lon="6.93962">
        <ele>2203.56599168</ele>
        <time>2020-02-18T15:20:55.670Z</time>
      </trkpt>
      <trkpt lat="44.70109" lon="6.9395">
        <ele>2202.26599168</ele>
        <time>2020-02-18T15:20:56.670Z</time>
      </trkpt>
      <trkpt lat="44.70115" lon="6.93939">
        <ele>2200.96599168</ele>
        <time>2020-02-18T15:20:57.670Z</time>
      </trkpt>
      <trkpt lat="44.70122" lon="6.93928">
        <ele>2199.66599168</ele>
        <time>2020-02-18T15:20:58.670Z</time>
      </trkpt>
      <trkpt lat="44.7013" lon="6.93917">
        <ele>2198.36599168</ele>
        <time>2020-02-18T15:20:59.670Z</time>
      </trkpt>
      <trkpt lat="44.70138" lon="6.93907">
        <ele>2197.06599168</ele>
        <time>2020-02-18T15:21:00.670Z</time>
      </trkpt>
      <trkpt lat="44.70147" lon="6.93897">
        <ele>2195.83799424</ele>
        <time>2020-02-18T15:21:01.670Z</time>
      </trkpt>
      <trkpt lat="44.70156" lon="6.93888">
        <ele>2194.93799424</ele>
        <time>2020-02-18T15:21:02.670Z</time>
      </trkpt>
      <trkpt lat="44.70165" lon="6.93877">
        <ele>2194.03799424</ele>
        <time>2020-02-18T15:21:03.670Z</time>
      </trkpt>
      <trkpt lat="44.70173" lon="6.93867">
        <ele>2193.13799424</ele>
        <time>2020-02-18T15:21:04.670Z</time>
      </trkpt>
      <trkpt lat="44.7018" lon="6.93855">
        <ele>2192.23799424</ele>
        <time>2020-02-18T15:21:05.670Z</time>
      </trkpt>
      <trkpt lat="44.70186" lon="6.93843">
        <ele>2191.33799424</ele>
        <time>2020-02-18T15:21:06.670Z</time>
      </trkpt>
      <trkpt lat="44.70192" lon="6.93832">
        <ele>2190.43799424</ele>
        <time>2020-02-18T15:21:07.670Z</time>
      </trkpt>
      <trkpt lat="44.70199" lon="6.9382">
        <ele>2189.53799424</ele>
        <time>2020-02-18T15:21:08.670Z</time>
      </trkpt>
      <trkpt lat="44.70206" lon="6.93809">
        <ele>2188.63799424</ele>
        <time>2020-02-18T15:21:09.670Z</time>
      </trkpt>
      <trkpt lat="44.70214" lon="6.93797">
        <ele>2187.73799424</ele>
        <time>2020-02-18T15:21:10.670Z</time>
      </trkpt>
      <trkpt lat="44.70221" lon="6.93786">
        <ele>2186.85599488</ele>
        <time>2020-02-18T15:21:11.670Z</time>
      </trkpt>
      <trkpt lat="44.70229" lon="6.93776">
        <ele>2186.05599488</ele>
        <time>2020-02-18T15:21:12.670Z</time>
      </trkpt>
      <trkpt lat="44.70236" lon="6.93765">
        <ele>2185.25599488</ele>
        <time>2020-02-18T15:21:13.670Z</time>
      </trkpt>
      <trkpt lat="44.70243" lon="6.93754">
        <ele>2184.45599488</ele>
        <time>2020-02-18T15:21:14.670Z</time>
      </trkpt>
      <trkpt lat="44.7025" lon="6.93743">
        <ele>2183.65599488</ele>
        <time>2020-02-18T15:21:15.670Z</time>
      </trkpt>
      <trkpt lat="44.70258" lon="6.93732">
        <ele>2182.85599488</ele>
        <time>2020-02-18T15:21:16.670Z</time>
      </trkpt>
      <trkpt lat="44.70265" lon="6.93722">
        <ele>2182.05599488</ele>
        <time>2020-02-18T15:21:17.670Z</time>
      </trkpt>
      <trkpt lat="44.70273" lon="6.93712">
        <ele>2181.25599488</ele>
        <time>2020-02-18T15:21:18.670Z</time>
      </trkpt>
      <trkpt lat="44.7028" lon="6.93702">
        <ele>2180.45599488</ele>
        <time>2020-02-18T15:21:19.670Z</time>
      </trkpt>
      <trkpt lat="44.70288" lon="6.93691">
        <ele>2179.65599488</ele>
        <time>2020-02-18T15:21:20.670Z</time>
      </trkpt>
      <trkpt lat="44.70294" lon="6.93681">
        <ele>2178.83799424</ele>
        <time>2020-02-18T15:21:21.670Z</time>
      </trkpt>
      <trkpt lat="44.70301" lon="6.93671">
        <ele>2177.93799424</ele>
        <time>2020-02-18T15:21:22.670Z</time>
      </trkpt>
      <trkpt lat="44.70308" lon="6.93661">
        <ele>2177.03799424</ele>
        <time>2020-02-18T15:21:23.670Z</time>
      </trkpt>
      <trkpt lat="44.70315" lon="6.93652">
        <ele>2176.13799424</ele>
        <time>2020-02-18T15:21:24.670Z</time>
      </trkpt>
      <trkpt lat="44.70322" lon="6.93642">
        <ele>2175.23799424</ele>
        <time>2020-02-18T15:21:25.670Z</time>
      </trkpt>
      <trkpt lat="44.70328" lon="6.93632">
        <ele>2174.33799424</ele>
        <time>2020-02-18T15:21:26.670Z</time>
      </trkpt>
      <trkpt lat="44.70335" lon="6.93621">
        <ele>2173.43799424</ele>
        <time>2020-02-18T15:21:27.670Z</time>
      </trkpt>
      <trkpt lat="44.7034" lon="6.93609">
        <ele>2172.53799424</ele>
        <time>2020-02-18T15:21:28.670Z</time>
      </trkpt>
      <trkpt lat="44.70345" lon="6.93598">
        <ele>2171.63799424</ele>
        <time>2020-02-18T15:21:29.670Z</time>
      </trkpt>
      <trkpt lat="44.7035" lon="6.93587">
        <ele>2170.73799424</ele>
        <time>2020-02-18T15:21:30.670Z</time>
      </trkpt>
      <trkpt lat="44.70355" lon="6.93575">
        <ele>2169.87399552</ele>
        <time>2020-02-18T15:21:31.670Z</time>
      </trkpt>
      <trkpt lat="44.70359" lon="6.93562">
        <ele>2169.17399552</ele>
        <time>2020-02-18T15:21:32.670Z</time>
      </trkpt>
      <trkpt lat="44.70363" lon="6.9355">
        <ele>2168.47399552</ele>
        <time>2020-02-18T15:21:33.670Z</time>
      </trkpt>
      <trkpt lat="44.70367" lon="6.93537">
        <ele>2167.77399552</ele>
        <time>2020-02-18T15:21:34.670Z</time>
      </trkpt>
      <trkpt lat="44.7037" lon="6.93525">
        <ele>2167.07399552</ele>
        <time>2020-02-18T15:21:35.670Z</time>
      </trkpt>
      <trkpt lat="44.70375" lon="6.93503">
        <ele>2165.67399552</ele>
        <time>2020-02-18T15:21:37.670Z</time>
      </trkpt>
      <trkpt lat="44.70379" lon="6.9348">
        <ele>2164.27399552</ele>
        <time>2020-02-18T15:21:39.670Z</time>
      </trkpt>
      <trkpt lat="44.70385" lon="6.93457">
        <ele>2162.8199936</ele>
        <time>2020-02-18T15:21:41.670Z</time>
      </trkpt>
      <trkpt lat="44.70394" lon="6.93437">
        <ele>2160.8199936</ele>
        <time>2020-02-18T15:21:43.670Z</time>
      </trkpt>
      <trkpt lat="44.70405" lon="6.93416">
        <ele>2158.8199936</ele>
        <time>2020-02-18T15:21:45.670Z</time>
      </trkpt>
      <trkpt lat="44.7041" lon="6.93405">
        <ele>2157.8199936</ele>
        <time>2020-02-18T15:21:46.670Z</time>
      </trkpt>
      <trkpt lat="44.70415" lon="6.93394">
        <ele>2156.8199936</ele>
        <time>2020-02-18T15:21:47.670Z</time>
      </trkpt>
      <trkpt lat="44.70421" lon="6.93383">
        <ele>2155.8199936</ele>
        <time>2020-02-18T15:21:48.670Z</time>
      </trkpt>
      <trkpt lat="44.70426" lon="6.93371">
        <ele>2154.8199936</ele>
        <time>2020-02-18T15:21:49.670Z</time>
      </trkpt>
      <trkpt lat="44.70431" lon="6.9336">
        <ele>2153.8199936</ele>
        <time>2020-02-18T15:21:50.670Z</time>
      </trkpt>
      <trkpt lat="44.70436" lon="6.93348">
        <ele>2152.8780209459</ele>
        <time>2020-02-18T15:21:51.670Z</time>
      </trkpt>
      <trkpt lat="44.70441" lon="6.93336">
        <ele>2152.2003836279</ele>
        <time>2020-02-18T15:21:52.670Z</time>
      </trkpt>
      <trkpt lat="44.70446" lon="6.93324">
        <ele>2151.5227463099</ele>
        <time>2020-02-18T15:21:53.670Z</time>
      </trkpt>
      <trkpt lat="44.70451" lon="6.93311">
        <ele>2150.845108992</ele>
        <time>2020-02-18T15:21:54.670Z</time>
      </trkpt>
      <trkpt lat="44.70455" lon="6.93299">
        <ele>2150.167471674</ele>
        <time>2020-02-18T15:21:55.670Z</time>
      </trkpt>
      <trkpt lat="44.7046" lon="6.93287">
        <ele>2149.489834356</ele>
        <time>2020-02-18T15:21:56.670Z</time>
      </trkpt>
      <trkpt lat="44.70465" lon="6.93277">
        <ele>2148.812197038</ele>
        <time>2020-02-18T15:21:57.670Z</time>
      </trkpt>
      <trkpt lat="44.70471" lon="6.93265">
        <ele>2148.1345597201</ele>
        <time>2020-02-18T15:21:58.670Z</time>
      </trkpt>
      <trkpt lat="44.70478" lon="6.93253">
        <ele>2147.4569224021</ele>
        <time>2020-02-18T15:21:59.670Z</time>
      </trkpt>
      <trkpt lat="44.70484" lon="6.93241">
        <ele>2146.7792850841</ele>
        <time>2020-02-18T15:22:00.670Z</time>
      </trkpt>
      <trkpt lat="44.7049" lon="6.93229">
        <ele>2146.1016477661</ele>
        <time>2020-02-18T15:22:01.670Z</time>
      </trkpt>
      <trkpt lat="44.70495" lon="6.93217">
        <ele>2145.2967961581</ele>
        <time>2020-02-18T15:22:02.670Z</time>
      </trkpt>
      <trkpt lat="44.70501" lon="6.93205">
        <ele>2144.4694944061</ele>
        <time>2020-02-18T15:22:03.670Z</time>
      </trkpt>
      <trkpt lat="44.70507" lon="6.93192">
        <ele>2143.6421926541</ele>
        <time>2020-02-18T15:22:04.670Z</time>
      </trkpt>
      <trkpt lat="44.70514" lon="6.93181">
        <ele>2142.8148909021</ele>
        <time>2020-02-18T15:22:05.670Z</time>
      </trkpt>
      <trkpt lat="44.70521" lon="6.93172">
        <ele>2141.98758915</ele>
        <time>2020-02-18T15:22:06.670Z</time>
      </trkpt>
      <trkpt lat="44.70529" lon="6.93164">
        <ele>2141.160287398</ele>
        <time>2020-02-18T15:22:07.670Z</time>
      </trkpt>
      <trkpt lat="44.70538" lon="6.93156">
        <ele>2140.332985646</ele>
        <time>2020-02-18T15:22:08.670Z</time>
      </trkpt>
      <trkpt lat="44.70546" lon="6.93148">
        <ele>2139.505683894</ele>
        <time>2020-02-18T15:22:09.670Z</time>
      </trkpt>
      <trkpt lat="44.70553" lon="6.93139">
        <ele>2138.6701117718</ele>
        <time>2020-02-18T15:22:10.680Z</time>
      </trkpt>
      <trkpt lat="44.7056" lon="6.93128">
        <ele>2137.89199616</ele>
        <time>2020-02-18T15:22:11.670Z</time>
      </trkpt>
      <trkpt lat="44.70566" lon="6.93117">
        <ele>2137.29199616</ele>
        <time>2020-02-18T15:22:12.670Z</time>
      </trkpt>
      <trkpt lat="44.70571" lon="6.93106">
        <ele>2136.69199616</ele>
        <time>2020-02-18T15:22:13.670Z</time>
      </trkpt>
      <trkpt lat="44.70576" lon="6.93093">
        <ele>2136.09199616</ele>
        <time>2020-02-18T15:22:14.670Z</time>
      </trkpt>
      <trkpt lat="44.7058" lon="6.9308">
        <ele>2135.49199616</ele>
        <time>2020-02-18T15:22:15.670Z</time>
      </trkpt>
      <trkpt lat="44.70585" lon="6.93067">
        <ele>2134.89199616</ele>
        <time>2020-02-18T15:22:16.670Z</time>
      </trkpt>
      <trkpt lat="44.70589" lon="6.93055">
        <ele>2134.29199616</ele>
        <time>2020-02-18T15:22:17.670Z</time>
      </trkpt>
      <trkpt lat="44.70593" lon="6.93042">
        <ele>2133.69199616</ele>
        <time>2020-02-18T15:22:18.670Z</time>
      </trkpt>
      <trkpt lat="44.70597" lon="6.9303">
        <ele>2133.09199616</ele>
        <time>2020-02-18T15:22:19.670Z</time>
      </trkpt>
      <trkpt lat="44.70601" lon="6.93018">
        <ele>2132.49199616</ele>
        <time>2020-02-18T15:22:20.670Z</time>
      </trkpt>
      <trkpt lat="44.70605" lon="6.93006">
        <ele>2131.9099968</ele>
        <time>2020-02-18T15:22:21.670Z</time>
      </trkpt>
      <trkpt lat="44.70609" lon="6.92994">
        <ele>2131.4099968</ele>
        <time>2020-02-18T15:22:22.670Z</time>
      </trkpt>
      <trkpt lat="44.70618" lon="6.92973">
        <ele>2130.4099968</ele>
        <time>2020-02-18T15:22:24.670Z</time>
      </trkpt>
      <trkpt lat="44.70627" lon="6.92953">
        <ele>2129.4099968</ele>
        <time>2020-02-18T15:22:26.670Z</time>
      </trkpt>
      <trkpt lat="44.70637" lon="6.92934">
        <ele>2128.4099968</ele>
        <time>2020-02-18T15:22:28.670Z</time>
      </trkpt>
      <trkpt lat="44.70649" lon="6.92917">
        <ele>2127.4099968</ele>
        <time>2020-02-18T15:22:30.670Z</time>
      </trkpt>
      <trkpt lat="44.7066" lon="6.92902">
        <ele>2126.76399872</ele>
        <time>2020-02-18T15:22:32.670Z</time>
      </trkpt>
      <trkpt lat="44.70671" lon="6.92888">
        <ele>2126.36399872</ele>
        <time>2020-02-18T15:22:34.670Z</time>
      </trkpt>
      <trkpt lat="44.70681" lon="6.92874">
        <ele>2125.96399872</ele>
        <time>2020-02-18T15:22:36.670Z</time>
      </trkpt>
      <trkpt lat="44.7069" lon="6.9286">
        <ele>2125.56399872</ele>
        <time>2020-02-18T15:22:38.670Z</time>
      </trkpt>
      <trkpt lat="44.70698" lon="6.92845">
        <ele>2125.16399872</ele>
        <time>2020-02-18T15:22:40.670Z</time>
      </trkpt>
      <trkpt lat="44.70702" lon="6.92832">
        <ele>2124.88199936</ele>
        <time>2020-02-18T15:22:42.670Z</time>
      </trkpt>
      <trkpt lat="44.70704" lon="6.92818">
        <ele>2124.58199936</ele>
        <time>2020-02-18T15:22:45.670Z</time>
      </trkpt>
      <trkpt lat="44.70708" lon="6.928">
        <ele>2124.28199936</ele>
        <time>2020-02-18T15:22:48.670Z</time>
      </trkpt>
      <trkpt lat="44.70711" lon="6.92787">
        <ele>2124.08199936</ele>
        <time>2020-02-18T15:22:50.670Z</time>
      </trkpt>
      <trkpt lat="44.70714" lon="6.92774">
        <ele>2123.76399872</ele>
        <time>2020-02-18T15:22:52.670Z</time>
      </trkpt>
      <trkpt lat="44.70718" lon="6.92755">
        <ele>2123.16399872</ele>
        <time>2020-02-18T15:22:55.670Z</time>
      </trkpt>
      <trkpt lat="44.70722" lon="6.92741">
        <ele>2122.76399872</ele>
        <time>2020-02-18T15:22:57.670Z</time>
      </trkpt>
      <trkpt lat="44.70725" lon="6.92729">
        <ele>2122.36399872</ele>
        <time>2020-02-18T15:22:59.670Z</time>
      </trkpt>
      <trkpt lat="44.70729" lon="6.92715">
        <ele>2121.94599808</ele>
        <time>2020-02-18T15:23:01.670Z</time>
      </trkpt>
      <trkpt lat="44.70733" lon="6.92702">
        <ele>2121.34599808</ele>
        <time>2020-02-18T15:23:03.670Z</time>
      </trkpt>
      <trkpt lat="44.70736" lon="6.92687">
        <ele>2120.74599808</ele>
        <time>2020-02-18T15:23:05.670Z</time>
      </trkpt>
      <trkpt lat="44.70739" lon="6.92672">
        <ele>2120.14599808</ele>
        <time>2020-02-18T15:23:07.670Z</time>
      </trkpt>
      <trkpt lat="44.70742" lon="6.92656">
        <ele>2119.54599808</ele>
        <time>2020-02-18T15:23:09.670Z</time>
      </trkpt>
      <trkpt lat="44.70747" lon="6.9264">
        <ele>2118.85599488</ele>
        <time>2020-02-18T15:23:11.670Z</time>
      </trkpt>
      <trkpt lat="44.70753" lon="6.92622">
        <ele>2117.25599488</ele>
        <time>2020-02-18T15:23:13.670Z</time>
      </trkpt>
      <trkpt lat="44.70761" lon="6.92603">
        <ele>2115.65599488</ele>
        <time>2020-02-18T15:23:15.670Z</time>
      </trkpt>
      <trkpt lat="44.70769" lon="6.92583">
        <ele>2114.05599488</ele>
        <time>2020-02-18T15:23:17.670Z</time>
      </trkpt>
      <trkpt lat="44.70778" lon="6.92563">
        <ele>2112.45599488</ele>
        <time>2020-02-18T15:23:19.670Z</time>
      </trkpt>
      <trkpt lat="44.70788" lon="6.92542">
        <ele>2110.83799424</ele>
        <time>2020-02-18T15:23:21.670Z</time>
      </trkpt>
      <trkpt lat="44.70792" lon="6.92531">
        <ele>2109.93799424</ele>
        <time>2020-02-18T15:23:22.670Z</time>
      </trkpt>
      <trkpt lat="44.70797" lon="6.9252">
        <ele>2109.03799424</ele>
        <time>2020-02-18T15:23:23.670Z</time>
      </trkpt>
      <trkpt lat="44.70807" lon="6.92499">
        <ele>2107.23799424</ele>
        <time>2020-02-18T15:23:25.670Z</time>
      </trkpt>
      <trkpt lat="44.70813" lon="6.92488">
        <ele>2106.33799424</ele>
        <time>2020-02-18T15:23:26.670Z</time>
      </trkpt>
      <trkpt lat="44.70818" lon="6.92477">
        <ele>2105.43799424</ele>
        <time>2020-02-18T15:23:27.670Z</time>
      </trkpt>
      <trkpt lat="44.70823" lon="6.92466">
        <ele>2104.53799424</ele>
        <time>2020-02-18T15:23:28.670Z</time>
      </trkpt>
      <trkpt lat="44.70829" lon="6.92454">
        <ele>2103.63799424</ele>
        <time>2020-02-18T15:23:29.670Z</time>
      </trkpt>
      <trkpt lat="44.70835" lon="6.92442">
        <ele>2102.73799424</ele>
        <time>2020-02-18T15:23:30.670Z</time>
      </trkpt>
      <trkpt lat="44.7084" lon="6.9243">
        <ele>2101.8561388792</ele>
        <time>2020-02-18T15:23:31.670Z</time>
      </trkpt>
      <trkpt lat="44.70846" lon="6.92418">
        <ele>2101.0569388465</ele>
        <time>2020-02-18T15:23:32.670Z</time>
      </trkpt>
      <trkpt lat="44.70851" lon="6.92407">
        <ele>2100.2577388138</ele>
        <time>2020-02-18T15:23:33.670Z</time>
      </trkpt>
      <trkpt lat="44.70862" lon="6.92389">
        <ele>2098.6593387483</ele>
        <time>2020-02-18T15:23:35.670Z</time>
      </trkpt>
      <trkpt lat="44.70873" lon="6.9237">
        <ele>2097.0609386828</ele>
        <time>2020-02-18T15:23:37.670Z</time>
      </trkpt>
      <trkpt lat="44.70882" lon="6.92354">
        <ele>2095.4625386174</ele>
        <time>2020-02-18T15:23:39.670Z</time>
      </trkpt>
      <trkpt lat="44.7089" lon="6.92335">
        <ele>2093.8128161565</ele>
        <time>2020-02-18T15:23:41.670Z</time>
      </trkpt>
      <trkpt lat="44.70901" lon="6.92315">
        <ele>2091.610611838</ele>
        <time>2020-02-18T15:23:43.670Z</time>
      </trkpt>
      <trkpt lat="44.70908" lon="6.92305">
        <ele>2090.5095096788</ele>
        <time>2020-02-18T15:23:44.670Z</time>
      </trkpt>
      <trkpt lat="44.70915" lon="6.92295">
        <ele>2089.4084075196</ele>
        <time>2020-02-18T15:23:45.670Z</time>
      </trkpt>
      <trkpt lat="44.70923" lon="6.92285">
        <ele>2088.3073053604</ele>
        <time>2020-02-18T15:23:46.670Z</time>
      </trkpt>
      <trkpt lat="44.70932" lon="6.92276">
        <ele>2087.2062032012</ele>
        <time>2020-02-18T15:23:47.670Z</time>
      </trkpt>
      <trkpt lat="44.70942" lon="6.9227">
        <ele>2086.1051010419</ele>
        <time>2020-02-18T15:23:48.670Z</time>
      </trkpt>
      <trkpt lat="44.70952" lon="6.92266">
        <ele>2085.0039988827</ele>
        <time>2020-02-18T15:23:49.670Z</time>
      </trkpt>
      <trkpt lat="44.70961" lon="6.92262">
        <ele>2083.9028967235</ele>
        <time>2020-02-18T15:23:50.670Z</time>
      </trkpt>
      <trkpt lat="44.70971" lon="6.92259">
        <ele>2082.78399232</ele>
        <time>2020-02-18T15:23:51.670Z</time>
      </trkpt>
      <trkpt lat="44.70988" lon="6.92253">
        <ele>2080.38399232</ele>
        <time>2020-02-18T15:23:53.670Z</time>
      </trkpt>
      <trkpt lat="44.70996" lon="6.92249">
        <ele>2079.18399232</ele>
        <time>2020-02-18T15:23:54.670Z</time>
      </trkpt>
      <trkpt lat="44.71005" lon="6.92247">
        <ele>2077.98399232</ele>
        <time>2020-02-18T15:23:55.670Z</time>
      </trkpt>
      <trkpt lat="44.71014" lon="6.92243">
        <ele>2076.78399232</ele>
        <time>2020-02-18T15:23:56.670Z</time>
      </trkpt>
      <trkpt lat="44.71023" lon="6.92239">
        <ele>2075.58399232</ele>
        <time>2020-02-18T15:23:57.670Z</time>
      </trkpt>
      <trkpt lat="44.71033" lon="6.92235">
        <ele>2074.38399232</ele>
        <time>2020-02-18T15:23:58.670Z</time>
      </trkpt>
      <trkpt lat="44.71042" lon="6.92229">
        <ele>2073.18399232</ele>
        <time>2020-02-18T15:23:59.670Z</time>
      </trkpt>
      <trkpt lat="44.71052" lon="6.92222">
        <ele>2071.98399232</ele>
        <time>2020-02-18T15:24:00.670Z</time>
      </trkpt>
      <trkpt lat="44.71061" lon="6.92214">
        <ele>2070.80199296</ele>
        <time>2020-02-18T15:24:01.670Z</time>
      </trkpt>
      <trkpt lat="44.7107" lon="6.92206">
        <ele>2069.70199296</ele>
        <time>2020-02-18T15:24:02.670Z</time>
      </trkpt>
      <trkpt lat="44.71078" lon="6.92196">
        <ele>2068.60199296</ele>
        <time>2020-02-18T15:24:03.670Z</time>
      </trkpt>
      <trkpt lat="44.71086" lon="6.92186">
        <ele>2067.50199296</ele>
        <time>2020-02-18T15:24:04.670Z</time>
      </trkpt>
      <trkpt lat="44.71095" lon="6.92175">
        <ele>2066.40199296</ele>
        <time>2020-02-18T15:24:05.670Z</time>
      </trkpt>
      <trkpt lat="44.71103" lon="6.92165">
        <ele>2065.30199296</ele>
        <time>2020-02-18T15:24:06.670Z</time>
      </trkpt>
      <trkpt lat="44.71111" lon="6.92153">
        <ele>2064.20199296</ele>
        <time>2020-02-18T15:24:07.670Z</time>
      </trkpt>
      <trkpt lat="44.7112" lon="6.92142">
        <ele>2063.10199296</ele>
        <time>2020-02-18T15:24:08.670Z</time>
      </trkpt>
      <trkpt lat="44.71128" lon="6.92132">
        <ele>2062.00199296</ele>
        <time>2020-02-18T15:24:09.670Z</time>
      </trkpt>
      <trkpt lat="44.71137" lon="6.92121">
        <ele>2060.90199296</ele>
        <time>2020-02-18T15:24:10.670Z</time>
      </trkpt>
      <trkpt lat="44.71146" lon="6.92111">
        <ele>2059.87399552</ele>
        <time>2020-02-18T15:24:11.670Z</time>
      </trkpt>
      <trkpt lat="44.71154" lon="6.92101">
        <ele>2059.17399552</ele>
        <time>2020-02-18T15:24:12.670Z</time>
      </trkpt>
      <trkpt lat="44.71163" lon="6.92091">
        <ele>2058.47399552</ele>
        <time>2020-02-18T15:24:13.670Z</time>
      </trkpt>
      <trkpt lat="44.71171" lon="6.92081">
        <ele>2057.77399552</ele>
        <time>2020-02-18T15:24:14.670Z</time>
      </trkpt>
      <trkpt lat="44.71179" lon="6.92071">
        <ele>2057.07399552</ele>
        <time>2020-02-18T15:24:15.670Z</time>
      </trkpt>
      <trkpt lat="44.71186" lon="6.92061">
        <ele>2056.37399552</ele>
        <time>2020-02-18T15:24:16.670Z</time>
      </trkpt>
      <trkpt lat="44.71193" lon="6.92051">
        <ele>2055.67399552</ele>
        <time>2020-02-18T15:24:17.670Z</time>
      </trkpt>
      <trkpt lat="44.71199" lon="6.92041">
        <ele>2054.97399552</ele>
        <time>2020-02-18T15:24:18.670Z</time>
      </trkpt>
      <trkpt lat="44.71206" lon="6.92031">
        <ele>2054.27399552</ele>
        <time>2020-02-18T15:24:19.670Z</time>
      </trkpt>
      <trkpt lat="44.71213" lon="6.92021">
        <ele>2053.57399552</ele>
        <time>2020-02-18T15:24:20.670Z</time>
      </trkpt>
      <trkpt lat="44.71219" lon="6.92012">
        <ele>2052.89199616</ele>
        <time>2020-02-18T15:24:21.670Z</time>
      </trkpt>
      <trkpt lat="44.71225" lon="6.92002">
        <ele>2052.29199616</ele>
        <time>2020-02-18T15:24:22.670Z</time>
      </trkpt>
      <trkpt lat="44.71231" lon="6.91992">
        <ele>2051.69199616</ele>
        <time>2020-02-18T15:24:23.670Z</time>
      </trkpt>
      <trkpt lat="44.71236" lon="6.91981">
        <ele>2051.09199616</ele>
        <time>2020-02-18T15:24:24.670Z</time>
      </trkpt>
      <trkpt lat="44.71244" lon="6.9196">
        <ele>2049.89199616</ele>
        <time>2020-02-18T15:24:26.670Z</time>
      </trkpt>
      <trkpt lat="44.71252" lon="6.9194">
        <ele>2048.69199616</ele>
        <time>2020-02-18T15:24:28.670Z</time>
      </trkpt>
      <trkpt lat="44.71258" lon="6.9192">
        <ele>2047.49199616</ele>
        <time>2020-02-18T15:24:30.670Z</time>
      </trkpt>
      <trkpt lat="44.71266" lon="6.91901">
        <ele>2046.52799744</ele>
        <time>2020-02-18T15:24:32.670Z</time>
      </trkpt>
      <trkpt lat="44.71275" lon="6.91884">
        <ele>2045.72799744</ele>
        <time>2020-02-18T15:24:34.670Z</time>
      </trkpt>
      <trkpt lat="44.71286" lon="6.91865">
        <ele>2044.92799744</ele>
        <time>2020-02-18T15:24:36.670Z</time>
      </trkpt>
      <trkpt lat="44.71298" lon="6.9185">
        <ele>2044.12799744</ele>
        <time>2020-02-18T15:24:38.670Z</time>
      </trkpt>
      <trkpt lat="44.7131" lon="6.91834">
        <ele>2043.32799744</ele>
        <time>2020-02-18T15:24:40.670Z</time>
      </trkpt>
      <trkpt lat="44.71323" lon="6.91819">
        <ele>2042.64599808</ele>
        <time>2020-02-18T15:24:42.670Z</time>
      </trkpt>
      <trkpt lat="44.71337" lon="6.91806">
        <ele>2042.04599808</ele>
        <time>2020-02-18T15:24:44.670Z</time>
      </trkpt>
      <trkpt lat="44.71351" lon="6.91792">
        <ele>2041.44599808</ele>
        <time>2020-02-18T15:24:46.670Z</time>
      </trkpt>
      <trkpt lat="44.71363" lon="6.9178">
        <ele>2040.84599808</ele>
        <time>2020-02-18T15:24:48.670Z</time>
      </trkpt>
      <trkpt lat="44.71374" lon="6.91767">
        <ele>2040.24599808</ele>
        <time>2020-02-18T15:24:50.670Z</time>
      </trkpt>
      <trkpt lat="44.71384" lon="6.91755">
        <ele>2039.52799744</ele>
        <time>2020-02-18T15:24:52.670Z</time>
      </trkpt>
      <trkpt lat="44.71393" lon="6.91742">
        <ele>2038.72799744</ele>
        <time>2020-02-18T15:24:54.670Z</time>
      </trkpt>
      <trkpt lat="44.71402" lon="6.9173">
        <ele>2037.92799744</ele>
        <time>2020-02-18T15:24:56.670Z</time>
      </trkpt>
      <trkpt lat="44.71411" lon="6.9172">
        <ele>2037.12799744</ele>
        <time>2020-02-18T15:24:58.670Z</time>
      </trkpt>
      <trkpt lat="44.71419" lon="6.91709">
        <ele>2036.32799744</ele>
        <time>2020-02-18T15:25:00.670Z</time>
      </trkpt>
      <trkpt lat="44.71427" lon="6.91698">
        <ele>2036</ele>
        <time>2020-02-18T15:25:02.670Z</time>
      </trkpt>
      <trkpt lat="44.71434" lon="6.91688">
        <ele>2036</ele>
        <time>2020-02-18T15:25:04.670Z</time>
      </trkpt>
      <trkpt lat="44.71441" lon="6.9168">
        <ele>2036</ele>
        <time>2020-02-18T15:25:06.670Z</time>
      </trkpt>
      <trkpt lat="44.7145" lon="6.91667">
        <ele>2036</ele>
        <time>2020-02-18T15:25:09.670Z</time>
      </trkpt>
      <trkpt lat="44.7146" lon="6.91655">
        <ele>2035.9120995198</ele>
        <time>2020-02-18T15:25:12.670Z</time>
      </trkpt>
      <trkpt lat="44.7147" lon="6.91644">
        <ele>2035.6018613628</ele>
        <time>2020-02-18T15:25:15.670Z</time>
      </trkpt>
      <trkpt lat="44.71481" lon="6.91634">
        <ele>2035.2916232058</ele>
        <time>2020-02-18T15:25:18.670Z</time>
      </trkpt>
      <trkpt lat="44.71489" lon="6.91626">
        <ele>2035.0847977677</ele>
        <time>2020-02-18T15:25:20.670Z</time>
      </trkpt>
      <trkpt lat="44.71496" lon="6.91618">
        <ele>2035</ele>
        <time>2020-02-18T15:25:22.670Z</time>
      </trkpt>
      <trkpt lat="44.71505" lon="6.91605">
        <ele>2035</ele>
        <time>2020-02-18T15:25:25.670Z</time>
      </trkpt>
      <trkpt lat="44.71512" lon="6.9159">
        <ele>2035</ele>
        <time>2020-02-18T15:25:28.670Z</time>
      </trkpt>
      <trkpt lat="44.71516" lon="6.91575">
        <ele>2035</ele>
        <time>2020-02-18T15:25:31.670Z</time>
      </trkpt>
      <trkpt lat="44.71518" lon="6.91562">
        <ele>2035</ele>
        <time>2020-02-18T15:25:35.670Z</time>
      </trkpt>
      <trkpt lat="44.71521" lon="6.91545">
        <ele>2035</ele>
        <time>2020-02-18T15:25:39.670Z</time>
      </trkpt>
      <trkpt lat="44.71522" lon="6.91532">
        <ele>2034.88199936</ele>
        <time>2020-02-18T15:25:42.670Z</time>
      </trkpt>
      <trkpt lat="44.71523" lon="6.91515">
        <ele>2034.48199936</ele>
        <time>2020-02-18T15:25:46.670Z</time>
      </trkpt>
      <trkpt lat="44.71525" lon="6.91501">
        <ele>2034.18199936</ele>
        <time>2020-02-18T15:25:49.670Z</time>
      </trkpt>
      <trkpt lat="44.71531" lon="6.91487">
        <ele>2033.64599808</ele>
        <time>2020-02-18T15:25:52.670Z</time>
      </trkpt>
      <trkpt lat="44.71539" lon="6.91473">
        <ele>2032.74599808</ele>
        <time>2020-02-18T15:25:55.670Z</time>
      </trkpt>
      <trkpt lat="44.71544" lon="6.91462">
        <ele>2032.14599808</ele>
        <time>2020-02-18T15:25:57.670Z</time>
      </trkpt>
      <trkpt lat="44.7155" lon="6.91451">
        <ele>2031.54599808</ele>
        <time>2020-02-18T15:25:59.670Z</time>
      </trkpt>
      <trkpt lat="44.71556" lon="6.91439">
        <ele>2030.87399552</ele>
        <time>2020-02-18T15:26:01.670Z</time>
      </trkpt>
      <trkpt lat="44.71565" lon="6.91426">
        <ele>2029.47399552</ele>
        <time>2020-02-18T15:26:03.670Z</time>
      </trkpt>
      <trkpt lat="44.71574" lon="6.91413">
        <ele>2028.07399552</ele>
        <time>2020-02-18T15:26:05.670Z</time>
      </trkpt>
      <trkpt lat="44.71584" lon="6.91399">
        <ele>2026.67399552</ele>
        <time>2020-02-18T15:26:07.670Z</time>
      </trkpt>
      <trkpt lat="44.71596" lon="6.91384">
        <ele>2025.27399552</ele>
        <time>2020-02-18T15:26:09.670Z</time>
      </trkpt>
      <trkpt lat="44.7161" lon="6.9137">
        <ele>2023.85599488</ele>
        <time>2020-02-18T15:26:11.670Z</time>
      </trkpt>
      <trkpt lat="44.71623" lon="6.91352">
        <ele>2022.25599488</ele>
        <time>2020-02-18T15:26:13.670Z</time>
      </trkpt>
      <trkpt lat="44.71633" lon="6.91333">
        <ele>2020.65599488</ele>
        <time>2020-02-18T15:26:15.670Z</time>
      </trkpt>
      <trkpt lat="44.71642" lon="6.91312">
        <ele>2019.05599488</ele>
        <time>2020-02-18T15:26:17.670Z</time>
      </trkpt>
      <trkpt lat="44.71651" lon="6.9129">
        <ele>2017.45599488</ele>
        <time>2020-02-18T15:26:19.670Z</time>
      </trkpt>
      <trkpt lat="44.71655" lon="6.91279">
        <ele>2016.65599488</ele>
        <time>2020-02-18T15:26:20.670Z</time>
      </trkpt>
      <trkpt lat="44.71662" lon="6.91257">
        <ele>2015.52799744</ele>
        <time>2020-02-18T15:26:22.670Z</time>
      </trkpt>
      <trkpt lat="44.71669" lon="6.91235">
        <ele>2014.72799744</ele>
        <time>2020-02-18T15:26:24.670Z</time>
      </trkpt>
      <trkpt lat="44.71674" lon="6.91213">
        <ele>2013.92799744</ele>
        <time>2020-02-18T15:26:26.670Z</time>
      </trkpt>
      <trkpt lat="44.71679" lon="6.91192">
        <ele>2013.12799744</ele>
        <time>2020-02-18T15:26:28.670Z</time>
      </trkpt>
      <trkpt lat="44.71684" lon="6.91173">
        <ele>2012.32799744</ele>
        <time>2020-02-18T15:26:30.670Z</time>
      </trkpt>
      <trkpt lat="44.71689" lon="6.91154">
        <ele>2011.76399872</ele>
        <time>2020-02-18T15:26:32.670Z</time>
      </trkpt>
      <trkpt lat="44.71695" lon="6.91137">
        <ele>2011.36399872</ele>
        <time>2020-02-18T15:26:34.670Z</time>
      </trkpt>
      <trkpt lat="44.71703" lon="6.91122">
        <ele>2010.96399872</ele>
        <time>2020-02-18T15:26:36.670Z</time>
      </trkpt>
      <trkpt lat="44.71711" lon="6.91108">
        <ele>2010.56399872</ele>
        <time>2020-02-18T15:26:38.670Z</time>
      </trkpt>
      <trkpt lat="44.7172" lon="6.91093">
        <ele>2010.16399872</ele>
        <time>2020-02-18T15:26:40.670Z</time>
      </trkpt>
      <trkpt lat="44.71728" lon="6.9108">
        <ele>2009.64599808</ele>
        <time>2020-02-18T15:26:42.670Z</time>
      </trkpt>
      <trkpt lat="44.71736" lon="6.91068">
        <ele>2009.04599808</ele>
        <time>2020-02-18T15:26:44.670Z</time>
      </trkpt>
      <trkpt lat="44.71744" lon="6.91055">
        <ele>2008.44599808</ele>
        <time>2020-02-18T15:26:46.670Z</time>
      </trkpt>
      <trkpt lat="44.71752" lon="6.91041">
        <ele>2007.84599808</ele>
        <time>2020-02-18T15:26:48.670Z</time>
      </trkpt>
      <trkpt lat="44.7176" lon="6.91028">
        <ele>2007.24599808</ele>
        <time>2020-02-18T15:26:50.670Z</time>
      </trkpt>
      <trkpt lat="44.71768" lon="6.91014">
        <ele>2006.52799744</ele>
        <time>2020-02-18T15:26:52.670Z</time>
      </trkpt>
      <trkpt lat="44.71774" lon="6.90999">
        <ele>2005.72799744</ele>
        <time>2020-02-18T15:26:54.670Z</time>
      </trkpt>
      <trkpt lat="44.7178" lon="6.90983">
        <ele>2004.92799744</ele>
        <time>2020-02-18T15:26:56.670Z</time>
      </trkpt>
      <trkpt lat="44.71785" lon="6.90968">
        <ele>2004.12799744</ele>
        <time>2020-02-18T15:26:58.670Z</time>
      </trkpt>
      <trkpt lat="44.71788" lon="6.90952">
        <ele>2003.32799744</ele>
        <time>2020-02-18T15:27:00.670Z</time>
      </trkpt>
      <trkpt lat="44.71792" lon="6.90936">
        <ele>2002.76399872</ele>
        <time>2020-02-18T15:27:02.670Z</time>
      </trkpt>
      <trkpt lat="44.71796" lon="6.90919">
        <ele>2002.36399872</ele>
        <time>2020-02-18T15:27:04.670Z</time>
      </trkpt>
      <trkpt lat="44.718" lon="6.90903">
        <ele>2001.96399872</ele>
        <time>2020-02-18T15:27:06.670Z</time>
      </trkpt>
      <trkpt lat="44.71803" lon="6.90889">
        <ele>2001.56399872</ele>
        <time>2020-02-18T15:27:08.670Z</time>
      </trkpt>
      <trkpt lat="44.71806" lon="6.90873">
        <ele>2001.16399872</ele>
        <time>2020-02-18T15:27:10.670Z</time>
      </trkpt>
      <trkpt lat="44.7181" lon="6.90857">
        <ele>2000.52799744</ele>
        <time>2020-02-18T15:27:12.670Z</time>
      </trkpt>
      <trkpt lat="44.71812" lon="6.90841">
        <ele>1999.72799744</ele>
        <time>2020-02-18T15:27:14.670Z</time>
      </trkpt>
      <trkpt lat="44.71816" lon="6.90824">
        <ele>1998.92799744</ele>
        <time>2020-02-18T15:27:16.670Z</time>
      </trkpt>
      <trkpt lat="44.71818" lon="6.90808">
        <ele>1998.12799744</ele>
        <time>2020-02-18T15:27:18.670Z</time>
      </trkpt>
      <trkpt lat="44.71821" lon="6.90791">
        <ele>1997.32799744</ele>
        <time>2020-02-18T15:27:20.670Z</time>
      </trkpt>
      <trkpt lat="44.71824" lon="6.90774">
        <ele>1996.4099968</ele>
        <time>2020-02-18T15:27:22.670Z</time>
      </trkpt>
      <trkpt lat="44.71826" lon="6.90756">
        <ele>1995.4099968</ele>
        <time>2020-02-18T15:27:24.670Z</time>
      </trkpt>
      <trkpt lat="44.71828" lon="6.90737">
        <ele>1994.4099968</ele>
        <time>2020-02-18T15:27:26.670Z</time>
      </trkpt>
      <trkpt lat="44.71831" lon="6.90718">
        <ele>1993.4099968</ele>
        <time>2020-02-18T15:27:28.670Z</time>
      </trkpt>
      <trkpt lat="44.71834" lon="6.90698">
        <ele>1992.4099968</ele>
        <time>2020-02-18T15:27:30.670Z</time>
      </trkpt>
      <trkpt lat="44.71838" lon="6.90677">
        <ele>1991.52799744</ele>
        <time>2020-02-18T15:27:32.670Z</time>
      </trkpt>
      <trkpt lat="44.71842" lon="6.90656">
        <ele>1990.72799744</ele>
        <time>2020-02-18T15:27:34.670Z</time>
      </trkpt>
      <trkpt lat="44.71847" lon="6.90635">
        <ele>1989.92799744</ele>
        <time>2020-02-18T15:27:36.670Z</time>
      </trkpt>
      <trkpt lat="44.71853" lon="6.90615">
        <ele>1989.12799744</ele>
        <time>2020-02-18T15:27:38.670Z</time>
      </trkpt>
      <trkpt lat="44.7186" lon="6.90596">
        <ele>1988.32799744</ele>
        <time>2020-02-18T15:27:40.670Z</time>
      </trkpt>
      <trkpt lat="44.71867" lon="6.90578">
        <ele>1987.64599808</ele>
        <time>2020-02-18T15:27:42.670Z</time>
      </trkpt>
      <trkpt lat="44.71874" lon="6.9056">
        <ele>1987.04599808</ele>
        <time>2020-02-18T15:27:44.670Z</time>
      </trkpt>
      <trkpt lat="44.71881" lon="6.90542">
        <ele>1986.44599808</ele>
        <time>2020-02-18T15:27:46.670Z</time>
      </trkpt>
      <trkpt lat="44.71886" lon="6.90524">
        <ele>1985.84599808</ele>
        <time>2020-02-18T15:27:48.670Z</time>
      </trkpt>
      <trkpt lat="44.71886" lon="6.90506">
        <ele>1985.24599808</ele>
        <time>2020-02-18T15:27:50.670Z</time>
      </trkpt>
      <trkpt lat="44.71888" lon="6.90491">
        <ele>1984.52799744</ele>
        <time>2020-02-18T15:27:52.670Z</time>
      </trkpt>
      <trkpt lat="44.71891" lon="6.90475">
        <ele>1983.72799744</ele>
        <time>2020-02-18T15:27:54.670Z</time>
      </trkpt>
      <trkpt lat="44.71898" lon="6.90462">
        <ele>1982.92799744</ele>
        <time>2020-02-18T15:27:56.670Z</time>
      </trkpt>
      <trkpt lat="44.71906" lon="6.90451">
        <ele>1981.72799744</ele>
        <time>2020-02-18T15:27:59.670Z</time>
      </trkpt>
      <trkpt lat="44.7191" lon="6.90437">
        <ele>1980.78199936</ele>
        <time>2020-02-18T15:28:03.670Z</time>
      </trkpt>
      <trkpt lat="44.71906" lon="6.90425">
        <ele>1980</ele>
        <time>2020-02-18T15:28:20.670Z</time>
      </trkpt>
      <trkpt lat="44.71904" lon="6.90424">
        <ele>2025</ele>
        <time>2020-02-18T15:28:58.670Z</time>
      </trkpt>
    </trkseg>
  </trk>
</gpx>